[[{"header":{"parameterUnit":"m.s-1","parameterCategory":1,"la1":30.6,"la2":28.766,"lo1":-90.7593,"lo2":-88.6598,"dy":0.0162,"dx":0.0183,"nx":116,"ny":114,"refTime":"2023-03-05T18:00:00:Z","depth":0,"parameterNumber":2,"parameterNumberName":"U-component_of_WINDS"},"data":[0.0,0.0,0.0,0.0,0.0,0.0,0.0,0.0,0.0,0.0,0.0,0.0,0.0,0.0,0.0,0.0,0.0,0.0,0.0,0.0,0.0,0.0,0.0,0.0,0.0,0.0,0.0,0.0,0.0,0.0,0.0,0.0,0.0,0.0,0.0,0.0,0.0,0.0,0.0,0.0,0.0,0.0,0.0,0.0,0.0,0.0,0.0,0.0,0.0,0.0,0.0,0.0,0.0,0.0,0.0,0.0,0.0,0.0,0.0,0.0,0.0,0.0,0.0,0.0,0.0,0.0,0.0,0.0,0.0,0.0,0.0,0.0,0.0,0.0,0.0,0.0,0.0,0.0,0.0,0.0,0.0,0.0,0.0,0.0,0.0,0.0,0.0,0.0,0.0,0.0,0.0,0.0,0.0,0.0,0.0,0.0,0.0,0.0,0.0,0.0,0.0,0.0,0.0,0.0,0.0,0.0,0.0,0.0,0.0,0.0,0.0,0.0,0.0,0.0,0.0,0.0,0.0,0.0,0.0,0.0,0.0,0.0,0.0,0.0,0.0,0.0,0.0,0.0,0.0,0.0,0.0,0.0,0.0,0.0,0.0,0.0,0.0,0.0,0.0,0.0,0.0,0.0,0.0,0.0,0.0,0.0,0.0,0.0,0.0,0.0,0.0,0.0,0.0,0.0,0.0,0.0,0.0,0.0,0.0,0.0,0.0,0.0,0.0,0.0,0.0,0.0,0.0,0.0,0.0,0.0,0.0,0.0,0.0,0.0,0.0,0.0,0.0,0.0,0.0,0.0,0.0,0.0,0.0,0.0,0.0,0.0,0.0,0.0,0.0,0.0,0.0,0.0,0.0,0.0,0.0,0.0,0.0,0.0,0.0,0.0,0.0,0.0,0.0,0.0,0.0,0.0,0.0,0.0,0.0,0.0,0.0,0.0,0.0,0.0,0.0,0.0,0.0,0.0,0.0,0.0,0.0,0.0,0.0,0.0,0.0,0.0,0.0,0.0,0.0,0.0,0.0,0.0,0.0,0.0,0.0,0.0,0.0,0.0,0.0,0.0,0.0,0.0,0.0,0.0,0.0,0.0,0.0,0.0,0.0,0.0,0.0,0.0,0.0,0.0,0.0,0.0,0.0,0.0,0.0,0.0,0.0,0.0,0.0,0.0,0.0,0.0,0.0,0.0,0.0,0.0,0.0,0.0,0.0,0.0,0.0,0.0,0.0,0.0,0.0,0.0,0.0,0.0,0.0,0.0,0.0,0.0,0.0,0.0,0.0,0.0,0.0,0.0,0.0,0.0,0.0,0.0,0.0,0.0,0.0,0.0,0.0,0.0,0.0,0.0,0.0,0.0,0.0,0.0,0.0,0.0,0.0,0.0,0.0,0.0,0.0,0.0,0.0,0.0,0.0,0.0,0.0,0.0,0.0,0.0,0.0,0.0,0.0,0.0,0.0,0.0,0.0,0.0,0.0,0.0,0.0,0.0,0.0,0.0,0.0,0.0,0.0,0.0,0.0,0.0,0.0,0.0,0.0,0.0,0.0,0.0,0.0,0.0,0.0,0.0,0.0,0.0,0.0,0.0,0.0,0.0,0.0,0.0,0.0,0.0,0.0,0.0,0.0,0.0,0.0,0.0,0.0,0.0,0.0,0.0,0.0,0.0,0.0,0.0,0.0,0.0,0.0,0.0,0.0,0.0,0.0,0.0,0.0,0.0,0.0,0.0,0.0,0.0,0.0,0.0,0.0,0.0,0.0,0.0,0.0,0.0,0.0,0.0,0.0,0.0,0.0,0.0,0.0,0.0,0.0,0.0,0.0,0.0,0.0,0.0,0.0,0.0,0.0,0.0,0.0,0.0,0.0,0.0,0.0,0.0,0.0,0.0,0.0,0.0,0.0,0.0,0.0,0.0,0.0,0.0,0.0,0.0,0.0,0.0,0.0,0.0,0.0,0.0,0.0,0.0,0.0,0.0,0.0,0.0,0.0,0.0,0.0,0.0,0.0,0.0,0.0,0.0,0.0,0.0,0.0,0.0,0.0,0.0,0.0,0.0,0.0,0.0,0.0,0.0,0.0,0.0,0.0,0.0,0.0,0.0,0.0,0.0,0.0,0.0,0.0,0.0,0.0,0.0,0.0,0.0,0.0,0.0,0.0,0.0,0.0,0.0,0.0,0.0,0.0,0.0,0.0,0.0,0.0,0.0,0.0,0.0,0.0,0.0,0.0,0.0,0.0,0.0,0.0,0.0,0.0,0.0,0.0,0.0,0.0,0.0,0.0,0.0,0.0,0.0,0.0,0.0,0.0,0.0,0.0,0.0,0.0,0.0,0.0,0.0,0.0,0.0,0.0,0.0,0.0,0.0,0.0,0.0,0.0,0.0,0.0,0.0,0.0,0.0,0.0,0.0,0.0,0.0,0.0,0.0,0.0,0.0,0.0,0.0,0.0,0.0,0.0,0.0,0.0,0.0,0.0,0.0,0.0,0.0,0.0,0.0,0.0,0.0,0.0,0.0,0.0,0.0,0.0,0.0,0.0,0.0,0.0,0.0,0.0,0.0,0.0,0.0,0.0,0.0,0.0,0.0,0.0,0.0,0.0,0.0,0.0,0.0,0.0,0.0,0.0,0.0,0.0,0.0,0.0,0.0,0.0,0.0,0.0,0.0,0.0,0.0,0.0,0.0,0.0,0.0,0.0,0.0,0.0,0.0,0.0,0.0,0.0,0.0,0.0,0.0,0.0,0.0,0.0,0.0,0.0,0.0,0.0,0.0,0.0,0.0,0.0,0.0,0.0,0.0,0.0,0.0,0.0,0.0,0.0,0.0,0.0,0.0,0.0,0.0,0.0,0.0,0.0,0.0,0.0,0.0,0.0,0.0,0.0,0.0,0.0,0.0,0.0,0.0,0.0,0.0,0.0,0.0,0.0,0.0,0.0,0.0,0.0,0.0,0.0,0.0,0.0,0.0,0.0,0.0,0.0,0.0,0.0,0.0,0.0,0.0,0.0,0.0,0.0,0.0,0.0,0.0,0.0,0.0,0.0,0.0,0.0,0.0,0.0,0.0,0.0,0.0,0.0,0.0,0.0,0.0,0.0,0.0,0.0,0.0,0.0,0.0,0.0,0.0,0.0,0.0,0.0,0.0,0.0,0.0,0.0,0.0,0.0,0.0,0.0,0.0,0.0,0.0,0.0,0.0,0.0,0.0,0.0,0.0,0.0,0.0,0.0,0.0,0.0,0.0,0.0,0.0,0.0,0.0,0.0,0.0,0.0,0.0,0.0,0.0,0.0,0.0,0.0,0.0,0.0,0.0,0.0,0.0,0.0,0.0,0.0,0.0,0.0,0.0,0.0,0.0,0.0,0.0,0.0,0.0,0.0,0.0,0.0,0.0,0.0,0.0,0.0,0.0,0.0,0.0,0.0,0.0,0.0,0.0,0.0,0.0,0.0,0.0,0.0,0.0,0.0,0.0,0.0,0.0,0.0,0.0,0.0,0.0,0.0,0.0,0.0,0.0,0.0,0.0,0.0,0.0,0.0,0.0,0.0,0.0,0.0,0.0,0.0,0.0,0.0,0.0,0.0,0.0,0.0,0.0,0.0,0.0,0.0,0.0,0.0,0.0,0.0,0.0,0.0,0.0,0.0,0.0,0.0,0.0,0.0,0.0,0.0,0.0,0.0,0.0,0.0,0.0,0.0,0.0,0.0,0.0,0.0,0.0,0.0,0.0,0.0,0.0,0.0,0.0,0.0,0.0,0.0,0.0,0.0,0.0,0.0,0.0,0.0,0.0,0.0,0.0,0.0,0.0,0.0,0.0,0.0,0.0,0.0,0.0,0.0,0.0,0.0,0.0,0.0,0.0,0.0,0.0,0.0,0.0,0.0,0.0,0.0,0.0,0.0,0.0,0.0,0.0,0.0,0.0,0.0,0.0,0.0,0.0,0.0,0.0,0.0,0.0,0.0,0.0,0.0,0.0,0.0,0.0,0.0,0.0,0.0,0.0,0.0,0.0,0.0,0.0,0.0,0.0,0.0,0.0,0.0,0.0,0.0,0.0,0.0,0.0,0.0,0.0,0.0,0.0,0.0,0.0,0.0,0.0,0.0,0.0,0.0,0.0,0.0,0.0,0.0,0.0,0.0,0.0,0.0,0.0,0.0,0.0,0.0,0.0,0.0,0.0,0.0,0.0,0.0,0.0,0.0,0.0,0.0,0.0,0.0,0.0,0.0,0.0,0.0,0.0,0.0,0.0,0.0,0.0,0.0,0.0,0.0,0.0,0.0,0.0,0.0,0.0,0.0,0.0,0.0,0.0,0.0,0.0,0.0,0.0,0.0,0.0,0.0,0.0,0.0,0.0,0.0,0.0,0.0,0.0,0.0,0.0,0.0,0.0,0.0,0.0,0.0,0.0,0.0,0.0,0.0,0.0,0.0,0.0,0.0,0.0,0.0,0.0,0.0,0.0,0.0,0.0,0.0,0.0,0.0,0.0,0.0,0.0,0.0,0.0,0.0,0.0,0.0,0.0,0.0,0.0,0.0,0.0,0.0,0.0,0.0,0.0,0.0,0.0,0.0,0.0,0.0,0.0,0.0,0.0,0.0,0.0,0.0,0.0,0.0,0.0,0.0,0.0,0.0,0.0,0.0,0.0,0.0,0.0,0.0,0.0,0.0,0.0,0.0,0.0,0.0,0.0,0.0,0.0,0.0,0.0,0.0,0.0,0.0,0.0,0.0,0.0,0.0,0.0,0.0,0.0,0.0,0.0,0.0,0.0,0.0,0.0,0.0,0.0,0.0,0.0,0.0,0.0,0.0,0.0,0.0,0.0,0.0,0.0,0.0,0.0,0.0,0.0,0.0,0.0,0.0,0.0,0.0,0.0,0.0,0.0,0.0,0.0,0.0,0.0,0.0,0.0,0.0,0.0,0.0,0.0,0.0,0.0,0.0,0.0,0.0,0.0,0.0,0.0,0.0,0.0,0.0,0.0,0.0,0.0,0.0,0.0,0.0,0.0,0.0,0.0,0.0,0.0,0.0,0.0,0.0,0.0,0.0,0.0,0.0,0.0,0.0,0.0,0.0,0.0,0.0,0.0,0.0,0.0,0.0,0.0,0.0,0.0,0.0,0.0,0.0,0.0,0.0,0.0,0.0,0.0,0.0,0.0,0.0,0.0,0.0,0.0,0.0,0.0,0.0,0.0,0.0,0.0,0.0,0.0,0.0,0.0,0.0,0.0,0.0,0.0,0.0,0.0,0.0,0.0,0.0,0.0,0.0,0.0,0.0,0.0,0.0,0.0,0.0,0.0,0.0,0.0,0.0,0.0,0.0,0.0,0.0,0.0,0.0,0.0,0.0,0.0,0.0,0.0,0.0,0.0,0.0,0.0,0.0,0.0,0.0,0.0,0.0,0.0,0.0,0.0,0.0,0.0,0.0,0.0,0.0,0.0,0.0,0.0,0.0,0.0,0.0,0.0,0.0,0.0,0.0,0.0,0.0,0.0,0.0,0.0,0.0,0.0,0.0,0.0,0.0,0.0,0.0,0.0,0.0,0.0,0.0,0.0,0.0,0.0,0.0,0.0,0.0,0.0,0.0,0.0,0.0,0.0,0.0,0.0,0.0,0.0,0.0,0.0,0.0,0.0,0.0,0.0,0.0,0.0,0.0,0.0,0.0,0.0,0.0,0.0,0.0,0.0,0.0,0.0,0.0,0.0,0.0,0.0,0.0,0.0,0.0,0.0,0.0,0.0,0.0,0.0,0.0,0.0,0.0,0.0,0.0,0.0,0.0,0.0,0.0,0.0,0.0,0.0,0.0,0.0,0.0,0.0,0.0,0.0,0.0,0.0,0.0,0.0,0.0,0.0,0.0,0.0,0.0,0.0,0.0,0.0,0.0,0.0,0.0,0.0,0.0,0.0,0.0,0.0,0.0,0.0,0.0,0.0,0.0,0.0,0.0,0.0,0.0,0.0,0.0,0.0,0.0,0.0,0.0,0.0,0.0,0.0,0.0,0.0,0.0,0.0,0.0,0.0,0.0,0.0,0.0,0.0,0.0,0.0,0.0,0.0,0.0,0.0,0.0,0.0,0.0,0.0,0.0,0.0,0.0,0.0,-1.9308,0.0,0.0,0.0,0.0,0.0,0.0,0.0,0.0,0.0,0.0,0.0,0.0,0.0,0.0,0.0,0.0,0.0,0.0,0.0,0.0,0.0,0.0,0.0,0.0,0.0,0.0,0.0,0.0,0.0,0.0,0.0,0.0,0.0,0.0,0.0,0.0,0.0,0.0,0.0,0.0,0.0,0.0,0.0,0.0,0.0,0.0,0.0,0.0,0.0,0.0,0.0,0.0,0.0,0.0,0.0,0.0,0.0,0.0,0.0,0.0,0.0,0.0,0.0,0.0,0.0,0.0,0.0,0.0,0.0,0.0,0.0,0.0,0.0,0.0,0.0,0.0,0.0,0.0,0.0,0.0,0.0,0.0,0.0,0.0,0.0,0.0,0.0,0.0,0.0,0.0,0.0,0.0,0.0,0.0,0.0,0.0,0.0,0.0,0.0,0.0,0.0,0.0,0.0,0.0,0.0,0.0,0.0,0.0,0.0,0.0,0.0,0.0,0.0,0.0,0.0,0.0,-1.9277,0.0,0.0,0.0,0.0,0.0,0.0,0.0,0.0,0.0,0.0,0.0,0.0,0.0,0.0,0.0,0.0,0.0,0.0,0.0,0.0,0.0,0.0,0.0,0.0,0.0,0.0,0.0,0.0,0.0,0.0,0.0,0.0,0.0,0.0,0.0,0.0,0.0,0.0,0.0,0.0,0.0,0.0,0.0,0.0,0.0,0.0,0.0,0.0,0.0,0.0,0.0,0.0,0.0,0.0,0.0,0.0,0.0,0.0,0.0,0.0,0.0,0.0,0.0,0.0,0.0,0.0,0.0,0.0,0.0,0.0,0.0,0.0,0.0,0.0,0.0,0.0,0.0,0.0,0.0,0.0,0.0,0.0,0.0,0.0,0.0,0.0,0.0,0.0,0.0,0.0,0.0,0.0,0.0,0.0,0.0,0.0,0.0,0.0,0.0,0.0,0.0,0.0,0.0,0.0,0.0,0.0,0.0,0.0,-1.9564,-1.9468,-1.9424,-1.9363,-1.9282,-1.9216,-1.9216,-1.9264,-1.9323,-1.9522,0.0,0.0,0.0,0.0,0.0,0.0,0.0,0.0,0.0,0.0,0.0,0.0,0.0,0.0,0.0,0.0,0.0,0.0,0.0,0.0,0.0,0.0,0.0,0.0,0.0,0.0,0.0,0.0,0.0,0.0,0.0,0.0,0.0,0.0,0.0,0.0,0.0,0.0,-2.0204,-2.0211,-2.0171,-2.0127,-2.026,0.0,0.0,0.0,0.0,0.0,0.0,0.0,0.0,0.0,0.0,0.0,0.0,0.0,0.0,0.0,0.0,0.0,0.0,0.0,0.0,0.0,0.0,0.0,0.0,0.0,0.0,0.0,0.0,0.0,0.0,0.0,0.0,0.0,0.0,0.0,0.0,0.0,0.0,0.0,0.0,0.0,0.0,0.0,-2.051,-2.0504,0.0,0.0,0.0,0.0,0.0,0.0,0.0,0.0,0.0,0.0,0.0,0.0,0.0,-1.9353,-2.0089,-1.9907,-1.9769,-1.9699,-1.956,-1.9493,-1.9483,-1.9424,-1.9375,-1.9375,-1.9375,0.0,-1.932,-1.9513,0.0,0.0,0.0,0.0,0.0,0.0,0.0,0.0,0.0,0.0,0.0,0.0,0.0,0.0,0.0,0.0,0.0,0.0,0.0,0.0,0.0,0.0,0.0,0.0,0.0,0.0,0.0,0.0,0.0,0.0,0.0,0.0,0.0,0.0,0.0,0.0,-2.0623,-2.0974,-2.0879,-2.1292,-2.145,-2.1396,-2.1439,-2.0976,-2.0145,-2.0218,0.0,0.0,0.0,0.0,0.0,0.0,0.0,0.0,0.0,0.0,0.0,0.0,0.0,0.0,0.0,0.0,0.0,0.0,0.0,0.0,0.0,0.0,0.0,0.0,0.0,0.0,0.0,0.0,0.0,0.0,0.0,0.0,0.0,0.0,0.0,0.0,0.0,0.0,0.0,-2.0461,-2.0497,-2.0504,-2.05,-2.0507,0.0,0.0,0.0,0.0,0.0,0.0,0.0,0.0,0.0,-2.0346,-1.9947,-1.9849,-2.0108,-1.9939,-1.9816,-1.9757,-1.966,-1.9587,-1.9564,-1.9541,-1.9479,-1.946,-1.946,-1.946,-1.9493,-1.9601,-1.9751,-1.9928,0.0,0.0,0.0,0.0,-1.9946,-1.9259,0.0,0.0,0.0,0.0,0.0,0.0,0.0,0.0,0.0,0.0,0.0,0.0,0.0,0.0,0.0,-1.5374,0.0,0.0,0.0,0.0,0.0,0.0,0.0,0.0,0.0,0.0,0.0,0.0,-2.118,-2.155,-2.1682,-2.2217,-2.2443,-2.2376,-2.2382,-2.1623,-2.0371,-2.0432,-2.0346,0.0,0.0,0.0,0.0,0.0,0.0,0.0,0.0,0.0,0.0,0.0,0.0,0.0,0.0,0.0,0.0,0.0,0.0,0.0,0.0,0.0,0.0,0.0,0.0,0.0,0.0,0.0,0.0,0.0,0.0,0.0,0.0,0.0,0.0,0.0,0.0,0.0,0.0,-2.042,-2.0472,-2.051,-2.0497,-2.0513,0.0,0.0,0.0,0.0,0.0,0.0,-2.0497,-2.0503,-2.0467,-2.041,-2.0354,-2.0254,-2.0125,-2.0011,-1.9915,-1.9806,-1.9788,-1.9719,-1.9662,-1.966,-1.962,-1.9574,-1.9555,-1.9574,-1.962,-1.9705,-1.983,-2.001,-2.0175,-2.0299,-2.0386,-2.0291,-1.9538,-1.8394,0.0,0.0,0.0,0.0,0.0,0.0,0.0,0.0,0.0,0.0,0.0,0.0,0.0,0.0,-1.531,-1.531,-1.531,-1.531,0.0,0.0,0.0,0.0,0.0,0.0,0.0,0.0,0.0,-2.1442,-2.1426,-2.1765,-2.2436,-2.2412,-2.2363,-2.2318,-2.2318,-2.1859,-2.1152,-2.1161,-2.0712,-2.0011,0.0,0.0,0.0,0.0,0.0,0.0,0.0,0.0,0.0,0.0,0.0,0.0,0.0,0.0,0.0,0.0,0.0,0.0,0.0,0.0,0.0,0.0,0.0,0.0,0.0,0.0,0.0,0.0,0.0,0.0,0.0,0.0,0.0,0.0,0.0,0.0,0.0,0.0,0.0,-2.0487,-2.0506,0.0,0.0,0.0,0.0,-2.0602,-2.0605,-2.0579,-2.0495,-2.0494,-2.046,-2.04,-2.0396,-2.0339,-2.0203,-2.0125,-2.0011,-1.9896,-1.9885,-1.9851,-1.9797,-1.9781,-1.9782,-1.9782,-1.9732,-1.9682,-1.9701,-1.9763,-1.9877,-2.0031,-2.0227,-2.0346,-2.0384,-2.0172,-1.9263,-1.7862,0.0,0.0,0.0,0.0,0.0,0.0,0.0,0.0,0.0,0.0,0.0,0.0,0.0,-1.5319,-1.5295,-1.5291,-1.5311,-1.5287,-1.5235,0.0,0.0,0.0,0.0,0.0,0.0,0.0,-2.1044,-2.1297,-2.2357,-2.3,-2.3226,-2.3681,-2.3869,-2.3844,-2.3795,-2.3364,-2.259,-2.2148,-2.1796,-2.1498,-2.1001,-2.0807,0.0,0.0,0.0,0.0,0.0,0.0,0.0,0.0,0.0,0.0,0.0,0.0,0.0,0.0,0.0,0.0,0.0,0.0,0.0,0.0,0.0,0.0,0.0,0.0,0.0,0.0,0.0,0.0,0.0,0.0,0.0,0.0,0.0,0.0,0.0,0.0,0.0,-2.0425,-2.0476,0.0,-2.0506,-2.0511,-2.0545,-2.0549,-2.0541,-2.0527,-2.0508,-2.0501,-2.0484,-2.0477,-2.0428,-2.0374,-2.0341,-2.0265,-2.0175,-2.0096,-2.0097,-2.0069,-1.9983,-1.9962,-1.9918,-1.9858,-1.98,-1.9751,-1.9776,-1.9837,-1.9945,-2.0069,-2.0236,-2.0301,-2.0292,-2.0002,-1.8887,-1.7289,0.0,0.0,0.0,0.0,0.0,0.0,0.0,0.0,0.0,0.0,0.0,-1.5299,-1.5298,-1.5289,-1.5279,-1.527,-1.5265,-1.526,-1.5196,0.0,0.0,0.0,0.0,0.0,0.0,-2.0819,-2.1335,-2.1568,-2.2948,-2.3757,-2.3982,-2.4463,-2.4679,-2.4631,-2.4599,-2.4248,-2.371,-2.3255,-2.2783,-2.2279,-2.1777,-2.1575,-2.1512,0.0,0.0,0.0,0.0,0.0,0.0,0.0,0.0,0.0,0.0,0.0,0.0,0.0,0.0,0.0,0.0,0.0,0.0,0.0,0.0,0.0,0.0,0.0,0.0,0.0,0.0,0.0,0.0,0.0,0.0,0.0,0.0,0.0,0.0,0.0,-2.036,-2.0363,-2.0429,-2.0468,-2.0478,-2.0465,-2.0467,-2.0477,-2.0472,-2.0486,-2.05,-2.0507,-2.0507,-2.0495,-2.0453,-2.0437,-2.0419,-2.0366,-2.0301,-2.0276,-2.0269,-2.0222,-2.0177,-2.0109,-2.0059,-1.9953,-1.9896,-1.9847,-1.9837,-1.9915,-1.9998,-2.0105,-2.025,-2.0305,-2.0246,-1.987,-1.8624,-1.6832,0.0,0.0,0.0,0.0,0.0,0.0,0.0,0.0,0.0,0.0,-1.5306,-1.5303,-1.5303,-1.5241,-1.5196,-1.5204,-1.5204,-1.5193,-1.5189,-1.5165,0.0,0.0,0.0,0.0,-1.9926,-2.0708,-2.1538,-2.2327,-2.313,-2.3926,-2.4701,-2.4701,-2.4615,-2.4495,-2.4495,-2.4459,-2.4389,-2.4389,-2.3563,-2.2271,-2.2318,-2.2327,-2.234,0.0,0.0,0.0,0.0,0.0,0.0,0.0,0.0,0.0,0.0,0.0,0.0,0.0,0.0,0.0,0.0,0.0,0.0,0.0,0.0,0.0,0.0,0.0,0.0,0.0,0.0,0.0,0.0,0.0,0.0,0.0,0.0,0.0,-2.0296,-2.0299,-2.0301,-2.0302,-2.0347,-2.0385,-2.0385,-2.0394,-2.04,-2.0395,-2.0394,-2.0437,-2.0483,-2.0506,-2.0501,-2.0508,-2.0506,-2.0495,-2.0509,-2.0447,-2.039,-2.0398,-2.0398,-2.0376,-2.0302,-2.0295,-2.0222,-2.0093,-2.0041,-1.9979,-1.9911,-1.9982,-2.004,-2.0118,-2.0249,-2.0299,-2.0238,-1.9776,-1.8491,-1.6445,0.0,0.0,0.0,0.0,0.0,0.0,0.0,0.0,0.0,0.0,-1.5302,-1.5279,-1.5236,-1.5204,-1.5201,-1.5209,-1.5165,-1.5121,-1.5127,0.0,0.0,0.0,0.0,0.0,-2.0609,-2.1465,-2.2281,-2.3098,-2.3902,-2.4393,-2.4551,-2.4551,-2.4481,-2.4357,-2.4357,-2.4321,-2.4248,-2.4302,-2.408,-2.3599,-2.3191,-2.306,-2.303,0.0,0.0,0.0,0.0,0.0,0.0,0.0,0.0,0.0,0.0,0.0,0.0,0.0,0.0,0.0,0.0,0.0,0.0,0.0,0.0,0.0,0.0,0.0,0.0,0.0,0.0,0.0,0.0,0.0,0.0,0.0,0.0,-2.0214,-2.0292,-2.0254,-2.0235,-2.0223,-2.0238,-2.0246,-2.0238,-2.0294,-2.0321,-2.0321,-2.0326,-2.036,-2.041,-2.0426,-2.0458,-2.0501,-2.0497,-2.0505,-2.0508,-2.0487,-2.0466,-2.0465,-2.048,-2.0451,-2.0433,-2.0395,-2.0332,-2.0237,-2.0172,-2.0116,-2.0059,-2.0069,-2.0106,-2.0173,-2.0261,-2.0302,-2.0233,-1.9769,-1.8219,-1.6056,0.0,0.0,0.0,0.0,0.0,0.0,0.0,0.0,0.0,0.0,-1.5289,-1.5265,-1.5206,-1.5207,-1.5197,-1.5165,-1.5107,-1.5092,-1.5071,0.0,0.0,0.0,0.0,-2.0138,-2.0849,-2.166,-2.2468,-2.3256,-2.4072,-2.4445,-2.4411,-2.4411,-2.4358,-2.4247,-2.4247,-2.4209,-2.4115,-2.4153,-2.4172,-2.4135,-2.3786,-2.3724,-2.3768,-2.3268,-2.3047,-2.3063,-2.3033,-2.3015,-2.3031,-2.3063,0.0,0.0,0.0,0.0,0.0,0.0,0.0,0.0,0.0,0.0,0.0,0.0,0.0,0.0,0.0,0.0,0.0,0.0,0.0,0.0,0.0,0.0,0.0,0.0,-2.0197,-2.0164,-2.0173,-2.0162,-2.0152,-2.0152,-2.0124,-2.0115,-2.0115,-2.0152,-2.0188,-2.0211,-2.0215,-2.0253,-2.0302,-2.0326,-2.0366,-2.0452,-2.046,-2.0464,-2.0462,-2.0488,-2.0494,-2.0495,-2.0501,-2.0507,-2.0507,-2.0455,-2.0419,0.0,-2.0263,-2.0219,-2.0184,-2.0184,-2.0227,0.0,0.0,0.0,0.0,0.0,-1.8075,-1.6355,0.0,0.0,0.0,0.0,0.0,0.0,0.0,0.0,0.0,0.0,0.0,-1.5274,-1.5201,-1.5182,-1.5165,-1.5114,-1.5094,-1.514,0.0,0.0,0.0,-1.8577,-1.9307,-2.0094,-2.0919,-2.1578,-2.2325,-2.3233,-2.3952,-2.4303,-2.4303,-2.4303,-2.4247,-2.417,-2.417,-2.4094,-2.3976,-2.3976,-2.4016,-2.4074,-2.4074,-2.419,-2.4376,-2.4358,-2.4339,-2.4358,-2.4266,-2.4247,-2.4266,-2.4321,0.0,0.0,0.0,0.0,0.0,0.0,0.0,0.0,0.0,0.0,0.0,0.0,0.0,0.0,0.0,0.0,0.0,0.0,0.0,0.0,0.0,0.0,0.0,0.0,-2.0327,-2.0181,-2.011,-2.0066,-2.0039,-2.0059,-2.0009,-1.9958,-1.9971,-2.0034,-2.012,-2.0202,-2.0203,-2.0232,-2.0312,0.0,0.0,0.0,0.0,-2.0381,-2.0398,-2.0445,-2.0476,-2.0487,-2.0494,-2.0492,-2.0492,-2.0507,-2.0462,-2.0405,-2.0346,-2.0311,-2.0308,-2.0314,-2.039,-2.0542,-2.0444,-2.0409,-2.027,-1.9263,-1.8278,-1.7335,0.0,0.0,0.0,0.0,0.0,0.0,0.0,0.0,0.0,-1.5295,-1.5299,-1.5274,-1.5201,-1.5157,-1.5114,-1.5095,-1.5047,-1.5546,0.0,0.0,-1.794,-1.9327,-1.9536,-2.027,-2.1657,-2.1826,-2.2621,-2.4063,-2.4211,-2.4266,-2.4228,-2.4228,-2.4152,-2.4054,-2.3976,-2.3917,-2.3837,-2.3837,-2.3852,-2.385,-2.3855,-2.4016,-2.4228,-2.4133,-2.4075,-2.4056,-2.3937,-2.3919,-2.3978,-2.4056,-2.4115,-2.4192,-2.4321,0.0,0.0,0.0,0.0,0.0,0.0,0.0,0.0,0.0,0.0,0.0,0.0,0.0,0.0,0.0,0.0,0.0,0.0,0.0,0.0,-2.2076,-2.1415,-2.0864,-2.0753,-2.0087,-1.9675,-1.9837,-1.9763,-1.9707,-1.9757,-2.0294,-2.0695,-2.0816,-2.0816,-2.0876,-2.0994,-2.0384,-2.0105,-2.0238,-2.0231,-2.0262,-2.032,-2.0326,-2.0371,-2.0421,0.0,0.0,-2.0506,-2.0504,-2.0487,-2.0479,-2.0475,-2.0429,-2.0383,-2.0379,-2.0806,-2.1381,-2.0666,-2.0614,-2.087,-2.022,-1.9899,-1.9636,0.0,0.0,0.0,0.0,0.0,0.0,0.0,0.0,0.0,0.0,-1.5293,-1.5265,-1.5206,-1.5132,-1.5095,-1.5095,-1.5045,0.0,0.0,-1.7288,-1.798,-1.9577,-1.9602,-2.0289,-2.1865,-2.1869,-2.2627,-2.4247,-2.4209,-2.419,-2.4151,-2.4132,-2.4016,-2.3896,-2.3858,-2.3792,-2.3703,-2.3703,-2.3678,-2.3634,-2.3638,-2.3725,-2.385,-2.3891,-2.3891,-2.3831,-2.3725,-2.3703,-2.3725,-2.381,-2.3876,-2.3921,-2.4096,-2.4229,-2.432,0.0,0.0,0.0,0.0,0.0,0.0,0.0,0.0,0.0,0.0,0.0,0.0,0.0,0.0,-2.3676,0.0,0.0,-2.2633,-2.2422,-2.1915,-2.1475,-2.1279,-2.0754,-2.0205,-1.9662,-1.9476,-1.9586,-2.0045,-2.04,-2.0822,-2.1294,-2.1373,-2.1465,-2.1582,-2.1255,-2.1107,-2.1257,-2.132,-2.1186,-2.0853,-2.0877,-2.0716,-2.0346,-2.0347,-2.0388,-2.0454,-2.0471,-2.0508,-2.0507,-2.0507,-2.0481,-2.0477,-2.0878,-2.1296,-2.1644,-2.1574,-2.1648,-2.1727,-2.1274,-2.0934,-2.0609,0.0,0.0,0.0,0.0,0.0,0.0,0.0,0.0,0.0,0.0,0.0,-1.5275,-1.5206,-1.5132,-1.5089,0.0,0.0,0.0,0.0,-1.7427,-1.8117,-1.9617,-1.9569,-2.0166,-2.1611,-2.1745,-2.2519,-2.3969,-2.4058,-2.4094,-2.4074,-2.3996,-2.3896,-2.3813,-2.3771,-2.3682,-2.3585,-2.3562,-2.3517,-2.3471,-2.3471,-2.3471,-2.3494,-2.3634,-2.3678,-2.3634,-2.3562,-2.3517,-2.3494,-2.3589,-2.3642,-2.3667,-2.3894,-2.3978,-2.4058,-2.421,-2.4357,0.0,0.0,0.0,0.0,0.0,0.0,0.0,0.0,0.0,-2.5616,-2.5681,-2.5089,-2.451,-2.4439,-2.3666,-2.2977,-2.2752,-2.2398,-2.2052,-2.1789,-2.1439,-2.0823,-1.9782,-1.9585,-1.9825,-2.0531,-2.0679,-2.1061,-2.1771,-2.1898,-2.1985,-2.2136,-2.2049,-2.2058,-2.2214,-2.2351,-2.2144,-2.1585,-2.1503,-2.1137,-2.0504,-2.0371,-2.0341,-2.0394,-2.0452,-2.0497,-2.0504,-2.05,-2.058,-2.0772,-2.1419,-2.1833,-2.2132,-2.2709,-2.2949,-2.2928,-2.2351,-2.1878,-2.1408,0.0,0.0,0.0,0.0,0.0,0.0,0.0,0.0,0.0,0.0,0.0,0.0,0.0,0.0,0.0,0.0,0.0,0.0,-1.7267,-1.7982,-1.8734,-1.9574,-1.955,-1.9885,-2.0731,-2.143,-2.2224,-2.3144,-2.3784,-2.4074,-2.4016,-2.3876,-2.3813,-2.3786,-2.3611,-2.3539,-2.3517,-2.3383,-2.3336,-2.3313,-2.3313,-2.3313,-2.3313,-2.3336,-2.3383,-2.343,-2.336,-2.3336,-2.3336,-2.3407,-2.343,-2.3476,-2.3678,-2.3728,-2.3777,-2.3978,0.0,-2.4248,-2.4393,-2.4613,-2.4837,-2.5044,-2.5209,-2.5331,0.0,0.0,-2.5612,-2.5683,-2.5523,-2.5323,-2.5205,-2.4884,-2.4566,-2.4295,-2.3325,-2.2555,-2.2339,-2.1476,-2.0762,-2.0565,-2.0714,-2.0853,-2.0927,-2.1565,-2.2093,-2.2314,-2.2314,-2.2415,-2.2611,-2.2008,-2.1743,-2.194,-2.2077,-2.2149,-2.2199,-2.1555,-2.1261,-2.1273,-2.0611,-2.0346,-2.0396,-2.0405,-2.0449,-2.0503,-2.0492,-2.0906,-2.1569,-2.1595,-2.2482,-2.3824,-2.3784,-2.4159,-2.4588,-2.3465,-2.3162,-2.3203,0.0,0.0,0.0,0.0,0.0,0.0,0.0,0.0,0.0,0.0,0.0,0.0,0.0,0.0,0.0,0.0,0.0,0.0,-1.7358,-1.8102,-1.8858,-1.9681,-1.9606,-1.9926,-2.0711,-2.1426,-2.2186,-2.3015,-2.3691,-2.4016,-2.3996,-2.3852,-2.3786,-2.3721,-2.3585,-2.3471,-2.336,-2.3241,-2.3168,-2.3119,-2.3077,-2.307,-2.307,-2.307,-2.3077,-2.3119,-2.3168,-2.3168,0.0,0.0,-2.3168,-2.3217,-2.3407,-2.3481,-2.3553,-2.3753,-2.3958,0.0,-2.4393,-2.4965,0.0,0.0,-2.6304,-2.6718,-2.6333,-2.6314,-2.6214,-2.574,-2.5574,-2.5434,-2.5226,-2.4967,-2.4659,0.0,-2.3671,-2.3127,-2.2856,-2.2329,-2.1895,-2.1746,-2.1771,-2.1722,-2.1423,-2.1709,-2.2125,-2.2717,-2.2799,-2.2896,-2.3099,-2.2842,-2.2823,-2.3107,-2.325,-2.3177,-2.2876,-2.2695,-2.2147,-2.1289,-2.1061,-2.0731,-2.0347,-2.0383,-2.0425,-2.0476,-2.0973,-2.1371,-2.1707,-2.262,-2.3377,-2.4024,-2.4446,-2.4764,-2.4923,-2.426,-2.3969,-2.3785,0.0,0.0,0.0,0.0,0.0,0.0,0.0,0.0,0.0,0.0,0.0,0.0,0.0,0.0,0.0,0.0,0.0,0.0,0.0,-1.8488,-1.9167,-1.9794,-1.9686,-1.9885,-2.0451,-2.1345,-2.2092,-2.2665,-2.3563,-2.3996,-2.3996,-2.385,-2.3739,-2.3674,-2.3499,-2.336,-2.3241,-2.3119,-2.3028,-2.297,-2.2919,-2.2893,-2.2893,-2.2893,-2.2893,-2.2902,-2.302,-2.3003,0.0,0.0,-2.297,-2.3003,-2.3193,-2.3289,-2.3342,-2.3598,-2.3855,-2.4169,-2.4705,0.0,0.0,-2.6581,-2.73,-2.7776,-2.727,-2.7027,-2.6716,-2.6056,-2.5659,-2.5368,-2.5086,-2.4799,-2.447,-2.4098,-2.3714,-2.3359,-2.3077,-2.2816,-2.2605,-2.246,-2.2332,-2.215,-2.1833,-2.1832,-2.2142,-2.279,-2.2893,-2.3028,-2.323,-2.3312,-2.354,-2.3834,-2.4018,-2.3916,-2.3516,-2.3521,-2.2833,-2.1502,-2.1425,-2.1001,-2.028,-2.036,-2.0526,-2.077,-2.1397,-2.1893,-2.2345,-2.3505,-2.407,-2.4282,-2.486,-2.507,-2.4993,-2.4794,-2.4491,-2.4118,0.0,0.0,0.0,0.0,0.0,0.0,0.0,0.0,0.0,0.0,0.0,0.0,0.0,0.0,0.0,0.0,0.0,0.0,0.0,-1.9452,-1.9862,-1.9896,-1.9782,-1.9694,-1.9652,-2.1112,-2.1865,-2.1835,-2.3289,-2.3996,-2.3996,-2.3807,-2.3674,-2.3585,-2.3383,-2.3241,-2.3095,-2.3045,-2.2952,-2.2902,-2.2893,-2.2893,-2.2893,-2.2893,-2.2893,-2.2893,-2.2902,0.0,0.0,0.0,-2.2902,-2.2944,-2.3052,-2.3119,0.0,-2.3517,-2.3871,0.0,0.0,0.0,-2.6351,-2.7396,-2.7787,-2.7927,-2.8038,-2.7464,-2.6873,-2.6778,-2.599,-2.5226,-2.4962,-2.4579,-2.4229,-2.3939,-2.3463,-2.307,-2.2944,-2.2552,-2.231,-2.231,-2.2147,-2.201,0.0,-2.2186,-2.2304,-2.2405,-2.2487,-2.2623,-2.2816,-2.302,-2.3247,-2.3504,-2.371,-2.3901,-2.4061,-2.3574,-2.2959,-2.2254,-2.1676,-2.0976,-2.0215,-2.0334,-2.0823,-2.1579,-2.1598,-2.2494,-2.3927,-2.3915,-2.4358,-2.5063,-2.5095,-2.5095,-2.5101,-2.5006,-2.4741,-2.4334,0.0,0.0,0.0,0.0,0.0,0.0,0.0,0.0,0.0,0.0,0.0,0.0,0.0,0.0,0.0,0.0,0.0,0.0,0.0,-1.9563,-1.9969,-1.9974,-1.9877,-1.9794,-1.9738,-2.0676,-2.1405,-2.1881,-2.2813,-2.3524,-2.3996,-2.3789,-2.3656,-2.3585,-2.3383,-2.3217,-2.3077,-2.2995,-2.2876,-2.2842,-2.279,-2.2738,-2.2712,-2.2712,-2.2659,-2.2632,0.0,0.0,0.0,0.0,0.0,0.0,-2.2868,0.0,0.0,-2.366,0.0,0.0,0.0,0.0,-2.7298,-2.8365,-2.9148,-2.957,-2.9133,-2.8788,-2.8215,-2.7001,-2.6356,-2.5773,-2.4977,-2.4505,-2.4117,-2.3837,-2.344,-2.3052,-2.2816,-2.2579,-2.2377,-2.2254,-2.218,0.0,0.0,0.0,0.0,-2.213,-2.2276,-2.2432,-2.2579,-2.2764,-2.2977,-2.3295,-2.3458,-2.3642,-2.3899,-2.3953,-2.3366,-2.2158,-2.1051,-2.043,-2.0219,-2.0855,-2.1251,-2.1528,-2.268,-2.3457,-2.3908,-2.4476,-2.4872,-2.5095,-2.5101,-2.5125,-2.5168,-2.5145,-2.5084,-2.4936,0.0,0.0,0.0,0.0,0.0,0.0,0.0,0.0,0.0,0.0,0.0,0.0,0.0,0.0,0.0,0.0,0.0,0.0,0.0,0.0,-2.0069,-2.0078,-1.9966,-1.9908,-1.9844,-2.0484,-2.1042,-2.147,-2.2428,-2.3123,-2.3576,-2.3663,-2.3656,-2.3585,-2.3383,-2.3217,-2.307,-2.2944,-2.2842,-2.2712,-2.2685,-2.2605,-2.2552,-2.2552,-2.2542,0.0,0.0,0.0,0.0,0.0,0.0,0.0,0.0,0.0,0.0,0.0,0.0,0.0,0.0,-2.6982,-2.7891,-2.9284,-3.0137,-3.0502,-3.0046,-2.9408,-2.8582,-2.7341,-2.6468,-2.5641,-2.484,-2.4372,-2.4039,-2.371,-2.3371,-2.3052,-2.279,-2.2605,-2.2432,-2.2271,-2.2225,-2.2152,0.0,0.0,0.0,-2.1998,-2.2163,-2.2338,-2.246,-2.2605,-2.2842,-2.3119,-2.3313,-2.3504,-2.3771,-2.4075,-2.3543,-2.2158,-2.1036,-2.0547,-2.0649,-2.1214,-2.1751,-2.2325,-2.3435,-2.4072,-2.4307,-2.4866,-2.5095,-2.5101,-2.5125,-2.5198,-2.5264,-2.5274,-2.5318,-2.5307,0.0,0.0,0.0,0.0,0.0,0.0,0.0,0.0,0.0,0.0,0.0,0.0,0.0,0.0,0.0,0.0,0.0,0.0,0.0,0.0,0.0,-2.0201,-2.0088,-1.9985,-1.9896,-2.0519,-2.0811,-2.0711,-2.2097,-2.2757,-2.2755,-2.3353,-2.3602,-2.3531,-2.3365,-2.3193,-2.2995,-2.2944,-2.279,-2.2605,-2.2605,-2.2569,-2.2487,-2.2487,0.0,0.0,0.0,0.0,0.0,0.0,0.0,0.0,0.0,0.0,0.0,0.0,0.0,-2.4939,-2.6897,-2.756,-2.8173,-3.0114,-3.0642,-3.0701,-3.0702,-2.9377,-2.8087,-2.7845,-2.6339,-2.494,0.0,0.0,-2.3901,-2.366,-2.3319,-2.3045,-2.2842,-2.2632,-2.246,0.0,0.0,0.0,0.0,0.0,0.0,-2.2027,0.0,-2.2271,-2.2405,-2.2579,-2.279,-2.2995,-2.3265,-2.3476,-2.37,-2.3937,-2.3471,-2.2348,-2.1606,-2.1331,-2.1453,-2.1502,-2.2359,-2.3805,-2.3843,-2.4345,-2.5101,-2.5101,-2.5113,-2.5126,-2.5182,-2.5293,-2.5398,-2.5408,-2.5459,-2.5471,0.0,0.0,0.0,0.0,0.0,0.0,0.0,0.0,0.0,0.0,0.0,0.0,0.0,0.0,0.0,0.0,0.0,0.0,0.0,0.0,0.0,0.0,0.0,0.0,0.0,0.0,0.0,0.0,0.0,-2.1421,-2.1917,-2.2564,-2.2821,-2.2726,-2.3163,-2.3241,-2.2995,-2.2944,-2.279,-2.2605,0.0,-2.2515,-2.2366,0.0,0.0,0.0,0.0,0.0,0.0,0.0,0.0,0.0,0.0,0.0,-2.3899,0.0,0.0,-2.5153,-2.7163,-2.7808,-2.8361,-3.02,-3.0693,-3.0702,-3.0699,-2.978,-2.8694,-2.7892,-2.6663,-2.5461,0.0,0.0,0.0,-2.3721,-2.343,0.0,-2.2995,-2.279,0.0,-2.2525,0.0,-2.2415,-2.2388,-2.2388,0.0,0.0,-2.2349,-2.2349,-2.2542,-2.2632,-2.2816,-2.307,-2.3193,-2.336,-2.3629,-2.3432,-2.3314,-2.3192,-2.2457,-2.2147,-2.2247,-2.2886,-2.3408,-2.384,-2.4492,-2.4892,-2.5101,-2.5149,-2.5198,-2.5264,-2.5318,-2.5401,-2.5477,-2.5531,-2.5587,-2.5625,0.0,0.0,0.0,0.0,0.0,0.0,0.0,0.0,0.0,0.0,0.0,0.0,0.0,0.0,0.0,0.0,0.0,0.0,0.0,0.0,0.0,0.0,0.0,0.0,0.0,0.0,0.0,0.0,0.0,0.0,0.0,-2.1769,-2.2032,-2.1926,-2.2246,-2.244,-2.2551,-2.2471,0.0,0.0,0.0,0.0,0.0,0.0,0.0,0.0,0.0,0.0,0.0,0.0,0.0,-2.3077,-2.3417,-2.3756,-2.4099,-2.4474,0.0,-2.5332,-2.6892,-2.7423,-2.7848,-2.9252,-2.9608,-2.9602,-2.9581,-2.8793,-2.7875,-2.7213,-2.6214,0.0,0.0,0.0,0.0,0.0,0.0,0.0,-2.3168,-2.2977,-2.2842,0.0,-2.2659,0.0,-2.2579,-2.2579,-2.2632,0.0,-2.2542,-2.2515,-2.2712,-2.279,-2.2944,-2.3193,-2.3295,-2.3504,-2.3825,-2.3712,-2.3591,-2.3454,-2.311,-2.2975,-2.3087,-2.3586,-2.4017,-2.4397,0.0,-2.5137,-2.5195,-2.5233,-2.5293,-2.5395,-2.5428,-2.5483,-2.5556,-2.5597,-2.5625,-2.5643,0.0,0.0,0.0,0.0,0.0,0.0,0.0,0.0,0.0,0.0,0.0,0.0,0.0,0.0,0.0,0.0,0.0,0.0,0.0,0.0,0.0,0.0,0.0,0.0,0.0,0.0,0.0,0.0,0.0,0.0,0.0,0.0,0.0,0.0,0.0,0.0,0.0,0.0,0.0,0.0,0.0,0.0,0.0,0.0,0.0,0.0,0.0,0.0,0.0,0.0,-2.3199,-2.3319,-2.3628,-2.3984,-2.4316,-2.4708,-2.5012,-2.5447,-2.6459,-2.6821,-2.7128,-2.7987,-2.8196,-2.8181,-2.8093,-2.7307,-2.6524,-2.6327,0.0,-2.4578,-2.4266,-2.4114,-2.3935,-2.3725,0.0,-2.3476,-2.336,-2.3217,-2.3077,-2.297,-2.2893,-2.2816,-2.2764,-2.2764,-2.2816,-2.2927,-2.2816,-2.279,-2.2927,-2.302,-2.3151,-2.3342,-2.3549,-2.381,-2.4133,-2.434,-2.4145,-2.3592,-2.3714,-2.384,-2.3973,-2.3991,-2.4395,-2.5118,-2.5126,0.0,-2.5322,-2.5327,-2.5395,-2.5493,-2.5503,-2.5537,-2.5586,-2.5595,-2.5581,-2.557,0.0,0.0,0.0,0.0,0.0,0.0,0.0,0.0,0.0,0.0,-2.0586,-2.0583,0.0,0.0,0.0,0.0,0.0,0.0,0.0,0.0,0.0,0.0,0.0,0.0,0.0,0.0,0.0,0.0,0.0,0.0,0.0,0.0,0.0,0.0,0.0,0.0,0.0,0.0,0.0,0.0,0.0,0.0,0.0,0.0,0.0,0.0,0.0,0.0,0.0,0.0,-2.3422,-2.35,-2.3842,-2.4211,-2.4586,-2.4885,-2.5156,-2.5588,-2.6596,-2.6922,-2.718,-2.8004,-2.8196,-2.8164,-2.8054,-2.7247,0.0,0.0,0.0,-2.4547,-2.4321,-2.4134,0.0,-2.3813,0.0,0.0,0.0,0.0,-2.3265,0.0,0.0,0.0,0.0,0.0,0.0,0.0,0.0,-2.3241,-2.3241,-2.3289,-2.3458,-2.371,-2.3915,-2.4075,-2.4247,-2.4462,-2.4554,-2.4557,-2.4685,-2.4803,-2.4881,-2.4924,-2.5045,-2.5184,-2.5245,0.0,-2.5391,-2.5438,-2.5488,-2.5512,-2.5566,-2.5551,-2.5522,-2.5517,-2.5512,-2.5415,0.0,0.0,0.0,0.0,0.0,0.0,0.0,-2.054,-2.054,-2.0558,-2.0551,-2.0541,-2.0546,-2.0527,-2.0508,0.0,0.0,0.0,0.0,0.0,0.0,0.0,0.0,0.0,0.0,0.0,0.0,0.0,0.0,0.0,0.0,0.0,0.0,0.0,0.0,0.0,0.0,0.0,0.0,0.0,0.0,0.0,0.0,0.0,0.0,0.0,0.0,0.0,0.0,0.0,-2.3819,-2.3946,-2.4118,-2.4403,-2.4752,-2.503,-2.5265,-2.5556,-2.6077,-2.6278,-2.6424,-2.6809,-2.6877,-2.6822,-2.6713,0.0,0.0,0.0,-2.5058,-2.4528,-2.4339,0.0,0.0,0.0,0.0,0.0,0.0,0.0,0.0,0.0,0.0,0.0,0.0,0.0,0.0,0.0,0.0,-2.3531,-2.3522,-2.366,-2.3852,-2.4057,-2.4192,-2.4338,-2.4513,-2.4642,-2.4779,-2.4921,-2.505,-2.5138,-2.5205,-2.5274,-2.5311,-2.5352,-2.5394,0.0,-2.5546,-2.603,-2.621,-2.6177,-2.6174,-2.6135,-2.6016,-2.5565,-2.5395,-2.5275,0.0,0.0,0.0,0.0,0.0,0.0,0.0,-2.0497,-2.0494,-2.049,-2.051,-2.05,-2.0508,-2.0494,-2.0518,0.0,0.0,0.0,0.0,0.0,0.0,0.0,0.0,0.0,0.0,0.0,0.0,0.0,0.0,0.0,0.0,0.0,0.0,0.0,0.0,0.0,0.0,0.0,0.0,0.0,0.0,0.0,0.0,0.0,0.0,0.0,0.0,0.0,0.0,0.0,-2.4211,-2.4371,-2.4405,-2.4613,-2.4891,-2.5149,-2.535,-2.5511,-2.558,-2.5659,-2.5702,-2.5696,-2.5645,-2.5571,-2.5518,-2.5348,0.0,0.0,-2.4808,-2.4561,-2.4357,0.0,0.0,0.0,0.0,0.0,0.0,0.0,0.0,0.0,0.0,0.0,0.0,0.0,0.0,0.0,0.0,0.0,-2.3831,-2.4036,-2.4229,-2.4375,-2.4459,-2.4575,-2.4768,-2.4832,-2.4923,-2.5037,-2.5182,-2.5284,-2.5346,-2.541,-2.5473,-2.5521,-2.5526,0.0,0.0,-2.6521,-2.6838,-2.6751,-2.6682,-2.6616,-2.6439,-2.5571,-2.5234,-2.513,0.0,0.0,0.0,0.0,0.0,0.0,0.0,-2.0504,-2.0495,-2.0495,-2.0506,-2.0506,-2.0491,-2.049,-2.0492,0.0,0.0,0.0,0.0,0.0,0.0,0.0,0.0,0.0,0.0,0.0,0.0,0.0,0.0,0.0,0.0,0.0,0.0,0.0,0.0,0.0,0.0,0.0,0.0,0.0,0.0,0.0,0.0,0.0,0.0,0.0,0.0,0.0,0.0,0.0,0.0,-2.4588,-2.4731,-2.4855,-2.5031,-2.5233,0.0,0.0,-2.558,-2.5654,-2.5699,-2.5698,-2.5651,-2.5585,-2.5511,0.0,0.0,-2.5031,-2.4837,-2.4629,-2.4429,-2.4284,0.0,0.0,0.0,0.0,0.0,0.0,0.0,0.0,0.0,0.0,0.0,0.0,0.0,0.0,0.0,0.0,-2.4247,-2.4338,-2.4459,-2.466,-2.4716,-2.4818,-2.4966,-2.5037,-2.5111,-2.5175,-2.532,-2.543,-2.5486,-2.5551,-2.5578,-2.5595,-2.5598,0.0,0.0,-2.6478,-2.6722,-2.6605,-2.6535,-2.6469,-2.6307,-2.538,-2.5063,-2.5003,0.0,0.0,0.0,0.0,0.0,0.0,-2.0506,-2.0502,-2.0488,-2.0448,-2.0438,-2.0413,-2.0377,-2.038,-2.0415,-2.0492,0.0,0.0,0.0,0.0,0.0,0.0,0.0,0.0,0.0,0.0,0.0,0.0,0.0,0.0,0.0,0.0,0.0,0.0,0.0,0.0,0.0,0.0,0.0,0.0,0.0,0.0,0.0,0.0,0.0,0.0,0.0,0.0,0.0,0.0,0.0,0.0,-2.4934,-2.5031,0.0,0.0,-2.5385,-2.5518,-2.5581,-2.5658,-2.5691,-2.5703,-2.5672,-2.5632,-2.5526,0.0,-2.5255,-2.5084,-2.4902,-2.4723,-2.4549,-2.4393,-2.4284,0.0,0.0,0.0,0.0,0.0,0.0,0.0,0.0,0.0,0.0,0.0,0.0,0.0,0.0,0.0,-2.467,-2.4636,-2.4712,-2.4874,-2.4949,-2.5049,-2.5168,-2.5254,-2.5311,-2.5371,-2.5479,-2.5526,-2.5554,-2.5595,-2.5598,-2.5605,-2.5595,0.0,0.0,-2.6895,-2.7325,-2.7198,-2.709,-2.6977,-2.67,-2.528,-2.4775,-2.4676,0.0,0.0,0.0,0.0,0.0,-2.0491,-2.0468,-2.0473,-2.0452,-2.0379,-2.0366,-2.0347,-2.0282,-2.0275,-2.0302,-2.0402,-2.0424,0.0,0.0,0.0,0.0,0.0,0.0,0.0,0.0,0.0,0.0,0.0,0.0,0.0,0.0,0.0,0.0,0.0,0.0,0.0,0.0,0.0,0.0,0.0,0.0,0.0,0.0,0.0,0.0,0.0,0.0,0.0,0.0,0.0,0.0,0.0,0.0,0.0,0.0,0.0,-2.5404,-2.5517,-2.5585,-2.5621,-2.5681,-2.5699,-2.57,-2.5673,0.0,0.0,-2.5292,-2.5152,-2.4968,-2.4779,-2.4629,-2.4481,-2.4358,0.0,0.0,-2.4016,0.0,0.0,0.0,0.0,0.0,0.0,0.0,0.0,0.0,0.0,0.0,0.0,-2.4994,-2.4975,-2.5019,-2.5087,-2.5152,-2.5235,-2.5359,-2.5434,-2.5473,-2.5529,-2.5609,-2.5626,-2.5592,-2.5605,-2.5599,-2.5598,-2.5554,0.0,0.0,-2.6834,-2.7278,-2.7124,-2.6976,-2.6855,-2.6572,-2.5066,-2.4493,-2.4383,0.0,0.0,0.0,0.0,0.0,0.0,-2.042,-2.0396,-2.0379,-2.0308,-2.0294,-2.0269,-2.0219,-2.0192,-2.0203,-2.0197,-2.0253,0.0,0.0,0.0,0.0,0.0,0.0,0.0,0.0,0.0,-2.324,-2.3991,-2.4643,0.0,0.0,0.0,0.0,0.0,0.0,0.0,0.0,0.0,0.0,0.0,0.0,0.0,0.0,0.0,0.0,0.0,0.0,0.0,0.0,0.0,0.0,0.0,0.0,0.0,0.0,0.0,-2.5459,-2.5517,-2.5582,-2.56,-2.5626,-2.5676,-2.5702,-2.5681,0.0,0.0,-2.5354,-2.5224,-2.5043,-2.4832,-2.4629,-2.4481,-2.4358,-2.421,0.0,0.0,0.0,0.0,0.0,0.0,0.0,0.0,0.0,0.0,0.0,0.0,0.0,0.0,0.0,-2.5313,-2.5351,-2.5292,-2.537,-2.5429,-2.5492,-2.556,-2.5604,-2.5593,-2.5672,-2.5663,-2.5604,-2.5607,-2.5593,0.0,0.0,0.0,0.0,-2.6044,-2.6189,-2.6001,-2.586,-2.5777,-2.5596,-2.4635,-2.4266,-2.4173,0.0,0.0,0.0,0.0,0.0,0.0,0.0,-2.0398,-2.0386,-2.0311,-2.0262,-2.0203,-2.0143,-2.0088,-2.006,-2.0069,-2.0161,0.0,0.0,0.0,0.0,0.0,0.0,0.0,0.0,0.0,-2.3644,-2.5038,-2.5153,-2.5102,-2.4904,0.0,0.0,0.0,0.0,0.0,0.0,0.0,0.0,0.0,0.0,0.0,0.0,0.0,0.0,0.0,0.0,0.0,0.0,0.0,0.0,0.0,0.0,0.0,0.0,0.0,0.0,0.0,-2.5587,-2.5619,-2.5662,-2.5687,-2.5703,-2.5673,-2.5619,0.0,-2.5437,-2.5293,-2.5111,-2.4926,-2.4757,-2.4564,-2.4374,-2.4284,-2.4172,0.0,0.0,0.0,0.0,0.0,0.0,0.0,0.0,0.0,0.0,0.0,0.0,0.0,0.0,-2.5418,-2.5449,-2.5453,-2.5499,-2.5554,-2.5566,-2.5632,-2.5679,-2.5672,-2.5683,-2.566,-2.5605,-2.5601,-2.554,0.0,0.0,0.0,0.0,-2.5759,-2.5938,-2.5774,-2.5597,-2.5427,-2.5177,-2.429,-2.386,-2.3696,0.0,0.0,0.0,0.0,0.0,0.0,0.0,-2.0373,-2.0332,-2.0273,-2.0195,-2.0143,-2.0079,-2.0039,-1.9998,-1.9955,-2.0039,0.0,0.0,0.0,0.0,0.0,0.0,0.0,0.0,-2.3023,-2.3858,-2.5543,-2.5402,-2.5254,-2.5077,-2.491,-2.476,0.0,0.0,0.0,0.0,0.0,0.0,0.0,0.0,0.0,-2.567,0.0,0.0,0.0,0.0,0.0,0.0,0.0,0.0,0.0,0.0,0.0,0.0,0.0,0.0,0.0,0.0,-2.5652,-2.5707,-2.5709,-2.5703,0.0,0.0,0.0,-2.5456,-2.5331,-2.5149,-2.4987,-2.4832,-2.461,-2.4461,-2.4393,-2.4266,0.0,0.0,0.0,0.0,0.0,0.0,0.0,0.0,0.0,0.0,0.0,0.0,0.0,0.0,-2.5512,-2.554,-2.5561,-2.5585,-2.5609,-2.5632,-2.5675,-2.5702,-2.5703,-2.5673,-2.5632,-2.5598,-2.5554,-2.5452,0.0,0.0,0.0,0.0,-2.518,-2.5204,-2.5042,-2.4829,-2.4644,-2.4418,-2.3844,-2.3491,-2.3265,0.0,0.0,0.0,0.0,0.0,0.0,0.0,-2.0339,-2.0289,-2.0211,-2.0143,-2.006,-2.0009,-2.0004,-1.996,-1.9915,0.0,0.0,0.0,0.0,0.0,0.0,0.0,0.0,-2.2955,-2.3062,-2.3926,-2.5603,-2.5473,-2.5356,-2.5215,-2.5072,-2.4942,-2.4808,-2.4817,-2.4776,-2.4754,-2.5525,-2.5901,-2.607,-2.6746,-2.6611,0.0,0.0,0.0,0.0,0.0,0.0,0.0,0.0,0.0,0.0,0.0,0.0,0.0,0.0,0.0,0.0,0.0,0.0,0.0,0.0,0.0,0.0,0.0,0.0,0.0,0.0,-2.5194,-2.5056,-2.4851,-2.4707,-2.4582,-2.4517,0.0,0.0,0.0,0.0,0.0,0.0,0.0,0.0,0.0,0.0,0.0,0.0,0.0,0.0,0.0,-2.56,-2.5642,-2.5709,-2.5642,-2.5648,-2.5701,-2.5702,-2.5693,-2.5696,-2.5621,-2.56,-2.5589,-2.5456,-2.532,0.0,0.0,0.0,0.0,-2.4389,-2.4155,-2.3937,-2.3753,-2.358,-2.3458,-2.3313,-2.3144,-2.2902,0.0,0.0,0.0,0.0,0.0,0.0,0.0,0.0,0.0,0.0,-2.0136,-2.0078,-2.0009,-1.9952,-1.9926,0.0,0.0,0.0,0.0,0.0,0.0,0.0,0.0,0.0,-2.289,-2.2997,-2.3882,-2.5677,-2.559,-2.5486,-2.5348,-2.5215,-2.5115,-2.5032,-2.4974,-2.5281,-2.583,-2.5974,-2.6774,-2.7907,-2.7484,-2.7195,0.0,0.0,0.0,0.0,-2.5228,-2.5302,0.0,0.0,0.0,0.0,0.0,0.0,0.0,0.0,-2.5675,0.0,0.0,0.0,0.0,0.0,0.0,0.0,0.0,0.0,0.0,0.0,0.0,0.0,0.0,0.0,0.0,0.0,0.0,0.0,0.0,0.0,0.0,0.0,0.0,0.0,0.0,0.0,0.0,0.0,0.0,0.0,0.0,-2.5658,-2.5689,-2.5702,-2.5683,-2.5681,-2.5699,-2.5644,-2.5619,-2.5628,-2.5565,-2.5512,-2.5434,-2.5359,-2.5224,0.0,0.0,0.0,-2.4371,-2.4173,-2.3919,-2.3671,-2.3417,-2.3247,-2.3102,-2.2919,-2.2721,-2.2463,0.0,0.0,0.0,0.0,0.0,0.0,0.0,0.0,0.0,0.0,0.0,-2.0039,-2.0007,-1.9941,0.0,0.0,0.0,0.0,0.0,0.0,0.0,0.0,0.0,-2.1043,-2.2862,-2.2976,-2.3892,-2.5703,-2.5632,-2.5556,-2.5437,-2.5348,-2.5264,-2.5195,-2.5111,-2.5539,-2.6319,-2.6673,-2.7571,-2.8677,-2.7852,0.0,0.0,0.0,0.0,0.0,-2.5341,-2.5397,0.0,-2.5492,-2.5529,-2.5544,0.0,0.0,0.0,0.0,-2.5694,-2.5693,-2.5705,-2.5709,-2.5694,0.0,0.0,0.0,0.0,0.0,0.0,0.0,0.0,0.0,0.0,0.0,0.0,0.0,0.0,0.0,0.0,0.0,0.0,0.0,0.0,0.0,0.0,0.0,0.0,0.0,0.0,0.0,0.0,-2.5685,-2.5702,-2.57,-2.5664,-2.5651,-2.5654,-2.5621,-2.5581,-2.5549,-2.5492,-2.5426,-2.535,-2.5243,-2.5099,0.0,0.0,0.0,-2.4136,-2.3881,-2.3606,-2.3353,-2.3126,-2.2919,-2.2721,-2.2517,-2.2298,-2.2073,0.0,0.0,0.0,0.0,0.0,0.0,0.0,0.0,0.0,0.0,0.0,0.0,0.0,0.0,0.0,0.0,0.0,0.0,0.0,0.0,0.0,0.0,0.0,-2.1051,-2.2888,-2.2987,-2.3905,-2.5702,-2.5646,-2.5589,-2.5505,-2.5456,-2.5376,-2.5312,-2.5261,-2.5746,-2.6668,-2.7414,-2.8275,-2.9059,-2.8103,0.0,0.0,0.0,0.0,0.0,0.0,0.0,0.0,-2.5529,-2.5544,-2.5607,-2.5607,0.0,0.0,0.0,0.0,0.0,-2.5709,-2.5693,-2.5699,-2.5703,0.0,0.0,0.0,0.0,0.0,0.0,0.0,0.0,0.0,0.0,0.0,0.0,0.0,0.0,0.0,0.0,0.0,0.0,0.0,0.0,0.0,0.0,0.0,0.0,0.0,0.0,0.0,-2.5699,-2.5702,-2.5705,-2.5636,-2.5593,-2.5585,-2.5579,-2.5551,-2.5478,-2.5412,-2.5341,-2.5253,-2.513,-2.4961,-2.4727,0.0,0.0,-2.3917,-2.3606,-2.3307,-2.302,-2.2799,-2.2588,-2.2388,-2.2113,-2.1882,-2.1678,0.0,0.0,0.0,0.0,0.0,0.0,0.0,0.0,0.0,0.0,0.0,0.0,0.0,0.0,0.0,0.0,0.0,0.0,0.0,0.0,0.0,-2.0175,-2.0235,-2.1125,-2.2945,-2.3054,-2.3946,-2.5702,-2.5693,-2.5652,-2.5574,-2.5518,-2.5444,-2.5376,-2.537,-2.6237,-2.7659,-2.7753,-2.8703,-3.0028,-2.8486,0.0,0.0,0.0,0.0,0.0,0.0,0.0,0.0,-2.5583,-2.5582,-2.5604,-2.561,0.0,0.0,0.0,0.0,0.0,-2.5698,-2.5702,-2.5703,-2.5703,-2.5697,0.0,0.0,0.0,0.0,0.0,0.0,0.0,0.0,0.0,0.0,0.0,0.0,0.0,0.0,0.0,0.0,0.0,0.0,0.0,0.0,0.0,0.0,0.0,0.0,0.0,0.0,-2.5703,-2.5696,-2.5693,-2.5636,-2.5571,-2.5518,-2.5531,-2.5488,-2.5412,-2.5351,-2.525,-2.5137,-2.5,-2.4785,-2.4538,0.0,-2.4058,-2.3649,-2.3422,-2.3109,-2.2721,-2.2402,-2.2209,-2.2027,-2.1768,-2.1542,-2.1327,0.0,0.0,0.0,0.0,0.0,0.0,0.0,0.0,0.0,0.0,0.0,0.0,0.0,0.0,0.0,0.0,0.0,0.0,0.0,0.0,0.0,-2.0313,-2.0792,-2.1679,-2.2965,-2.3069,-2.3948,-2.5702,-2.5694,-2.5662,-2.5595,-2.5523,-2.5485,-2.5456,-2.5459,-2.636,-2.7894,-2.7865,-2.8856,-3.0351,0.0,0.0,0.0,0.0,0.0,0.0,0.0,0.0,0.0,0.0,-2.5604,-2.56,-2.56,0.0,0.0,0.0,0.0,0.0,-2.5699,-2.5703,-2.5703,-2.5702,0.0,-2.5698,-2.5697,0.0,0.0,0.0,0.0,0.0,0.0,0.0,0.0,0.0,0.0,0.0,0.0,0.0,0.0,0.0,0.0,0.0,0.0,0.0,0.0,0.0,0.0,0.0,0.0,0.0,-2.5681,-2.5644,-2.5576,-2.5512,-2.5449,-2.5404,-2.5379,-2.5341,-2.525,-2.5118,-2.4987,-2.4818,-2.4604,-2.4373,0.0,-2.3798,-2.3422,-2.3157,-2.279,-2.2392,-2.2124,-2.194,-2.1738,-2.1371,-2.1295,-2.1361,0.0,0.0,0.0,0.0,0.0,0.0,0.0,0.0,0.0,0.0,0.0,0.0,0.0,0.0,0.0,0.0,0.0,0.0,0.0,0.0,-2.0346,-2.0398,-2.124,-2.2129,-2.2998,-2.326,-2.4168,-2.5702,-2.5696,-2.5671,-2.5621,-2.556,-2.5525,-2.5515,-2.5507,-2.6392,-2.7923,-2.7932,-2.8936,-3.0452,0.0,0.0,0.0,0.0,0.0,0.0,0.0,0.0,0.0,0.0,0.0,0.0,0.0,0.0,0.0,-2.571,-2.5707,-2.57,-2.57,-2.5703,-2.5702,-2.57,0.0,-2.5698,-2.5701,0.0,0.0,0.0,0.0,0.0,0.0,0.0,0.0,0.0,0.0,0.0,0.0,0.0,0.0,0.0,0.0,0.0,0.0,0.0,0.0,0.0,0.0,0.0,0.0,0.0,-2.5655,-2.56,-2.5331,-2.5263,-2.5404,-2.512,-2.5079,-2.5241,-2.5118,-2.4974,-2.4847,-2.4636,-2.4442,-2.4229,-2.3899,-2.3558,-2.323,-2.2876,-2.2517,-2.2124,-2.1911,-2.1678,-2.1373,-2.1166,-2.1227,-2.1373,0.0,0.0,0.0,0.0,0.0,0.0,0.0,0.0,0.0,0.0,0.0,0.0,0.0,0.0,0.0,0.0,0.0,0.0,0.0,0.0,-2.0379,-2.039,-2.1297,-2.2197,-2.3061,-2.3898,-2.4758,-2.5702,-2.5699,-2.5698,-2.5699,-2.5629,-2.5595,-2.5589,-2.5525,-2.6428,-2.7992,-2.8055,-2.9063,-3.0518,-2.9702,0.0,0.0,0.0,0.0,0.0,0.0,0.0,0.0,0.0,0.0,0.0,0.0,0.0,-2.571,0.0,-2.5707,-2.57,-2.57,-2.5703,-2.57,-2.57,-2.5694,0.0,-2.5693,-2.5648,0.0,0.0,0.0,0.0,0.0,0.0,0.0,0.0,0.0,0.0,0.0,0.0,0.0,0.0,0.0,0.0,0.0,0.0,0.0,0.0,0.0,0.0,0.0,0.0,0.0,-2.5607,-2.4749,-2.4641,-2.5379,-2.4524,-2.4443,-2.5115,-2.4981,-2.4832,-2.4723,-2.451,-2.4302,-2.4094,-2.3774,-2.3405,-2.3095,-2.2764,-2.2371,-2.1998,-2.1708,-2.1325,-2.0906,-2.1434,-2.1404,-2.1255,0.0,0.0,0.0,0.0,0.0,0.0,0.0,0.0,0.0,0.0,0.0,0.0,0.0,0.0,0.0,0.0,0.0,0.0,0.0,-2.0892,-2.1221,-2.1278,-2.2652,-2.3572,-2.3898,-2.4223,-2.4839,-2.5703,-2.5698,-2.5696,-2.5699,-2.5634,-2.5609,-2.5621,-2.6107,-2.696,-2.8102,-2.8671,-2.9563,-3.0582,-3.0308,-2.987,0.0,0.0,0.0,0.0,0.0,0.0,0.0,0.0,-2.6408,0.0,0.0,0.0,0.0,0.0,-2.5691,-2.57,-2.57,-2.5703,-2.5702,-2.57,0.0,0.0,0.0,0.0,0.0,0.0,0.0,0.0,0.0,0.0,0.0,0.0,0.0,0.0,0.0,0.0,0.0,0.0,0.0,0.0,0.0,0.0,0.0,0.0,0.0,0.0,0.0,0.0,0.0,-2.4749,-2.4346,-2.4268,-2.4534,-2.4085,-2.4219,-2.4915,-2.4847,-2.4764,-2.4629,-2.4426,-2.4192,-2.3896,-2.3664,-2.3301,-2.2893,-2.2596,-2.2231,-2.184,-2.145,-2.1343,-2.144,-2.16,-2.1951,-2.2376,0.0,0.0,0.0,0.0,0.0,0.0,0.0,0.0,0.0,0.0,0.0,0.0,0.0,0.0,0.0,0.0,0.0,0.0,-2.1266,-2.1775,-2.2138,-2.2201,-2.3631,-2.4408,-2.4403,-2.4661,-2.5095,-2.5703,-2.5696,-2.5698,-2.5694,-2.5656,-2.5771,-2.6032,-2.6598,-2.7472,-2.8558,-2.9159,-2.987,-3.0645,-3.0688,-3.0334,0.0,0.0,0.0,0.0,0.0,0.0,0.0,0.0,0.0,0.0,0.0,0.0,0.0,0.0,0.0,-2.57,-2.57,-2.5703,-2.5702,0.0,0.0,0.0,0.0,0.0,0.0,0.0,0.0,0.0,0.0,0.0,0.0,0.0,0.0,0.0,0.0,0.0,0.0,0.0,0.0,0.0,0.0,0.0,0.0,0.0,0.0,0.0,0.0,0.0,-2.4859,-2.4191,-2.3589,-2.3495,-2.3924,-2.3576,-2.3859,-2.4798,-2.4768,-2.466,-2.4497,-2.4303,-2.4056,-2.375,-2.3508,-2.3175,-2.279,-2.2487,-2.2077,-2.1634,-2.1488,-2.1544,-2.1761,-2.2108,-2.2609,-2.3051,0.0,0.0,0.0,0.0,0.0,0.0,0.0,0.0,0.0,0.0,0.0,0.0,0.0,0.0,0.0,0.0,0.0,0.0,-2.2998,-2.3004,-2.305,-2.3108,-2.3954,-2.4419,-2.4407,-2.527,-2.5702,-2.5703,-2.5696,-2.5705,-2.5698,-2.5694,-2.6123,-2.6909,-2.6898,-2.7847,-2.9408,-2.9408,-2.9913,-3.0697,-3.0711,-3.0704,-3.0703,0.0,0.0,0.0,0.0,0.0,0.0,0.0,0.0,0.0,0.0,0.0,0.0,0.0,-2.5691,-2.57,-2.57,-2.5703,0.0,0.0,0.0,0.0,0.0,0.0,0.0,0.0,0.0,0.0,0.0,0.0,0.0,0.0,0.0,0.0,0.0,0.0,0.0,0.0,0.0,0.0,0.0,0.0,0.0,0.0,0.0,0.0,0.0,0.0,-2.4166,-2.4102,-2.2406,-2.223,-2.3778,-2.2935,-2.3271,-2.4791,-2.4663,-2.4479,-2.4284,-2.4095,-2.3894,-2.3678,-2.336,-2.3045,-2.2764,-2.2432,-2.1919,-2.1358,-2.1905,-2.1903,-2.1791,-2.3117,-2.3341,-2.3087,0.0,0.0,0.0,0.0,0.0,0.0,0.0,0.0,0.0,0.0,0.0,0.0,0.0,0.0,0.0,0.0,0.0,0.0,-2.3033,-2.3629,-2.3984,-2.4001,-2.4854,-2.5315,-2.5304,-2.5563,-2.5703,-2.5703,-2.5701,-2.5696,-2.5705,-2.571,-2.6119,-2.6937,-2.7537,-2.8435,-2.9499,-3.0062,-3.0458,-3.071,-3.0691,-3.0697,-3.0703,0.0,0.0,0.0,0.0,0.0,0.0,0.0,0.0,0.0,0.0,0.0,0.0,-2.5703,-2.5694,-2.57,-2.57,0.0,0.0,0.0,0.0,0.0,0.0,0.0,0.0,0.0,0.0,0.0,0.0,0.0,0.0,0.0,0.0,0.0,0.0,0.0,0.0,0.0,0.0,0.0,0.0,0.0,0.0,0.0,0.0,0.0,0.0,0.0,-2.3883,-2.3204,-2.2046,-2.1895,-2.2875,-2.2546,-2.3131,-2.4663,-2.4481,-2.4357,-2.4284,-2.4095,-2.3873,-2.3594,-2.3336,-2.302,-2.2685,-2.2175,-2.2052,-2.2151,-2.2131,-2.2524,-2.3199,-2.3514,-2.3634,-2.3709,0.0,0.0,0.0,0.0,0.0,0.0,0.0,0.0,0.0,0.0,-2.1746,0.0,0.0,0.0,0.0,0.0,0.0,0.0,0.0,-2.4581,-2.4911,-2.4927,-2.5425,-2.5707,-2.5693,-2.5699,-2.5702,-2.5703,-2.5703,-2.57,-2.5709,-2.6054,-2.6666,-2.7484,-2.834,-2.9211,-3.0049,-3.0525,-3.0739,-3.075,-3.075,-3.073,-3.0735,0.0,0.0,0.0,0.0,0.0,0.0,0.0,0.0,0.0,0.0,0.0,0.0,-2.5705,-2.5694,-2.57,-2.57,0.0,0.0,0.0,0.0,0.0,0.0,0.0,0.0,0.0,0.0,0.0,0.0,0.0,0.0,0.0,0.0,0.0,0.0,0.0,0.0,0.0,0.0,0.0,0.0,0.0,0.0,0.0,0.0,0.0,0.0,0.0,-2.3245,-2.2314,-2.1685,-2.1698,-2.2419,-2.2663,-2.3382,-2.4549,-2.4375,-2.4247,-2.4172,-2.3996,-2.3807,-2.3544,-2.3151,-2.2842,-2.2532,-2.2321,-2.2338,-2.2525,-2.2838,-2.3306,-2.3833,-2.3967,-2.4004,-2.3982,0.0,0.0,0.0,0.0,0.0,0.0,0.0,0.0,0.0,0.0,-2.1111,-2.1937,0.0,0.0,0.0,0.0,0.0,0.0,0.0,0.0,-2.5697,-2.571,-2.5701,-2.5709,-2.5693,-2.5698,-2.5699,-2.5699,-2.5703,-2.5701,-2.5715,-2.6589,-2.7479,-2.834,-2.9133,-2.9987,-3.0802,-3.0808,-3.0793,-3.0802,-3.0802,-3.081,-3.0798,-3.0806,0.0,0.0,0.0,0.0,0.0,0.0,0.0,0.0,0.0,0.0,-2.5701,-2.5707,-2.5694,-2.57,0.0,0.0,0.0,0.0,0.0,0.0,0.0,0.0,0.0,0.0,0.0,0.0,0.0,0.0,0.0,0.0,0.0,0.0,0.0,0.0,0.0,0.0,0.0,0.0,0.0,0.0,0.0,0.0,0.0,0.0,0.0,-2.3299,-2.2392,-2.1529,-2.1367,-2.1623,-2.2292,-2.3088,-2.3811,-2.4482,-2.4358,-2.4172,-2.3976,-2.385,-2.3656,-2.3424,-2.2919,-2.2542,-2.2333,-2.2731,-2.2783,-2.2703,-2.3767,-2.4084,-2.3959,-2.4411,-2.4343,-2.394,0.0,0.0,0.0,0.0,0.0,0.0,0.0,0.0,0.0,0.0,0.0,0.0,0.0,0.0,0.0,0.0,0.0,0.0,0.0,0.0,-2.5707,-2.571,-2.5701,-2.5707,-2.5709,-2.5693,-2.5696,-2.5696,-2.5702,-2.5703,-2.5722,-2.6598,-2.7471,-2.8337,-2.9129,-2.9982,-3.0794,-3.0794,-3.0794,-3.0794,-3.0794,-3.0798,-3.0798,-3.0794,-3.0794,0.0,0.0,0.0,0.0,0.0,0.0,0.0,-2.7059,-2.6244,-2.5701,-2.5691,-2.5697,0.0,0.0,0.0,0.0,0.0,0.0,0.0,0.0,0.0,0.0,0.0,0.0,0.0,0.0,0.0,0.0,0.0,0.0,0.0,0.0,0.0,0.0,0.0,0.0,0.0,0.0,0.0,0.0,0.0,0.0,0.0,0.0,-2.267,-2.1671,-2.1435,-2.1287,-2.1562,-2.2292,-2.2993,-2.3677,0.0,-2.4209,-2.4036,-2.3837,-2.3747,-2.3458,-2.3003,-2.2738,-2.247,-2.2259,-2.2715,-2.3094,-2.3488,-2.3996,-2.4423,-2.4721,-2.4558,-2.4234,-2.3797,0.0,0.0,0.0,0.0,0.0,0.0,0.0,0.0,0.0,0.0,0.0,0.0,0.0,0.0,0.0,0.0,0.0,0.0,0.0,0.0,-2.5693,-2.5698,-2.6095,-2.6312,-2.6312,-2.6724,-2.694,-2.694,-2.6947,-2.6737,-2.6348,-2.7207,-2.8083,-2.8955,-2.9793,-3.0413,-3.0841,-3.0841,-3.0841,-3.0841,-3.0841,-3.0841,-3.0841,-3.0816,-3.0794,-3.081,-3.0807,0.0,0.0,0.0,0.0,0.0,0.0,0.0,-2.5705,-2.5691,-2.5697,0.0,0.0,0.0,0.0,0.0,0.0,0.0,0.0,0.0,0.0,0.0,0.0,0.0,0.0,0.0,0.0,0.0,0.0,0.0,0.0,0.0,0.0,0.0,0.0,0.0,0.0,0.0,0.0,0.0,0.0,0.0,0.0,-2.2252,-2.1454,-2.1359,-2.1631,-2.2136,-2.2858,-2.3546,-2.3999,-2.4247,-2.4114,-2.3894,-2.3598,-2.3526,-2.3289,-2.2893,-2.2659,-2.2432,-2.2214,-2.2654,-2.2964,-2.3193,-2.3915,-2.4296,-2.4445,-2.4496,-2.4193,-2.3709,0.0,0.0,0.0,0.0,0.0,0.0,0.0,0.0,0.0,0.0,0.0,0.0,0.0,0.0,0.0,0.0,0.0,0.0,0.0,0.0,0.0,-2.5705,-2.6525,-2.6995,-2.6995,-2.7854,-2.8303,-2.8303,-2.8307,-2.8001,-2.7461,-2.8183,-2.8906,-2.9646,-3.0506,-3.0896,-3.0876,-3.0876,-3.0876,-3.0876,-3.0876,-3.0896,-3.0895,-3.0832,-3.0712,-3.0589,-3.0584,-3.0501,-3.0164,-2.8778,0.0,0.0,0.0,0.0,-2.5691,-2.5694,0.0,0.0,0.0,0.0,0.0,0.0,0.0,0.0,0.0,0.0,0.0,0.0,0.0,0.0,0.0,0.0,0.0,0.0,0.0,0.0,0.0,0.0,0.0,0.0,0.0,0.0,0.0,0.0,0.0,0.0,0.0,0.0,-2.2721,-2.1919,-2.1445,-2.1308,-2.2154,-2.2908,-2.3491,-2.4153,-2.4392,-2.421,-2.4016,-2.3747,-2.3383,-2.3289,-2.3119,-2.2868,-2.2579,-2.2377,-2.2185,-2.264,-2.2686,-2.2573,-2.3606,-2.3824,-2.3638,-2.3965,-2.3799,-2.329,0.0,0.0,0.0,0.0,0.0,0.0,0.0,0.0,0.0,0.0,-2.4129,0.0,0.0,0.0,0.0,0.0,0.0,0.0,0.0,0.0,0.0,-2.5693,-2.6535,-2.7005,-2.7005,-2.7852,-2.8303,-2.8303,-2.8303,-2.8639,-2.9269,-2.937,-2.949,-2.9648,-3.0507,-3.0879,-3.0801,-3.0801,-3.0801,-3.0801,-3.0801,-3.0859,-3.0897,-3.0897,-3.0426,-2.976,-2.976,-2.927,-2.8606,-2.8372,-2.7806,0.0,0.0,0.0,0.0,0.0,0.0,0.0,0.0,0.0,0.0,0.0,0.0,0.0,0.0,0.0,0.0,0.0,0.0,0.0,0.0,0.0,0.0,0.0,0.0,0.0,0.0,0.0,0.0,0.0,0.0,0.0,0.0,0.0,0.0,0.0,0.0,0.0,-2.1822,-2.1594,-2.1436,-2.1308,-2.2747,-2.352,-2.3491,-2.4118,-2.4338,-2.419,-2.3847,-2.3522,-2.3313,-2.3102,-2.2944,-2.2712,-2.2515,-2.2248,-2.1978,-2.2562,-2.2654,-2.2475,-2.2975,-2.3027,-2.2823,-2.254,-2.2237,-2.1894,0.0,0.0,0.0,0.0,0.0,0.0,0.0,0.0,0.0,0.0,0.0,0.0,0.0,0.0,0.0,0.0,0.0,0.0,0.0,0.0,0.0,0.0,-2.6997,-2.7738,-2.7738,-2.9012,-2.9695,-2.9695,-2.9695,-2.9893,0.0,-3.027,-3.0281,-3.0329,-3.0212,-3.0154,-3.0096,-2.9608,-2.9394,-2.9394,-2.9394,-2.9413,-2.9433,-2.9433,-2.9219,-2.8867,-2.8867,-2.8632,-2.824,-2.7732,-2.7321,-2.691,-2.6422,0.0,0.0,0.0,0.0,0.0,0.0,0.0,0.0,0.0,0.0,0.0,0.0,0.0,0.0,0.0,0.0,0.0,0.0,0.0,0.0,0.0,0.0,0.0,0.0,0.0,0.0,0.0,0.0,0.0,0.0,0.0,0.0,0.0,0.0,-2.297,-2.3009,-2.2008,-2.1828,-2.2661,-2.3316,-2.3822,-2.4166,-2.4307,-2.4266,-2.3976,-2.3678,-2.3448,-2.3241,-2.2995,-2.2816,-2.2632,-2.2432,-2.2163,-2.1915,-2.1977,-2.1874,-2.173,-2.215,-2.2173,-2.1931,-2.2018,-2.1822,-2.1421,0.0,0.0,0.0,0.0,0.0,0.0,0.0,0.0,0.0,0.0,0.0,0.0,0.0,0.0,0.0,0.0,0.0,0.0,0.0,0.0,0.0,0.0,0.0,-2.8376,-2.861,-3.0056,-3.0798,-3.0798,-3.0798,0.0,-3.0798,-3.0798,-3.0713,0.0,-2.9853,-2.9462,-2.923,-2.8585,-2.8293,-2.8293,-2.8293,-2.8294,-2.8294,-2.8295,-2.8161,-2.7967,-2.7968,-2.7832,-2.7539,-2.6894,-2.6679,-2.6561,-2.5897,0.0,0.0,0.0,0.0,0.0,0.0,0.0,0.0,0.0,0.0,0.0,0.0,0.0,0.0,0.0,0.0,0.0,0.0,0.0,0.0,0.0,0.0,0.0,0.0,0.0,0.0,0.0,0.0,0.0,0.0,0.0,0.0,0.0,0.0,-2.3449,-2.3788,-2.2689,-2.2603,-2.3759,-2.3885,-2.4181,-2.4689,-2.4478,-2.4155,-2.3795,-2.3611,-2.3401,-2.3168,-2.2902,-2.2712,-2.2542,-2.2321,-2.2077,-2.1811,-2.1509,-2.1246,-2.107,-2.1363,-2.1292,-2.1085,-2.1333,-2.121,-2.0759,0.0,0.0,0.0,0.0,0.0,0.0,0.0,0.0,0.0,0.0,0.0,0.0,0.0,-2.5593,-2.5599,-2.5604,-2.56,-2.5595,-2.5604,-2.5656,-2.603,-2.679,0.0,0.0,-2.9418,-3.0326,-3.0798,-3.0798,0.0,0.0,-3.0798,-3.0798,-3.0368,-2.9565,-2.9533,-2.9087,-2.8366,0.0,0.0,-2.8307,-2.8307,-2.8291,-2.8298,0.0,0.0,0.0,0.0,-2.654,-2.5838,-2.5779,-2.5779,-2.5759,0.0,0.0,0.0,0.0,0.0,0.0,0.0,0.0,0.0,0.0,0.0,0.0,0.0,0.0,0.0,0.0,0.0,0.0,0.0,0.0,0.0,0.0,0.0,0.0,0.0,0.0,0.0,0.0,0.0,0.0,0.0,0.0,0.0,0.0,0.0,-2.3779,-2.3002,-2.3543,-2.383,-2.3797,-2.448,-2.4795,-2.4707,-2.4357,-2.4056,-2.3795,-2.3611,-2.336,-2.3095,-2.2876,-2.2659,-2.2405,-2.213,-2.1899,-2.1694,-2.1402,-2.1151,-2.0909,-2.066,-2.0488,-2.0331,-1.9959,-1.9685,-1.9427,0.0,0.0,0.0,0.0,0.0,0.0,0.0,0.0,0.0,0.0,0.0,0.0,0.0,-2.5607,-2.5593,-2.5599,-2.56,-2.5591,-2.5595,-2.5619,-2.6009,-2.686,-2.7731,-2.8617,-2.9474,-3.0341,-3.0793,0.0,0.0,-3.0784,-3.0716,-3.021,-2.9504,-2.8666,-2.8673,-2.8193,-2.7351,-2.6805,0.0,-2.6568,-2.6568,-2.6594,-2.662,0.0,0.0,0.0,0.0,0.0,0.0,0.0,0.0,0.0,0.0,0.0,0.0,0.0,0.0,0.0,0.0,0.0,0.0,0.0,0.0,0.0,0.0,0.0,0.0,0.0,0.0,0.0,0.0,0.0,0.0,0.0,0.0,0.0,0.0,0.0,0.0,0.0,0.0,0.0,0.0,0.0,0.0,0.0,0.0,-2.4342,-2.4563,-2.4248,-2.4255,-2.4686,-2.4873,-2.4837,-2.4578,-2.4321,-2.4114,-2.3917,-2.3725,-2.3499,-2.3217,-2.2995,-2.2685,-2.2377,-2.2073,-2.1811,-2.1603,-2.1294,-2.0958,-2.0613,-2.0426,-2.0185,-1.9869,-1.9617,-1.9288,-1.895,0.0,0.0,0.0,0.0,0.0,0.0,0.0,0.0,0.0,0.0,0.0,0.0,0.0,0.0,-2.5601,-2.5593,-2.559,-2.56,-2.56,-2.5878,-2.6422,-2.7293,-2.8165,-2.9026,-2.9883,-3.0472,-3.0764,0.0,0.0,0.0,0.0,-2.9861,-2.8999,-2.8151,-2.7853,-2.7264,0.0,0.0,0.0,-2.5604,-2.5604,-2.5628,-2.5679,0.0,0.0,0.0,0.0,0.0,0.0,0.0,0.0,0.0,0.0,0.0,0.0,0.0,0.0,0.0,0.0,0.0,0.0,0.0,0.0,0.0,0.0,0.0,0.0,0.0,0.0,0.0,0.0,0.0,0.0,0.0,0.0,0.0,0.0,0.0,0.0,0.0,0.0,0.0,0.0,0.0,0.0,0.0,0.0,0.0,-2.5478,-2.4888,-2.4726,-2.5134,-2.4987,-2.4794,-2.4547,-2.4321,-2.4154,-2.3996,-2.3807,-2.3567,-2.3289,-2.302,-2.2738,-2.2405,-2.2073,-2.1781,-2.1511,-2.1183,-2.0827,-2.0494,-2.027,-1.9975,-1.969,-1.9413,-1.9101,-1.8745,0.0,0.0,0.0,0.0,0.0,0.0,0.0,0.0,0.0,-2.5499,0.0,0.0,0.0,0.0,0.0,-2.5601,-2.5613,-2.5638,-2.5638,-2.6451,-2.7312,-2.8207,-2.9044,-2.9866,-3.0684,-3.0703,-3.0703,0.0,0.0,0.0,0.0,0.0,-2.891,-2.8061,-2.7149,-2.6333,-2.5599,0.0,-2.5607,-2.5599,0.0,-2.559,-2.561,0.0,0.0,0.0,-2.5598,-2.5644,0.0,-2.5691,0.0,0.0,0.0,0.0,0.0,0.0,0.0,0.0,0.0,0.0,0.0,0.0,0.0,0.0,0.0,0.0,0.0,0.0,0.0,0.0,0.0,0.0,0.0,0.0,0.0,0.0,0.0,0.0,0.0,0.0,0.0,0.0,0.0,0.0,0.0,0.0,-2.5636,-2.5565,-2.5499,-2.5437,-2.5274,-2.5006,-2.4879,-2.4738,-2.4615,-2.4393,-2.4191,-2.3996,-2.3789,-2.3567,-2.3289,-2.3045,-2.2764,-2.247,-2.2158,-2.1794,-2.1386,-2.1023,-2.0745,-2.046,-2.0131,-1.9884,-1.9654,-1.925,-1.8988,-1.8745,0.0,0.0,0.0,0.0,0.0,0.0,-2.5499,-2.5499,-2.5499,0.0,0.0,0.0,-2.5525,-2.5525,-2.5551,-2.5602,-2.6133,-2.6488,-2.6539,-2.7317,-2.8158,-2.9033,-2.9298,-2.9829,-3.0685,-3.0697,-3.0697,0.0,0.0,0.0,0.0,0.0,0.0,0.0,-2.6509,-2.5708,-2.5456,-2.5511,0.0,-2.5538,-2.5538,-2.5525,0.0,0.0,0.0,0.0,0.0,-2.56,-2.5624,0.0,-2.5628,-2.5738,0.0,0.0,0.0,0.0,0.0,0.0,-3.0446,0.0,0.0,0.0,0.0,0.0,0.0,0.0,0.0,0.0,0.0,0.0,0.0,0.0,0.0,0.0,0.0,0.0,0.0,0.0,0.0,0.0,0.0,0.0,0.0,0.0,0.0,0.0,-2.5675,-2.5634,-2.5587,-2.5412,-2.5261,-2.5082,-2.4893,-2.4753,-2.4666,-2.4464,-2.4303,-2.4151,-2.3876,-2.366,-2.3448,-2.3168,-2.2868,-2.2552,-2.2226,-2.1853,-2.1511,-2.1071,-2.0679,-2.0339,-1.999,-1.9705,-1.945,-1.913,-1.8865,-1.8542,0.0,0.0,0.0,0.0,0.0,0.0,-2.549,-2.551,-2.551,0.0,0.0,0.0,-2.6008,-2.6364,-2.6604,-2.665,-2.7077,-2.7355,-2.7401,-2.8184,-2.887,-2.9375,-2.9745,-3.0186,-3.0685,-3.0711,-3.0704,0.0,0.0,0.0,0.0,0.0,0.0,0.0,0.0,0.0,0.0,0.0,0.0,0.0,-2.5483,0.0,0.0,-2.5538,-2.557,0.0,0.0,0.0,-2.5565,-2.559,-2.5605,0.0,0.0,0.0,0.0,0.0,0.0,0.0,0.0,0.0,0.0,0.0,0.0,0.0,0.0,-2.6233,0.0,0.0,0.0,0.0,0.0,0.0,0.0,0.0,0.0,0.0,0.0,0.0,0.0,0.0,0.0,0.0,0.0,0.0,0.0,-2.5691,-2.5704,-2.5663,-2.5562,-2.5393,-2.5252,-2.516,-2.4947,-2.4813,-2.4695,-2.4497,-2.4321,-2.419,-2.3937,-2.3707,-2.3522,-2.3241,-2.2944,-2.2632,-2.2343,-2.2032,-2.1664,-2.123,-2.0778,-2.0323,-1.996,-1.9654,-1.9428,-1.9055,-1.875,-1.8439,0.0,0.0,0.0,-2.5759,-2.5778,-2.577,-2.5774,-2.5774,-2.5774,0.0,-2.5774,-2.6052,-2.685,-2.7621,-2.8094,-2.8094,-2.8179,-2.8237,-2.8237,-2.9055,-2.9528,-2.9528,-3.0288,-3.0683,-3.0683,-3.0688,-3.0692,0.0,0.0,0.0,0.0,0.0,0.0,0.0,0.0,0.0,0.0,0.0,0.0,-2.5393,-2.5456,-2.5492,0.0,0.0,-2.5485,-2.5511,-2.5492,-2.5506,-2.5518,-2.557,-2.5599,0.0,0.0,0.0,0.0,0.0,-3.0111,0.0,0.0,0.0,0.0,0.0,0.0,0.0,-2.7215,-2.629,-2.5599,0.0,0.0,0.0,0.0,0.0,0.0,0.0,0.0,0.0,0.0,0.0,0.0,0.0,0.0,0.0,0.0,-2.5702,-2.5699,-2.5694,-2.569,-2.5639,-2.5506,-2.5382,-2.5274,-2.5198,-2.5006,-2.4847,-2.4723,-2.451,-2.4355,-2.421,-2.3939,-2.375,-2.3594,-2.3271,-2.2995,-2.2712,-2.2515,-2.2192,-2.1797,-2.1464,-2.1023,-2.0494,-2.0015,-1.9726,-1.9538,-1.9026,-1.8683,-1.8478,0.0,0.0,0.0,-2.7422,-2.7422,-2.7441,-2.7431,-2.7431,-2.7431,-2.7431,-2.7431,-2.7499,-2.7672,-2.7893,-2.8017,-2.8025,-2.8659,-2.9082,-2.9137,-2.9912,-3.0377,-3.0377,-3.054,-3.0618,-3.0618,-3.0618,-3.061,-3.061,0.0,0.0,0.0,0.0,0.0,0.0,0.0,0.0,0.0,0.0,0.0,-2.5332,-2.5387,0.0,-2.5412,-2.541,-2.5453,-2.5507,-2.5503,-2.5498,-2.5499,-2.5525,-2.5557,-2.5751,0.0,0.0,0.0,0.0,0.0,0.0,0.0,0.0,0.0,0.0,0.0,0.0,-2.7925,-2.6689,-2.5583,0.0,0.0,0.0,0.0,0.0,0.0,0.0,0.0,0.0,0.0,0.0,0.0,0.0,0.0,0.0,0.0,-2.5703,-2.5702,-2.5699,-2.5648,-2.5586,-2.5499,-2.5426,-2.5341,-2.5212,-2.5056,-2.4915,-2.4779,-2.4626,-2.4462,-2.4284,-2.4057,-2.3873,-2.3678,-2.3407,-2.3102,-2.2842,-2.2579,-2.2287,-2.194,-2.1664,-2.1151,-2.053,-2.0115,-1.9812,-1.9538,-1.913,-1.8827,-1.8595,0.0,0.0,0.0,-2.7903,-2.7903,-2.7903,-2.7864,-2.7864,-2.7864,-2.7864,-2.8259,-2.855,-2.854,-2.8965,-2.9245,-2.9236,-2.9641,-2.9911,-2.994,-3.0336,-3.0549,-3.0549,-3.0548,-3.0557,-3.0557,-3.0558,-3.0549,-3.0549,0.0,0.0,0.0,0.0,0.0,0.0,0.0,0.0,0.0,0.0,-2.5262,-2.5253,-2.5332,0.0,-2.5397,-2.5395,-2.5412,-2.544,-2.5448,-2.548,-2.5503,-2.5498,-2.5802,0.0,0.0,-2.7757,-2.8877,0.0,-3.005,-3.0698,0.0,0.0,0.0,-3.071,0.0,0.0,0.0,-2.678,-2.5544,0.0,0.0,0.0,0.0,0.0,0.0,0.0,0.0,0.0,0.0,0.0,0.0,0.0,0.0,0.0,0.0,-2.5703,-2.5701,-2.5696,-2.5668,-2.5624,-2.556,-2.549,-2.5395,-2.5245,-2.5107,-2.4981,-2.4856,-2.4673,-2.4513,-2.4339,-2.3711,-2.3315,-2.3148,-2.2416,-2.199,-2.1805,-2.1945,-2.1863,-2.1608,-2.1707,-2.1417,-2.0909,-2.0308,-1.994,-1.9654,-1.9168,-1.8879,-1.8634,0.0,0.0,0.0,-2.8362,-2.8362,-2.8332,-2.828,-2.828,-2.828,-2.828,-2.8948,-2.9413,-2.9407,0.0,0.0,0.0,-3.0458,-3.0488,0.0,-3.0471,-3.0481,-3.051,-3.0492,-3.0501,-3.0501,-3.0501,-3.051,-3.051,0.0,0.0,0.0,0.0,0.0,0.0,0.0,0.0,0.0,0.0,0.0,-2.5192,0.0,-2.5303,-2.5361,-2.536,-2.5369,-2.5378,-2.5406,-2.5432,-2.5522,-2.5666,0.0,-2.6834,-2.7183,-2.8257,0.0,0.0,0.0,0.0,0.0,0.0,0.0,0.0,0.0,-2.8054,0.0,0.0,0.0,0.0,0.0,0.0,0.0,0.0,0.0,0.0,0.0,0.0,0.0,0.0,0.0,0.0,0.0,0.0,0.0,-2.5703,-2.5701,-2.5691,-2.5693,-2.5668,-2.5595,-2.5544,-2.5461,-2.532,-2.5194,-2.5068,-2.494,-2.4749,-2.4503,-2.4206,-2.329,-2.2682,-2.2381,-2.1414,-2.0876,-2.0765,-2.1333,-2.1438,-2.1247,-2.1725,-2.1721,-2.1277,-2.0548,-2.0104,-1.9767,-1.9265,-1.8955,-1.8711,-3.0028,-3.0023,0.0,0.0,-3.0037,-3.0017,-3.0017,-3.0017,-3.0017,-3.0017,-3.0113,0.0,0.0,0.0,0.0,0.0,0.0,0.0,-3.0417,0.0,-3.0439,-3.0509,-3.049,-3.049,-3.049,-3.0509,-3.0509,-3.0509,-3.0439,0.0,0.0,0.0,0.0,0.0,-2.8068,0.0,0.0,0.0,-2.5918,0.0,-2.5209,-2.522,0.0,-2.5214,-2.5264,-2.5322,-2.5369,-2.5395,-2.553,0.0,-2.6627,-2.6981,0.0,-2.9182,-2.9544,0.0,0.0,0.0,0.0,0.0,0.0,0.0,-2.8815,0.0,0.0,0.0,0.0,0.0,0.0,0.0,0.0,0.0,0.0,0.0,0.0,0.0,0.0,0.0,0.0,0.0,0.0,0.0,0.0,0.0,-2.5703,-2.5699,-2.5707,-2.5665,-2.5604,-2.5579,-2.5518,-2.5387,-2.5322,-2.5217,-2.5088,-2.4865,-2.4347,-2.35,-2.3208,-2.2574,-2.1698,-2.138,-2.1105,-2.0912,-2.1505,-2.1572,-2.1326,-2.1849,-2.1899,-2.1481,-2.0828,-2.0308,-1.9919,-1.9523,-1.9205,-1.8903,-3.0273,-3.026,0.0,0.0,0.0,0.0,0.0,0.0,0.0,0.0,0.0,0.0,0.0,0.0,0.0,0.0,0.0,-3.0299,0.0,0.0,0.0,-3.0379,-3.0379,-3.0379,-3.0379,-3.0379,-3.0379,-3.0379,-3.0367,-3.0343,0.0,0.0,0.0,0.0,-2.8804,0.0,-2.7854,0.0,-2.6937,0.0,0.0,0.0,0.0,-2.5562,-2.5222,-2.5253,-2.5332,-2.5678,-2.616,0.0,-2.7316,0.0,0.0,0.0,0.0,0.0,0.0,0.0,0.0,0.0,0.0,0.0,0.0,0.0,-2.6947,0.0,-2.5448,0.0,0.0,0.0,0.0,0.0,0.0,0.0,0.0,0.0,0.0,0.0,0.0,0.0,0.0,0.0,0.0,0.0,0.0,0.0,-2.5696,-2.5681,-2.5662,-2.5624,-2.5579,-2.5518,-2.5401,-2.5284,-2.5157,-2.4493,-2.3917,-2.3442,-2.2269,-2.1447,-2.0948,-2.0264,-1.9846,-1.9708,-2.0322,-2.0697,-2.0946,-2.1437,-2.1687,-2.1648,-2.1198,-2.0646,-2.0065,-1.9596,-1.9242,-1.8955,-3.0245,0.0,0.0,0.0,0.0,0.0,0.0,0.0,0.0,0.0,0.0,0.0,-3.0176,-3.0176,0.0,0.0,-3.0166,-3.018,0.0,0.0,-3.0253,0.0,0.0,0.0,0.0,-3.0279,-3.0279,-3.0292,-3.0292,-3.0279,0.0,0.0,0.0,0.0,0.0,-2.9093,-2.8836,0.0,0.0,-2.7566,-2.7566,-2.7566,-2.7447,-2.6288,-2.5868,-2.5899,-2.594,-2.6376,-2.6965,-2.7187,-2.8114,0.0,-2.9456,0.0,0.0,0.0,0.0,0.0,-3.0559,0.0,0.0,0.0,0.0,0.0,0.0,0.0,0.0,0.0,0.0,0.0,0.0,0.0,0.0,0.0,0.0,0.0,0.0,0.0,0.0,0.0,0.0,0.0,0.0,0.0,0.0,-2.5702,-2.5702,-2.5697,-2.5707,-2.5642,-2.5628,-2.5604,-2.5485,-2.5269,-2.4889,-2.4137,-2.3455,-2.2835,-2.1428,-2.0563,-2.017,-1.939,-1.8984,-1.8878,-1.9491,-1.996,-2.0356,-2.1068,-2.1421,-2.1516,-2.1352,-2.0909,-2.0258,-1.9762,-1.9391,-1.904,-3.0102,-3.0102,0.0,0.0,0.0,0.0,0.0,0.0,0.0,0.0,0.0,0.0,0.0,0.0,0.0,0.0,0.0,-3.0098,-3.0109,0.0,-3.0142,0.0,0.0,-3.0199,0.0,-3.0188,-3.0234,-3.0292,-3.0292,-3.0266,0.0,0.0,0.0,0.0,0.0,-2.9593,-2.8798,-2.876,-2.8255,-2.7504,-2.7504,-2.7504,-2.7504,0.0,-2.7567,-2.7625,-2.7612,0.0,0.0,-2.8663,-2.8998,0.0,0.0,0.0,0.0,0.0,0.0,0.0,0.0,0.0,0.0,-2.8386,0.0,0.0,0.0,0.0,-2.5406,0.0,0.0,0.0,0.0,0.0,0.0,0.0,0.0,0.0,0.0,0.0,0.0,0.0,0.0,0.0,0.0,0.0,0.0,-2.5693,-2.5701,-2.5703,-2.57,-2.5707,-2.5668,-2.5601,-2.5535,-2.5064,-2.4133,-2.3966,-2.2985,-2.1166,-2.0971,-2.0392,-1.9431,-1.9264,-1.9119,-1.9038,-1.9629,-1.9752,-1.9639,-2.0967,-2.1232,-2.0877,-2.1173,-2.1038,-2.0626,-2.0131,-1.972,-1.9251,0.0,0.0,0.0,0.0,0.0,0.0,0.0,-2.991,0.0,0.0,0.0,0.0,0.0,-2.991,-2.991,0.0,0.0,-2.9959,-2.9972,-2.9969,0.0,0.0,0.0,-3.0083,0.0,0.0,0.0,0.0,0.0,0.0,0.0,0.0,0.0,0.0,0.0,-2.9804,0.0,0.0,0.0,0.0,0.0,-2.9009,-2.8912,0.0,0.0,-2.7622,-2.7636,-2.8032,0.0,-2.8849,-2.9347,-2.9946,-3.0241,-3.0362,-3.0355,-3.0355,-3.0355,0.0,0.0,0.0,-2.9286,-2.8123,0.0,0.0,0.0,0.0,0.0,0.0,0.0,0.0,0.0,0.0,0.0,0.0,0.0,0.0,0.0,0.0,0.0,0.0,0.0,0.0,0.0,0.0,0.0,-2.5698,-2.5709,-2.5698,-2.5703,-2.5701,-2.5691,-2.5676,-2.5593,-2.5121,-2.4173,-2.3507,-2.2537,-2.1289,-2.0524,-1.9951,-1.9532,-1.9383,-1.9232,-1.9067,-1.9201,-1.9411,-1.972,-1.9951,-2.0123,-2.0277,-2.0157,-1.9855,-1.9561,-1.9863,-1.9456,-1.8576,-2.9808,0.0,0.0,0.0,0.0,0.0,0.0,0.0,0.0,0.0,-2.9808,0.0,-2.9808,0.0,-2.9825,0.0,-2.9859,-2.9859,-2.9874,-2.9874,0.0,-2.9943,-2.9943,0.0,0.0,0.0,0.0,0.0,0.0,-3.0053,0.0,0.0,0.0,0.0,0.0,-2.9874,-2.9857,0.0,-2.979,0.0,0.0,-2.9719,0.0,0.0,-2.8335,-2.8411,0.0,-2.8808,-2.9336,-2.9336,-2.974,-3.0253,-3.0253,-3.0266,-3.0292,-3.0292,-3.0292,-3.0292,-3.0299,-2.9697,0.0,-2.8011,-2.7174,0.0,-2.5474,0.0,0.0,0.0,0.0,0.0,0.0,0.0,0.0,0.0,0.0,0.0,0.0,0.0,0.0,0.0,0.0,0.0,0.0,0.0,-2.5586,-2.5668,-2.5668,-2.5661,0.0,0.0,-2.5702,-2.5697,-2.5359,-2.4713,-2.3786,-2.2876,-2.1918,-2.0966,-2.0249,-1.9821,-1.9682,-1.9527,-1.9372,-1.9198,-1.9049,-1.9147,-1.9438,-1.9419,-1.9487,-1.9605,-1.9548,-1.9295,-1.8996,-1.9306,-1.8736,-1.7625,0.0,0.0,0.0,0.0,-2.9809,0.0,0.0,0.0,-2.9866,0.0,-2.9903,-2.9903,-2.9903,-2.9903,-2.9903,-2.9903,-2.9903,0.0,-2.9903,-2.9903,0.0,0.0,-2.9903,-2.9957,-3.0009,0.0,0.0,0.0,0.0,0.0,0.0,0.0,0.0,0.0,-2.9825,0.0,-2.979,-2.979,-2.9737,-2.9664,-2.955,-2.9569,-2.9701,-2.9683,-2.9773,-2.9888,-2.9907,-2.9972,-3.0087,-3.0087,-3.0147,-3.0204,-3.0204,-3.0245,-3.0279,-3.0279,-3.0279,-3.0279,-3.0279,-2.9621,-2.8759,-2.7992,0.0,0.0,0.0,0.0,-2.5212,0.0,0.0,0.0,0.0,0.0,0.0,0.0,0.0,0.0,0.0,0.0,0.0,0.0,0.0,0.0,0.0,-2.5506,-2.5537,-2.5581,-2.5604,0.0,0.0,0.0,-2.5701,-2.5703,-2.4857,-2.3959,-2.301,-2.2139,-2.1204,-2.0204,-2.0152,-2.001,-1.9811,-1.9662,-1.9532,-1.9405,-1.9214,-1.9,-1.8841,-1.9354,-1.929,-1.8896,-1.9351,-1.9269,-1.8847,-1.8496,-1.7609,-1.6573,-2.957,-2.957,-2.9757,0.0,-2.9963,-2.9776,0.0,0.0,0.0,0.0,-3.1442,-3.1442,-3.1442,-3.1442,-3.1442,-3.1442,-3.1442,0.0,0.0,0.0,0.0,-3.1523,-3.1505,-3.1562,-3.1694,-3.1694,0.0,-3.0748,0.0,0.0,-2.9859,0.0,0.0,0.0,0.0,0.0,-2.9719,-2.9626,-2.9589,-2.955,-2.9512,-2.9512,0.0,0.0,-2.9683,-2.9755,-2.9859,-2.9926,-2.9956,-3.0007,-3.0068,-3.0132,-3.0132,-3.0147,-3.0161,-3.0161,-3.0161,-3.0161,-3.0161,-2.9088,-2.7912,-2.7688,-2.6586,-2.5482,0.0,0.0,0.0,0.0,0.0,0.0,0.0,0.0,0.0,0.0,0.0,0.0,0.0,0.0,0.0,0.0,0.0,0.0,0.0,-2.5461,-2.5517,-2.5518,-2.5579,0.0,0.0,0.0,0.0,-2.5709,-2.4843,-2.3963,-2.3077,-2.2202,-2.1293,-2.0355,-2.0227,-2.0115,-2.002,-1.9835,-1.9675,-1.9546,-1.9353,-1.9115,-1.8932,-1.8872,-1.8647,-1.8288,-1.8221,-1.7922,-1.7529,-1.7559,-1.7316,-1.6879,-3.0594,0.0,0.0,-3.1107,0.0,0.0,-3.119,0.0,0.0,-3.1939,-3.2014,0.0,-3.2014,-3.2014,-3.2014,-3.2014,-3.2014,0.0,-3.2014,0.0,0.0,-3.206,-3.206,-3.2081,-3.2181,-3.2181,0.0,-3.1449,0.0,0.0,-3.0227,0.0,0.0,0.0,0.0,-2.9608,0.0,-2.9492,-2.9453,-2.9453,-2.9451,0.0,0.0,-2.9511,-2.9569,-2.9664,-2.9774,-2.9825,-2.9874,-2.9943,-2.9975,-3.0022,-3.0038,-3.0087,-3.0102,-3.0102,-3.0102,-3.0102,-3.0102,-2.8865,-2.7603,-2.7603,-2.6371,-2.5163,-2.5163,-2.5163,-2.5163,0.0,0.0,0.0,0.0,0.0,0.0,0.0,0.0,0.0,0.0,0.0,0.0,0.0,0.0,0.0,0.0,0.0,0.0,0.0,0.0,0.0,0.0,0.0,0.0,-2.5658,-2.4475,-2.361,-2.3105,-2.1865,-2.0976,-2.0449,-2.0344,-2.0241,-2.015,-1.9991,-1.987,-1.9726,-1.9509,-1.9323,-1.9101,-1.8843,-1.8529,-1.8194,-1.7866,-1.7526,-1.7224,-1.7336,-1.7203,-1.684,0.0,0.0,0.0,0.0,0.0,0.0,0.0,-3.2176,0.0,-3.2251,0.0,-3.2269,-3.2269,-3.2269,-3.2269,-3.2269,0.0,-3.2269,-3.2269,-3.2269,-3.2291,-3.2291,-3.2291,-3.2291,-3.2313,-3.2313,0.0,0.0,0.0,0.0,0.0,0.0,0.0,0.0,0.0,0.0,0.0,-2.9412,-2.9372,-2.9372,-2.9368,-2.9388,-2.9392,-2.9392,-2.9453,-2.9588,-2.9645,-2.9738,-2.9808,-2.9859,-2.9893,-2.9907,-2.9975,-3.0022,-3.0072,-3.0072,-3.0072,-3.0072,-3.0072,-2.8855,-2.758,-2.758,-2.6325,-2.5101,-2.5101,-2.5101,-2.5101,-2.5101,-2.5101,-2.5101,0.0,0.0,0.0,0.0,0.0,0.0,0.0,0.0,0.0,0.0,0.0,0.0,0.0,0.0,0.0,0.0,0.0,0.0,0.0,0.0,0.0,-2.5595,-2.4069,-2.3218,-2.3096,0.0,-2.0617,-2.0509,-2.0434,-2.0346,-2.0229,-2.0159,-2.0041,-1.9926,-1.9726,-1.9541,-1.932,-1.9048,-1.8735,-1.8375,-1.7997,-1.7732,-1.7579,-1.7579,-1.728,-1.686,0.0,0.0,0.0,0.0,0.0,-3.2841,-3.3531,-3.3093,-3.2908,-3.3574,-3.3667,-3.3667,-3.3667,-3.3667,-3.3667,-3.3667,-3.3716,0.0,0.0,0.0,0.0,-3.3906,-3.3906,-3.3929,-3.3975,-3.3975,-3.3639,0.0,0.0,0.0,0.0,0.0,0.0,0.0,0.0,0.0,-2.9326,-2.9326,0.0,-2.9243,-2.924,-2.9262,-2.9326,-2.9312,-2.9373,-2.9453,-2.9569,-2.9664,-2.9717,-2.9789,-2.9825,-2.9825,-2.9842,-2.9876,-2.9945,-2.9945,-2.9943,-2.994,-2.994,-2.8757,-2.7533,-2.7533,-2.6293,-2.5101,-2.5101,-2.5101,-2.5101,-2.5101,-2.5101,-2.5101,-2.5101,0.0,0.0,0.0,0.0,0.0,0.0,0.0,0.0,0.0,0.0,0.0,0.0,0.0,0.0,0.0,0.0,0.0,0.0,0.0,0.0,0.0,-2.4598,0.0,0.0,0.0,-2.121,-2.0504,-2.0497,-2.0434,-2.0351,-2.0237,-2.0145,-2.0069,-1.9907,-1.9726,-1.9545,-1.9316,-1.8929,-1.8473,-1.8273,-1.8128,-1.8005,-1.8005,-1.7941,-1.7793,0.0,0.0,0.0,0.0,0.0,0.0,0.0,-3.3476,0.0,-3.3917,-3.3998,-3.3998,-3.3998,-3.3998,-3.3998,-3.3998,-3.4023,-3.4049,-3.4049,-3.4074,-3.4124,-3.4148,-3.4148,0.0,-3.4197,-3.4221,-3.4059,-3.3664,0.0,0.0,0.0,0.0,0.0,0.0,0.0,-2.9286,0.0,0.0,0.0,-2.92,-2.92,-2.9218,-2.9262,-2.9286,-2.933,-2.9353,-2.9453,-2.9531,-2.9608,-2.9699,-2.9754,-2.9754,-2.979,-2.9825,-2.9842,-2.9842,-2.9859,-2.9841,-2.9841,-2.8663,-2.7392,-2.7392,-2.6176,-2.4945,-2.4945,-2.4945,-2.4959,-2.4985,-2.5004,-2.5018,-2.505,-2.505,0.0,0.0,0.0,0.0,0.0,0.0,0.0,0.0,0.0,0.0,0.0,0.0,0.0,0.0,0.0,0.0,0.0,0.0,0.0,0.0,0.0,0.0,0.0,0.0,0.0,-2.1167,-2.0722,-2.0471,-2.0451,-2.0352,-2.0276,-2.02,-2.0059,-1.9922,-1.9778,-1.9485,-1.9141,-1.8789,-1.8663,-1.8551,-1.8473,-1.8471,-1.8471,-1.8393,0.0,-3.3753,0.0,0.0,-3.3671,0.0,-3.3605,-3.3605,-3.3671,-3.3895,-3.3921,-3.3921,-3.3921,-3.3921,-3.3921,-3.3921,-3.3947,-3.3972,-3.3972,-3.3998,-3.3998,-3.3998,-3.3998,-3.3998,-3.3998,-3.4049,-3.3981,0.0,0.0,0.0,0.0,0.0,0.0,0.0,0.0,0.0,0.0,0.0,-2.9156,-2.9175,-2.9175,-2.9156,-2.9178,-2.924,-2.9265,-2.9312,-2.9353,-2.9433,-2.9492,-2.9626,-2.9663,-2.9681,-2.9755,-2.979,-2.9771,-2.9771,-2.979,-2.9808,-2.9808,-2.8582,-2.7299,-2.7299,-2.6054,-2.4794,-2.4794,-2.4794,-2.4808,-2.487,-2.487,-2.4903,-2.4964,-2.4977,0.0,0.0,0.0,0.0,0.0,0.0,0.0,0.0,0.0,0.0,0.0,0.0,0.0,0.0,0.0,-2.525,-2.525,-2.5313,-2.536,0.0,0.0,-2.4367,-2.4206,0.0,-2.2213,-2.2054,-2.1375,-2.0957,-2.077,-2.0726,-2.0562,-2.0341,-2.021,-2.0084,-1.9972,-1.962,-1.9378,-1.9201,-1.9075,-1.8978,-1.8894,-1.8913,-1.8913,-1.886,0.0,0.0,0.0,0.0,0.0,0.0,-3.3605,-3.3605,-3.3605,-3.3615,-3.3633,-3.3633,-3.3633,-3.3633,-3.3671,-3.3726,-3.378,-3.3842,-3.3895,-3.3972,-3.3998,-3.3998,-3.3998,-3.3998,-3.3998,-3.3998,-3.3647,0.0,0.0,0.0,0.0,0.0,0.0,0.0,0.0,0.0,0.0,-2.9112,-2.9067,-2.9017,-2.9017,-2.9062,-2.9112,-2.913,-2.9197,-2.9304,-2.9312,-2.9353,-2.9433,-2.9492,-2.9569,-2.9626,-2.9683,-2.9719,-2.9717,-2.9717,-2.9754,-2.9808,-2.9808,-2.8582,-2.7299,-2.7299,-2.6054,-2.4794,-2.4794,-2.4794,-2.4794,-2.4808,-2.4808,-2.4842,-2.4903,-2.4917,-2.4931,0.0,0.0,0.0,0.0,0.0,0.0,0.0,0.0,0.0,0.0,0.0,0.0,0.0,0.0,-2.5125,-2.5125,-2.5179,-2.5233,-2.5233,0.0,-2.493,-2.4208,-2.4051,-2.36,-2.2898,-2.2867,-2.2445,-2.1679,-2.1677,-2.1232,-2.0467,-2.0337,-2.0176,-1.9993,-1.9831,-1.9669,-1.954,-1.9472,-1.9368,-1.9265,-1.925,-1.9253,-1.9259,0.0,0.0,0.0,0.0,0.0,0.0,0.0,-3.3298,-3.3298,-3.3298,-3.3491,-3.3605,-3.3605,-3.3605,-3.3605,-3.3633,-3.3671,-3.3698,-3.3726,-3.3753,-3.3753,-3.3753,-3.3807,-3.3595,-3.3117,-3.3176,-3.284,0.0,0.0,0.0,0.0,0.0,0.0,0.0,0.0,-2.9085,-2.904,-2.8998,-2.8952,-2.8929,-2.89,-2.8905,-2.8975,-2.9021,-2.9108,-2.9197,-2.9243,-2.9267,-2.9328,-2.9353,-2.9453,-2.955,-2.9569,-2.957,-2.9589,-2.9626,-2.9664,-2.957,-2.908,-2.8084,-2.7069,-2.6615,-2.5622,-2.4742,-2.4738,-2.4753,-2.4753,-2.4802,-2.4798,-2.4808,-2.4842,-2.487,-2.4917,0.0,0.0,0.0,0.0,0.0,0.0,0.0,0.0,0.0,0.0,0.0,0.0,0.0,0.0,0.0,-2.5032,-2.5106,-2.5153,-2.5206,0.0,-2.5149,-2.4859,-2.4378,-2.3992,-2.3708,-2.3257,-2.2874,-2.2557,-2.2045,-2.1326,-2.048,-2.0394,-2.0288,-2.0158,-2.0075,-1.9974,-1.989,-1.9783,-1.9712,-1.967,-1.9613,-1.9606,-1.9606,-3.3086,0.0,-3.3086,0.0,-3.3086,-3.3055,-3.3055,-3.3055,-3.3024,-3.3024,-3.3268,-3.3415,-3.3444,-3.3444,-3.3491,-3.352,-3.3549,-3.3549,-3.3605,-3.3605,-3.3605,-3.3605,-3.3661,0.0,-3.2474,-3.2543,-3.2107,-3.106,-3.0538,0.0,0.0,0.0,0.0,0.0,-2.8952,-2.8947,-2.8947,-2.8881,-2.8881,-2.8881,-2.881,-2.8834,-2.8881,-2.8905,-2.8994,-2.9085,-2.9112,-2.9197,-2.9262,-2.9289,-2.9372,-2.9451,-2.9492,-2.9492,-2.9512,-2.955,-2.9569,-2.9382,-2.8596,-2.7753,-2.6911,-2.6139,-2.5298,-2.4682,-2.466,-2.4676,-2.4676,-2.476,-2.4772,-2.4783,-2.4798,-2.4846,-2.4875,-2.487,0.0,0.0,0.0,0.0,0.0,0.0,-2.487,-2.4842,-2.4783,0.0,0.0,0.0,0.0,0.0,-2.494,-2.5025,0.0,0.0,0.0,0.0,0.0,-2.4725,-2.4497,-2.4556,-2.4006,-2.3636,-2.3428,-2.2316,-2.1327,-2.0508,-2.0444,-2.0398,-2.0355,-2.0296,-2.0215,-2.0145,-2.0058,-2.0012,-1.9982,-1.9933,-1.9912,-1.9901,-3.3086,-3.3086,-3.3086,-3.3086,-3.3042,-3.2979,-3.2979,-3.2948,-3.2916,-3.2916,-3.2948,-3.3042,-3.3086,-3.3117,-3.3196,-3.3411,-3.3393,-3.3452,-3.3605,-3.3605,-3.3605,0.0,0.0,-3.3222,-3.2429,-3.2411,-3.1599,-3.0013,0.0,0.0,-2.8828,0.0,-2.881,-2.881,-2.881,-2.881,-2.881,-2.8785,-2.8785,-2.8785,-2.8785,-2.8785,-2.8785,-2.881,-2.89,-2.8994,-2.9017,-2.9085,-2.92,-2.928,-2.9302,-2.9344,-2.9471,-2.9492,-2.9492,-2.9492,-2.9492,-2.9324,-2.8521,-2.7699,-2.6896,-2.6018,-2.5196,-2.4599,-2.4599,-2.4599,-2.4615,-2.4701,-2.4695,-2.4723,-2.4791,-2.4806,-2.4787,-2.4813,0.0,0.0,0.0,0.0,0.0,0.0,-2.4794,-2.4764,-2.4707,0.0,0.0,0.0,0.0,0.0,0.0,0.0,0.0,-2.501,-2.512,0.0,-2.5198,-2.5253,-2.5322,-2.5395,-2.5434,-2.5039,-2.4222,-2.2569,-2.1317,-2.0507,-2.0505,-2.051,-2.0497,-2.0426,-2.0362,-2.0307,-2.0308,-2.0255,-2.0208,-2.0208,-2.0145,-2.0112,-3.277,-3.277,-3.277,-3.277,-3.2737,-3.2737,-3.2737,-3.2705,-3.2705,-3.2705,-3.2705,-3.2737,-3.277,-3.2961,-3.3117,0.0,-3.3196,-3.3208,0.0,-3.3268,-3.3316,-3.3393,-3.2925,-3.2282,-3.1538,-3.1008,-3.0232,-2.9193,0.0,0.0,0.0,-2.8785,-2.8785,-2.8785,-2.8785,-2.8785,-2.8785,-2.8761,-2.8737,-2.8737,-2.8687,-2.8687,-2.8737,-2.8737,-2.8785,-2.8858,-2.8905,-2.8975,-2.9067,-2.9152,-2.9218,-2.9323,-2.9347,-2.9388,-2.9429,-2.9433,-2.9041,-2.8464,-2.7699,-2.6859,-2.6021,-2.5196,-2.4769,-2.4547,-2.4599,-2.4599,-2.4615,-2.4701,-2.4698,-2.4714,-2.4742,-2.4757,-2.4806,-2.4802,-2.4813,0.0,0.0,0.0,0.0,0.0,-2.4802,-2.4772,0.0,-2.4707,0.0,0.0,0.0,0.0,0.0,0.0,0.0,0.0,-2.5025,0.0,-2.5203,-2.5228,-2.5262,-2.5332,-2.5395,-2.5016,-2.4199,-2.3119,-2.2166,-2.1347,-2.0759,-2.0507,-2.0498,-2.048,-2.0461,-2.0422,-2.0398,-2.0357,-2.0351,-2.0336,-2.0324,-2.0313,-3.2606,-3.2606,-3.2606,-3.2606,-3.2573,-3.2573,-3.2573,-3.2557,-3.2523,-3.2523,-3.2557,-3.2573,-3.2573,-3.277,0.0,-3.3024,-3.3073,-3.3055,-3.3086,-3.3086,-3.3135,-3.3214,-3.2516,-3.1779,-3.0993,-3.0259,0.0,-2.8687,-2.8712,-2.8712,-2.8712,-2.8712,-2.8712,-2.8712,-2.8712,-2.8712,-2.8712,-2.8687,-2.8644,-2.8662,-2.8612,-2.8637,-2.8644,-2.8644,-2.8694,-2.8761,-2.8791,-2.8881,-2.8975,-2.904,-2.913,-2.9218,-2.928,-2.9323,-2.9365,-2.939,-2.8815,-2.7996,-2.7233,-2.6413,-2.5575,-2.4754,-2.4532,-2.4513,-2.4549,-2.4547,-2.4564,-2.4615,-2.4666,-2.4698,-2.4695,-2.4726,-2.4757,-2.4757,-2.4768,-2.4798,-2.4798,0.0,0.0,0.0,0.0,0.0,0.0,-2.4707,-2.4707,0.0,0.0,0.0,0.0,0.0,0.0,-2.4917,-2.4966,0.0,-2.5113,-2.5172,-2.5217,-2.5252,-2.5361,-2.4968,-2.414,-2.3356,-2.2542,-2.1714,-2.087,-2.0498,-2.0507,-2.0507,-2.0503,-2.0495,-2.0447,-2.0438,-2.0444,-2.0441,-2.0435,-2.0448,-3.2573,-3.2573,-3.2573,0.0,-3.2506,0.0,-3.2456,-3.2422,-3.2388,-3.2388,-3.2439,-3.2473,-3.2473,-3.2557,-3.2672,-3.2852,0.0,0.0,0.0,-3.3086,-3.3086,-3.3086,-3.2325,-3.1552,-3.0833,-3.0007,-2.925,-2.8492,-2.8562,-2.8587,-2.8587,-2.8587,-2.8587,-2.8587,-2.8587,-2.8587,-2.8587,-2.8587,-2.8587,-2.8587,-2.8587,-2.8587,-2.8587,-2.8587,-2.8637,-2.8694,-2.8694,-2.8785,-2.8905,-2.8952,-2.904,-2.913,-2.9259,-2.9265,-2.923,-2.9293,-2.87,-2.7826,-2.7046,-2.6228,-2.5448,-2.4685,-2.45,-2.45,-2.45,-2.4497,-2.4495,-2.4495,-2.4599,-2.4701,-2.4682,-2.4695,-2.4692,-2.4692,-2.4757,-2.4791,-2.4791,0.0,0.0,0.0,0.0,0.0,0.0,-2.4707,-2.4707,0.0,0.0,0.0,0.0,0.0,-2.4794,-2.4794,-2.4926,-2.4993,-2.4993,-2.5113,-2.518,-2.5191,-2.5331,-2.4955,-2.4154,-2.3345,-2.2545,-2.174,-2.0873,-2.05,-2.0506,-2.0492,-2.0502,-2.0508,-2.0508,-2.0507,-2.0504,-2.0504,-2.0502,-2.05,0.0,0.0,-3.2214,-3.2214,-3.2214,-3.2179,-3.2179,-3.2179,-3.2161,-3.2161,-3.2214,-3.2249,-3.2249,-3.2422,-3.2557,-3.259,-3.2657,-3.2737,-3.287,-3.287,-3.2934,-3.3011,-3.1751,-3.0955,-3.0815,-2.9413,-2.8604,-2.8406,-2.8484,-2.8518,-2.8518,-2.8587,-2.8587,-2.8587,-2.8587,-2.8587,-2.8587,-2.8562,-2.8518,-2.8536,-2.8458,-2.845,-2.845,-2.845,-2.8484,-2.8543,-2.8612,-2.8687,-2.8785,-2.8881,-2.8975,-2.904,-2.913,-2.8775,-2.832,-2.8402,-2.7845,-2.7009,-2.621,-2.541,-2.4741,-2.4555,-2.45,-2.45,-2.45,-2.45,-2.4498,-2.4495,-2.453,-2.4564,-2.4615,-2.4666,-2.4698,-2.4698,-2.4711,-2.4723,-2.4723,-2.4723,0.0,0.0,-2.4723,-2.4707,-2.4707,-2.4707,-2.4707,0.0,0.0,0.0,0.0,-2.4772,-2.4802,-2.4794,-2.4931,-2.5004,-2.4993,-2.5038,-2.5088,-2.5191,-2.5231,-2.5168,-2.4976,-2.3507,-2.275,-2.2527,-2.106,-2.0456,-2.0506,-2.0503,-2.0497,-2.0504,-2.0508,-2.0495,-2.05,-2.05,-2.0502,-2.0505,-3.2179,-3.2108,-3.2108,-3.2108,-3.2108,-3.2108,-3.2108,-3.2108,-3.2108,-3.2108,-3.2108,-3.2179,-3.2179,-3.2284,-3.2405,-3.2457,-3.2557,-3.2639,-3.269,-3.269,-3.2755,-3.2902,-3.1403,-3.0594,-3.0664,-2.9151,-2.8353,-2.8398,-2.8432,-2.8458,-2.8458,-2.8536,-2.8536,-2.851,-2.8536,-2.8536,-2.851,-2.8458,-2.8458,-2.8458,-2.8406,-2.8398,-2.8398,-2.8398,-2.8406,-2.8458,-2.8536,-2.8612,-2.8687,-2.8767,-2.8644,-2.8421,-2.847,-2.7988,-2.7352,-2.7043,-2.6655,-2.6265,-2.5819,-2.5113,-2.45,-2.45,-2.45,-2.45,-2.45,-2.45,-2.45,-2.4515,-2.4513,-2.4512,-2.4547,-2.4615,-2.465,-2.465,-2.4663,-2.4645,-2.4645,-2.4679,0.0,-2.4695,-2.4692,-2.4707,-2.4707,-2.4707,-2.4707,-2.4707,-2.4707,0.0,-2.4707,-2.4757,-2.4802,-2.4794,-2.4903,-2.4977,-2.4985,-2.4999,-2.5051,-2.5144,-2.5184,-2.5209,-2.5203,-2.3553,-2.2824,-2.2748,-2.112,-2.0424,-2.0458,-2.0461,-2.0472,-2.0503,-2.051,-2.0497,-2.0506,-2.0506,-2.0509,-2.055,-3.2073,-3.2073,-3.2037,-3.2037,-3.2037,-3.2037,-3.2037,-3.2037,-3.2037,-3.2037,-3.2073,-3.2108,-3.2144,-3.2179,-3.2267,-3.2354,-3.2489,-3.2573,-3.2573,-3.2573,-3.2657,-3.2773,-3.1231,-3.0409,-3.0481,-2.905,-2.83,-2.8371,-2.8398,-2.838,-2.8398,-2.8458,-2.8458,-2.8406,-2.8458,-2.8458,-2.8398,-2.838,-2.838,-2.838,-2.8353,-2.8371,-2.8371,-2.8371,-2.8371,-2.838,-2.8458,-2.851,-2.8569,-2.8517,-2.8124,-2.7652,-2.7596,-2.7074,-2.6385,-2.5762,-2.5523,-2.5504,-2.5522,-2.502,-2.45,-2.45,-2.45,-2.45,-2.45,-2.45,-2.45,-2.45,-2.4515,-2.4495,-2.4495,-2.4547,-2.458,-2.458,-2.458,-2.4599,-2.4599,0.0,-2.4701,-2.4701,-2.4695,-2.4692,-2.4707,-2.482,-2.4895,-2.4895,-2.5008,-2.5027,-2.4895,-2.4945,-2.4919,-2.4798,-2.4856,-2.4917,-2.4977,-2.4985,-2.5012,-2.5089,-2.5144,-2.518,-2.5134,-2.3505,-2.2775,-2.2695,-2.1073,-2.0386,-2.0383,-2.038,-2.042,-2.0473,-2.0473,-2.0482,-2.0472,-2.0472,-2.0569,-2.0763,-3.193,-3.1893,-3.1837,-3.1837,-3.1837,-3.1837,-3.1837,-3.1837,-3.1837,-3.1837,-3.1893,-3.1948,-3.1948,-3.2108,-3.2214,-3.2232,-3.2336,-3.2457,-3.2523,-3.2523,-3.2557,-3.2639,-3.115,-3.0348,-3.0409,-2.8984,-2.8209,-2.8237,-2.8273,-2.8327,-2.8327,-2.838,-2.8406,-2.8398,-2.8406,-2.8406,-2.8398,-2.8327,-2.8327,-2.83,-2.8264,-2.8237,-2.8237,-2.8237,-2.8264,-2.8327,-2.8327,-2.838,-2.8342,-2.7809,-2.7532,-2.7338,-2.6786,-2.6146,-2.5588,-2.5459,-2.4984,-2.4542,-2.4668,-2.4592,-2.45,-2.45,-2.45,-2.45,-2.45,-2.45,-2.45,-2.45,-2.45,-2.4517,-2.4517,-2.4497,-2.4512,-2.4512,-2.4564,-2.4599,-2.4599,0.0,-2.465,-2.4682,-2.4698,-2.4714,-2.4707,-2.5364,-2.5812,-2.5812,-2.6435,-2.651,-2.5831,-2.5812,-2.549,-2.4825,-2.4813,-2.4856,-2.4898,-2.4931,-2.494,-2.5025,-2.5038,-2.5088,-2.5134,-2.3414,-2.2652,-2.2632,-2.1004,-2.0311,-2.0314,-2.0315,-2.0366,-2.0417,-2.0417,-2.0423,-2.0423,-2.0423,-2.0849,-2.1443,-3.1671,-3.1709,-3.1709,-3.1709,-3.1746,-3.18,-3.18,-3.18,-3.18,-3.18,-3.1474,-3.1287,-3.1305,-3.1029,-3.0889,-3.0905,-3.1007,-3.1058,-3.1107,-3.1526,-3.1822,-3.1903,-3.0437,-2.9443,-2.9183,-2.8482,-2.8154,-2.8182,-2.8237,-2.8264,-2.8264,-2.83,-2.8345,-2.8291,-2.8327,-2.8345,-2.8291,-2.8264,-2.8264,-2.8237,-2.8209,-2.8182,-2.8182,-2.8182,-2.7942,-2.7602,-2.7629,-2.743,-2.7061,-2.679,-2.6447,-2.6041,-2.5746,-2.5199,-2.4663,-2.474,-2.4561,-2.4358,-2.443,-2.4465,-2.45,-2.45,-2.45,-2.45,-2.45,-2.45,-2.45,-2.45,-2.45,-2.45,-2.45,-2.4498,-2.4515,-2.4515,-2.4532,0.0,0.0,-2.4549,-2.4731,-2.5234,-2.5323,-2.5525,-2.5953,-2.6381,-2.6641,-2.6641,-2.6979,-2.7035,-2.666,-2.6244,-2.5831,-2.5452,-2.5028,-2.4808,-2.4856,-2.4856,-2.4884,-2.494,-2.4972,-2.5025,-2.505,-2.3816,-2.304,-2.2575,-2.1405,-2.0661,-2.0304,-2.0306,-2.059,-2.1055,-2.1055,-2.1311,-2.1683,-2.1683,-2.1926,-2.2315,-3.1517,-3.1538,-3.1596,-3.1596,-3.1671,-3.1726,-3.1726,-3.1763,-3.1746,-3.1746,-3.1145,-3.0714,-3.0768,-3.0127,-2.9726,-2.9776,-2.9841,-2.9889,-2.9889,-3.0357,-3.0771,-3.1012,-2.9708,-2.8694,-2.806,-2.8071,-2.8099,-2.82,-2.82,-2.8182,-2.8182,-2.8246,-2.8264,-2.8209,-2.8246,-2.8264,-2.8182,-2.8182,-2.8182,-2.8164,-2.7968,-2.7887,-2.7869,-2.7673,-2.7255,-2.6728,-2.6798,-2.6448,-2.5953,-2.5829,-2.5415,-2.4924,-2.4769,-2.4384,-2.3976,-2.4094,-2.4247,-2.4358,-2.4394,-2.4447,-2.4482,-2.45,-2.45,-2.45,-2.45,-2.45,-2.45,-2.45,-2.45,-2.45,-2.45,-2.45,-2.45,-2.45,0.0,0.0,0.0,-2.4777,-2.511,-2.5966,-2.613,-2.6425,-2.7043,-2.7339,-2.7486,-2.7486,-2.7674,-2.7693,-2.7486,-2.6885,-2.6395,-2.6019,-2.5201,-2.4779,-2.4798,-2.4798,-2.4827,-2.487,-2.4917,-2.4977,-2.4961,-2.4157,-2.345,-2.2836,-2.2028,-2.1349,-2.0828,-2.0842,-2.1251,-2.1864,-2.1864,-2.2233,-2.2784,-2.2784,-2.2901,-2.3151,-3.1517,-3.1517,-3.1517,-3.1517,-3.1517,-3.1517,-3.1517,-3.1559,-3.1617,-3.1617,-3.1072,-3.0679,-3.0732,-3.0093,-2.971,-2.971,-2.9776,-2.9824,-2.9907,-2.9327,-2.9341,-3.0141,-2.9431,-2.8664,-2.7935,-2.7986,-2.8042,-2.8099,-2.8099,-2.8126,-2.8182,-2.8209,-2.8209,-2.8182,-2.8209,-2.8209,-2.8182,-2.8182,-2.8154,-2.8027,-2.7308,-2.6952,-2.6845,-2.6136,-2.5887,-2.5885,-2.5885,-2.5864,-2.5711,-2.5088,-2.4861,-2.471,-2.4068,-2.3847,-2.3816,-2.3896,-2.4074,-2.4228,-2.4376,-2.4412,-2.443,-2.4482,-2.45,-2.45,-2.45,-2.45,-2.45,-2.45,-2.45,-2.45,-2.45,-2.45,-2.45,-2.45,0.0,0.0,-2.5503,-2.5615,-2.593,-2.6805,-2.6953,-2.7026,-2.7099,-2.7845,-2.8313,-2.8313,-2.9063,-2.9157,-2.8351,-2.8257,-2.7542,-2.6057,-2.5158,-2.4742,-2.4806,-2.4806,-2.4802,-2.4794,-2.4808,-2.4889,-2.4972,-2.4106,-2.3708,-2.3667,-2.2855,-2.2475,-2.2448,-2.2498,-2.2556,-2.2623,-2.2623,-2.2661,-2.2718,-2.2718,-2.3176,-2.3823,-3.1308,-3.1346,-3.1368,-3.1368,-3.1462,-3.1517,-3.1517,-3.15,-3.1559,-3.1579,-3.0623,-2.9902,-2.9955,-2.8902,-2.8209,-2.8209,-2.8256,-2.832,-2.8352,-2.8136,-2.8194,-2.8596,-2.8346,-2.8094,-2.7906,-2.7917,-2.7957,-2.8042,-2.8042,-2.8071,-2.8126,-2.8126,-2.8154,-2.8182,-2.8154,-2.8126,-2.8126,-2.8099,-2.7786,-2.728,-2.696,-2.6543,-2.61,-2.5799,-2.5417,-2.4992,-2.4992,-2.4655,-2.4218,-2.4005,-2.3963,-2.3955,-2.3741,-2.37,-2.3768,-2.3834,-2.3976,-2.417,-2.4247,-2.4321,-2.4339,-2.4375,-2.4412,-2.4447,-2.4447,-2.4465,-2.45,-2.45,-2.45,-2.45,-2.45,-2.45,-2.45,-2.45,0.0,-2.5355,-2.5671,-2.6135,-2.6749,-2.7586,-2.7736,-2.7979,-2.854,-2.8914,-2.9158,-2.9213,-2.9514,-2.9551,-2.9232,-2.8688,-2.7674,-2.6057,-2.5681,-2.5268,-2.4742,-2.4742,-2.4757,-2.4802,-2.4802,-2.4832,-2.487,-2.4535,-2.416,-2.3714,-2.3404,-2.3015,-2.2596,-2.2637,-2.2963,-2.3443,-2.3443,-2.3747,-2.4183,-2.414,-2.4326,-2.4569,-3.1151,-3.1213,-3.1274,-3.1274,-3.1329,-3.1402,-3.1402,-3.1423,-3.1445,-3.1504,-3.024,-2.935,-2.9455,-2.8146,-2.725,-2.7299,-2.7362,-2.7376,-2.7407,-2.7452,-2.7539,-2.7642,-2.7701,-2.7748,-2.7842,-2.7842,-2.7871,-2.7957,-2.7957,-2.8014,-2.8071,-2.8071,-2.8099,-2.8126,-2.8099,-2.8071,-2.8053,-2.7748,-2.7295,-2.6737,-2.6242,-2.5729,-2.5234,-2.4961,-2.4562,-2.4102,-2.4102,-2.3749,-2.3313,-2.336,-2.3383,-2.3453,-2.3539,-2.3629,-2.3703,-2.3792,-2.3896,-2.4034,-2.4113,-2.419,-2.4247,-2.4284,-2.4339,-2.4376,-2.4376,-2.4393,-2.4447,-2.4447,-2.4447,-2.4429,-2.4465,-2.4465,-2.4575,-2.4834,-2.5336,-2.5875,-2.6377,-2.6935,-2.7585,-2.8422,-2.8535,-2.8817,-2.9416,-2.955,-2.9607,-2.9683,-2.9701,-2.9701,-2.9701,-2.8876,-2.79,-2.6793,-2.6214,-2.5651,-2.5054,-2.4826,-2.4711,-2.4745,-2.476,-2.4772,-2.4764,-2.4798,-2.4525,-2.4052,-2.4066,-2.3796,-2.3358,-2.3351,-2.3717,-2.4255,-2.4255,-2.4574,-2.5032,-2.4987,-2.4966,-2.4931,-3.1015,-3.1112,-3.119,-3.119,-3.119,-3.119,-3.119,-3.1252,-3.1295,-3.1295,-3.006,-2.9263,-2.9368,-2.8029,-2.7152,-2.7282,-2.7299,-2.733,-2.7376,-2.7452,-2.7526,-2.7587,-2.7642,-2.7701,-2.7701,-2.7701,-2.7748,-2.7888,-2.7888,-2.7946,-2.8014,-2.8014,-2.8014,-2.8014,-2.8014,-2.8014,-2.7943,-2.7136,-2.6755,-2.6531,-2.5041,-2.4355,-2.4216,-2.34,-2.3144,-2.3193,-2.3193,-2.3241,-2.3289,-2.3289,-2.3289,-2.3313,-2.3471,-2.3589,-2.3721,-2.3792,-2.3795,-2.3816,-2.3958,-2.4054,-2.4133,-2.4247,-2.4284,-2.4284,-2.4284,-2.4284,-2.4284,-2.4284,-2.4284,-2.4321,-2.4394,-2.4394,-2.4689,-2.556,-2.5708,-2.6284,-2.7863,-2.8104,-2.844,-2.9314,-2.939,-2.9412,-2.9412,-2.9511,-2.9607,-2.9607,-2.9645,-2.9701,-2.9701,-2.8895,-2.8409,-2.839,-2.6708,-2.5831,-2.5813,-2.5078,-2.4666,-2.4599,-2.4666,-2.4698,-2.4707,-2.4757,-2.4802,-2.4794,-2.487,-2.4931,-2.501,-2.4999,-2.4993,-2.4993,-2.4993,-2.4953,-2.4898,-2.4898,-2.4861,-2.4806,-3.0952,-3.0952,-3.0992,-3.0992,-3.1032,-3.1055,-3.1055,-3.1134,-3.1065,-3.0598,-2.9697,-2.897,-2.8545,-2.7621,-2.7055,-2.7152,-2.7152,-2.7233,-2.7313,-2.7376,-2.7438,-2.7469,-2.7526,-2.7569,-2.7569,-2.76,-2.7647,-2.7694,-2.7736,-2.7824,-2.7917,-2.7917,-2.7957,-2.8014,-2.7946,-2.7628,-2.7081,-2.6767,-2.6018,-2.498,-2.4523,-2.397,-2.3435,-2.3207,-2.3119,-2.3144,-2.3144,-2.3126,-2.3168,-2.3217,-2.3241,-2.3241,-2.3336,-2.3453,-2.3544,-2.3571,-2.37,-2.381,-2.3855,-2.3917,-2.3996,-2.4133,-2.4191,-2.4229,-2.4229,-2.4266,-2.4284,-2.4284,-2.4284,-2.4321,-2.4321,-2.4339,-2.4598,-2.543,-2.6079,-2.6839,-2.7877,-2.8604,-2.9109,-2.937,-2.9388,-2.939,-2.9392,-2.9433,-2.9491,-2.9531,-2.955,-2.9569,-2.9569,-2.9307,-2.8914,-2.8353,-2.783,-2.7252,-2.6581,-2.5291,-2.4615,-2.4599,-2.4615,-2.4631,-2.4629,-2.4647,-2.4695,-2.4738,-2.4753,-2.4798,-2.4856,-2.487,-2.487,-2.487,-2.4861,-2.4846,-2.4817,-2.4776,-2.4745,-2.4714,-3.0831,-3.0871,-3.0912,-3.0912,-3.0935,-3.0935,-3.0935,-3.078,-3.0521,-3.0087,-2.9178,-2.842,-2.8015,-2.7351,-2.6975,-2.7038,-2.7055,-2.712,-2.7201,-2.7264,-2.7296,-2.7362,-2.739,-2.7452,-2.7496,-2.7526,-2.7557,-2.7557,-2.76,-2.7659,-2.7724,-2.7754,-2.7813,-2.7836,-2.7525,-2.7109,-2.6616,-2.5973,-2.5138,-2.4269,-2.3944,-2.3523,-2.3095,-2.3095,-2.3095,-2.3095,-2.3095,-2.3095,-2.3119,-2.3144,-2.3193,-2.3217,-2.3241,-2.3336,-2.3424,-2.3453,-2.3585,-2.3696,-2.3703,-2.3789,-2.3873,-2.3955,-2.4037,-2.4115,-2.4115,-2.4153,-2.4172,-2.4172,-2.4191,-2.4228,-2.4247,-2.4524,-2.5041,-2.5854,-2.6705,-2.7557,-2.8352,-2.895,-2.9326,-2.9326,-2.9326,-2.9347,-2.9349,-2.9372,-2.9433,-2.9492,-2.9492,-2.9492,-2.9453,-2.9453,-2.9189,-2.8722,-2.8367,-2.7899,-2.7338,-2.6061,-2.5262,-2.4963,-2.4681,-2.4549,-2.4566,-2.4582,-2.4613,-2.466,-2.466,-2.4692,-2.4791,-2.5095,-2.5227,-2.5227,-2.5249,-2.5233,-2.5145,-2.476,-2.4634,-2.4601,-3.0692,-3.079,-3.0871,-3.0871,-3.0871,-3.0838,-3.0771,-3.0218,-2.975,-2.9616,-2.8485,-2.7702,-2.7705,-2.7182,-2.6893,-2.6975,-2.6975,-2.704,-2.7103,-2.7103,-2.7152,-2.7267,-2.725,-2.7345,-2.7434,-2.7465,-2.7496,-2.7496,-2.7496,-2.7496,-2.7496,-2.7557,-2.7587,-2.7552,-2.6889,-2.6549,-2.6374,-2.491,-2.4243,-2.4102,-2.3375,-2.3095,-2.3095,-2.3095,-2.3095,-2.3095,-2.3095,-2.3095,-2.3077,-2.3095,-2.3144,-2.3193,-2.3193,-2.3241,-2.3313,-2.336,-2.3448,-2.3494,-2.3562,-2.3674,-2.3765,-2.3771,-2.3876,-2.3976,-2.3996,-2.3996,-2.3996,-2.3996,-2.4054,-2.4113,-2.417,-2.489,-2.5738,-2.6534,-2.7421,-2.827,-2.9067,-2.92,-2.92,-2.92,-2.9262,-2.9302,-2.9302,-2.9349,-2.9412,-2.9472,-2.9472,-2.9453,-2.9392,-2.9332,-2.9289,-2.9302,-2.8516,-2.8104,-2.8083,-2.7235,-2.6386,-2.5614,-2.4986,-2.4705,-2.4705,-2.4773,-2.4787,-2.4806,-2.4806,-2.4839,-2.4947,-2.5695,-2.5978,-2.5978,-2.5978,-2.5942,-2.5778,-2.4905,-2.4591,-2.4575,-3.0459,-3.0526,-3.0609,-3.0609,-3.0692,-3.0549,-2.9949,-2.9844,-2.9381,-2.8246,-2.7794,-2.7427,-2.684,-2.6655,-2.664,-2.6742,-2.6892,-2.7007,-2.7007,-2.704,-2.704,-2.704,-2.7057,-2.7089,-2.7105,-2.7296,-2.7438,-2.7438,-2.7465,-2.7496,-2.7496,-2.7526,-2.7526,-2.7491,-2.6772,-2.6092,-2.5429,-2.4531,-2.3772,-2.3196,-2.2997,-2.2927,-2.2927,-2.2927,-2.2927,-2.2927,-2.2927,-2.2927,-2.2944,-2.3003,-2.307,-2.3119,-2.3119,-2.3168,-2.3217,-2.3241,-2.3289,-2.336,-2.3424,-2.3453,-2.3499,-2.3611,-2.3674,-2.3743,-2.3955,-2.3996,-2.3996,-2.3996,-2.4016,-2.4016,-2.4036,-2.4712,-2.5536,-2.6387,-2.7255,-2.8125,-2.9001,-2.9156,-2.92,-2.92,-2.92,-2.9218,-2.9218,-2.9222,-2.9243,-2.9265,-2.9265,-2.9265,-2.9243,-2.9243,-2.9222,-2.9218,-2.9052,-2.8894,-2.8782,-2.7956,-2.7172,-2.6443,-2.6297,-2.6205,-2.6224,-2.6244,-2.6263,-2.6321,-2.6321,-2.6358,-2.6451,-2.6619,-2.6693,-2.6693,-2.6637,-2.6599,-2.6488,-2.5597,-2.5282,-2.519,-3.0316,-3.0316,-3.0359,-3.0359,-3.0401,-3.0237,-2.9566,-2.9208,-2.8671,-2.7598,-2.7183,-2.6835,-2.6432,-2.645,-2.652,-2.6589,-2.6708,-2.6775,-2.6859,-2.6859,-2.6892,-2.6992,-2.7007,-2.7007,-2.7007,-2.7154,-2.7201,-2.7264,-2.7359,-2.739,-2.739,-2.7452,-2.7243,-2.6857,-2.6138,-2.5401,-2.4617,-2.3841,-2.3284,-2.2893,-2.2893,-2.2893,-2.2893,-2.2893,-2.2893,-2.2893,-2.2893,-2.2893,-2.2919,-2.2944,-2.2995,-2.3003,-2.3003,-2.3045,-2.307,-2.307,-2.3102,-2.3168,-2.3193,-2.3265,-2.3336,-2.3448,-2.3494,-2.3585,-2.3789,-2.3852,-2.3852,-2.3852,-2.3876,-2.4005,-2.4405,-2.5175,-2.606,-2.6885,-2.773,-2.8429,-2.8897,-2.8975,-2.9021,-2.9067,-2.9108,-2.9112,-2.9178,-2.92,-2.9178,-2.9156,-2.9156,-2.9112,-2.9067,-2.9067,-2.9044,-2.9021,-2.9021,-2.8975,-2.8923,-2.8484,-2.8086,-2.7691,-2.7004,-2.6638,-2.6638,-2.668,-2.672,-2.6742,-2.6742,-2.6742,-2.6779,-2.7204,-2.737,-2.7329,-2.729,-2.7269,-2.7122,-2.5884,-2.5127,-2.4722,-3.0146,-3.0189,-3.0189,-3.0189,-3.0091,-2.9805,-2.9181,-2.8458,-2.7773,-2.7143,-2.6587,-2.6225,-2.626,-2.6399,-2.6485,-2.6485,-2.6485,-2.6537,-2.6674,-2.6674,-2.6759,-2.6909,-2.6909,-2.6909,-2.6942,-2.6942,-2.699,-2.707,-2.7201,-2.7267,-2.725,-2.7313,-2.6913,-2.613,-2.5426,-2.4708,-2.3962,-2.318,-2.2868,-2.2868,-2.2868,-2.2868,-2.2868,-2.2868,-2.2868,-2.2868,-2.2868,-2.285,-2.2876,-2.2876,-2.2893,-2.2893,-2.2893,-2.2893,-2.2893,-2.2893,-2.2944,-2.2977,-2.2977,-2.3052,-2.3168,-2.3241,-2.3289,-2.3383,-2.3567,-2.3656,-2.3678,-2.3678,-2.3855,-2.4172,-2.4842,-2.5814,-2.6777,-2.745,-2.8233,-2.8761,-2.8785,-2.8785,-2.881,-2.8881,-2.8929,-2.8998,-2.9112,-2.9134,-2.9112,-2.9044,-2.9044,-2.8998,-2.8881,-2.8881,-2.8858,-2.881,-2.8785,-2.8785,-2.8785,-2.8785,-2.8785,-2.8743,-2.7547,-2.6973,-2.6973,-2.704,-2.7064,-2.7064,-2.7064,-2.7043,-2.7037,-2.7754,-2.8026,-2.7981,-2.7981,-2.7981,-2.7757,-2.6085,-2.4928,-2.4158,-3.0017,-3.0103,-3.0189,-3.0189,-2.9665,-2.9009,-2.8272,-2.7607,-2.6902,-2.6163,-2.602,-2.599,-2.601,-2.6189,-2.633,-2.633,-2.6434,-2.652,-2.652,-2.652,-2.6554,-2.6554,-2.6554,-2.6589,-2.664,-2.6708,-2.6808,-2.7007,-2.704,-2.704,-2.704,-2.704,-2.6678,-2.5908,-2.512,-2.435,-2.3613,-2.2914,-2.2632,-2.2632,-2.2712,-2.2738,-2.2738,-2.2738,-2.2738,-2.2738,-2.2738,-2.2764,-2.2816,-2.2816,-2.2868,-2.2893,-2.2893,-2.2893,-2.2893,-2.2893,-2.2919,-2.2902,-2.2902,-2.2944,-2.297,-2.3003,-2.3045,-2.3077,-2.3223,-2.3453,-2.3607,-2.3607,-2.4172,-2.4703,-2.481,-2.6075,-2.7144,-2.7308,-2.8062,-2.8637,-2.8712,-2.8761,-2.881,-2.881,-2.881,-2.8834,-2.8858,-2.8858,-2.8858,-2.8834,-2.8834,-2.8834,-2.881,-2.881,-2.881,-2.8785,-2.8785,-2.8761,-2.8718,-2.8718,-2.8669,-2.8637,-2.8476,-2.8458,-2.8481,-2.8505,-2.8523,-2.8523,-2.8523,-2.8505,-2.8523,-2.8633,-2.8669,-2.8646,-2.8646,-2.8646,-2.8463,-2.6777,-2.5623,-2.4777,-2.9946,-2.9989,-3.0033,-3.0033,-2.943,-2.8714,-2.8037,-2.732,-2.664,-2.5995,-2.5897,-2.5917,-2.5954,-2.6026,-2.6099,-2.6099,-2.617,-2.6258,-2.631,-2.6364,-2.6434,-2.6485,-2.6485,-2.652,-2.6554,-2.6572,-2.664,-2.6725,-2.6926,-2.7007,-2.7007,-2.7007,-2.6375,-2.5197,-2.4855,-2.4069,-2.2976,-2.2679,-2.2525,-2.2542,-2.2596,-2.2579,-2.2579,-2.2579,-2.2579,-2.2579,-2.2579,-2.2623,-2.2632,-2.2632,-2.2659,-2.2685,-2.2685,-2.2685,-2.2685,-2.2685,-2.2685,-2.2685,-2.2685,-2.2712,-2.2738,-2.2764,-2.2842,-2.2902,-2.2952,-2.3435,-2.3925,-2.4064,-2.4421,-2.495,-2.5875,-2.6634,-2.7312,-2.7821,-2.8224,-2.8484,-2.8536,-2.8562,-2.8612,-2.8687,-2.8761,-2.8785,-2.8785,-2.8785,-2.8761,-2.8687,-2.8687,-2.8662,-2.8587,-2.8562,-2.8562,-2.8562,-2.8562,-2.8562,-2.8536,-2.8536,-2.851,-2.8484,-2.851,-2.8612,-2.8761,-2.8785,-2.8785,-2.8743,-2.8743,-2.8712,-2.8619,-2.8619,-2.8612,-2.8562,-2.8562,-2.8316,-2.7802,-2.7097,-2.6249,-2.5391]},{"header":{"parameterUnit":"m.s-1","parameterCategory":1,"la1":30.6,"la2":28.766,"lo1":-90.7593,"lo2":-88.6598,"dy":0.0162,"dx":0.0183,"nx":116,"ny":114,"refTime":"2023-03-05T18:00:00:Z","depth":0,"parameterNumber":3,"parameterNumberName":"V-component_of_WINDS"},"data":[0.0,0.0,0.0,0.0,0.0,0.0,0.0,0.0,0.0,0.0,0.0,0.0,0.0,0.0,0.0,0.0,0.0,0.0,0.0,0.0,0.0,0.0,0.0,0.0,0.0,0.0,0.0,0.0,0.0,0.0,0.0,0.0,0.0,0.0,0.0,0.0,0.0,0.0,0.0,0.0,0.0,0.0,0.0,0.0,0.0,0.0,0.0,0.0,0.0,0.0,0.0,0.0,0.0,0.0,0.0,0.0,0.0,0.0,0.0,0.0,0.0,0.0,0.0,0.0,0.0,0.0,0.0,0.0,0.0,0.0,0.0,0.0,0.0,0.0,0.0,0.0,0.0,0.0,0.0,0.0,0.0,0.0,0.0,0.0,0.0,0.0,0.0,0.0,0.0,0.0,0.0,0.0,0.0,0.0,0.0,0.0,0.0,0.0,0.0,0.0,0.0,0.0,0.0,0.0,0.0,0.0,0.0,0.0,0.0,0.0,0.0,0.0,0.0,0.0,0.0,0.0,0.0,0.0,0.0,0.0,0.0,0.0,0.0,0.0,0.0,0.0,0.0,0.0,0.0,0.0,0.0,0.0,0.0,0.0,0.0,0.0,0.0,0.0,0.0,0.0,0.0,0.0,0.0,0.0,0.0,0.0,0.0,0.0,0.0,0.0,0.0,0.0,0.0,0.0,0.0,0.0,0.0,0.0,0.0,0.0,0.0,0.0,0.0,0.0,0.0,0.0,0.0,0.0,0.0,0.0,0.0,0.0,0.0,0.0,0.0,0.0,0.0,0.0,0.0,0.0,0.0,0.0,0.0,0.0,0.0,0.0,0.0,0.0,0.0,0.0,0.0,0.0,0.0,0.0,0.0,0.0,0.0,0.0,0.0,0.0,0.0,0.0,0.0,0.0,0.0,0.0,0.0,0.0,0.0,0.0,0.0,0.0,0.0,0.0,0.0,0.0,0.0,0.0,0.0,0.0,0.0,0.0,0.0,0.0,0.0,0.0,0.0,0.0,0.0,0.0,0.0,0.0,0.0,0.0,0.0,0.0,0.0,0.0,0.0,0.0,0.0,0.0,0.0,0.0,0.0,0.0,0.0,0.0,0.0,0.0,0.0,0.0,0.0,0.0,0.0,0.0,0.0,0.0,0.0,0.0,0.0,0.0,0.0,0.0,0.0,0.0,0.0,0.0,0.0,0.0,0.0,0.0,0.0,0.0,0.0,0.0,0.0,0.0,0.0,0.0,0.0,0.0,0.0,0.0,0.0,0.0,0.0,0.0,0.0,0.0,0.0,0.0,0.0,0.0,0.0,0.0,0.0,0.0,0.0,0.0,0.0,0.0,0.0,0.0,0.0,0.0,0.0,0.0,0.0,0.0,0.0,0.0,0.0,0.0,0.0,0.0,0.0,0.0,0.0,0.0,0.0,0.0,0.0,0.0,0.0,0.0,0.0,0.0,0.0,0.0,0.0,0.0,0.0,0.0,0.0,0.0,0.0,0.0,0.0,0.0,0.0,0.0,0.0,0.0,0.0,0.0,0.0,0.0,0.0,0.0,0.0,0.0,0.0,0.0,0.0,0.0,0.0,0.0,0.0,0.0,0.0,0.0,0.0,0.0,0.0,0.0,0.0,0.0,0.0,0.0,0.0,0.0,0.0,0.0,0.0,0.0,0.0,0.0,0.0,0.0,0.0,0.0,0.0,0.0,0.0,0.0,0.0,0.0,0.0,0.0,0.0,0.0,0.0,0.0,0.0,0.0,0.0,0.0,0.0,0.0,0.0,0.0,0.0,0.0,0.0,0.0,0.0,0.0,0.0,0.0,0.0,0.0,0.0,0.0,0.0,0.0,0.0,0.0,0.0,0.0,0.0,0.0,0.0,0.0,0.0,0.0,0.0,0.0,0.0,0.0,0.0,0.0,0.0,0.0,0.0,0.0,0.0,0.0,0.0,0.0,0.0,0.0,0.0,0.0,0.0,0.0,0.0,0.0,0.0,0.0,0.0,0.0,0.0,0.0,0.0,0.0,0.0,0.0,0.0,0.0,0.0,0.0,0.0,0.0,0.0,0.0,0.0,0.0,0.0,0.0,0.0,0.0,0.0,0.0,0.0,0.0,0.0,0.0,0.0,0.0,0.0,0.0,0.0,0.0,0.0,0.0,0.0,0.0,0.0,0.0,0.0,0.0,0.0,0.0,0.0,0.0,0.0,0.0,0.0,0.0,0.0,0.0,0.0,0.0,0.0,0.0,0.0,0.0,0.0,0.0,0.0,0.0,0.0,0.0,0.0,0.0,0.0,0.0,0.0,0.0,0.0,0.0,0.0,0.0,0.0,0.0,0.0,0.0,0.0,0.0,0.0,0.0,0.0,0.0,0.0,0.0,0.0,0.0,0.0,0.0,0.0,0.0,0.0,0.0,0.0,0.0,0.0,0.0,0.0,0.0,0.0,0.0,0.0,0.0,0.0,0.0,0.0,0.0,0.0,0.0,0.0,0.0,0.0,0.0,0.0,0.0,0.0,0.0,0.0,0.0,0.0,0.0,0.0,0.0,0.0,0.0,0.0,0.0,0.0,0.0,0.0,0.0,0.0,0.0,0.0,0.0,0.0,0.0,0.0,0.0,0.0,0.0,0.0,0.0,0.0,0.0,0.0,0.0,0.0,0.0,0.0,0.0,0.0,0.0,0.0,0.0,0.0,0.0,0.0,0.0,0.0,0.0,0.0,0.0,0.0,0.0,0.0,0.0,0.0,0.0,0.0,0.0,0.0,0.0,0.0,0.0,0.0,0.0,0.0,0.0,0.0,0.0,0.0,0.0,0.0,0.0,0.0,0.0,0.0,0.0,0.0,0.0,0.0,0.0,0.0,0.0,0.0,0.0,0.0,0.0,0.0,0.0,0.0,0.0,0.0,0.0,0.0,0.0,0.0,0.0,0.0,0.0,0.0,0.0,0.0,0.0,0.0,0.0,0.0,0.0,0.0,0.0,0.0,0.0,0.0,0.0,0.0,0.0,0.0,0.0,0.0,0.0,0.0,0.0,0.0,0.0,0.0,0.0,0.0,0.0,0.0,0.0,0.0,0.0,0.0,0.0,0.0,0.0,0.0,0.0,0.0,0.0,0.0,0.0,0.0,0.0,0.0,0.0,0.0,0.0,0.0,0.0,0.0,0.0,0.0,0.0,0.0,0.0,0.0,0.0,0.0,0.0,0.0,0.0,0.0,0.0,0.0,0.0,0.0,0.0,0.0,0.0,0.0,0.0,0.0,0.0,0.0,0.0,0.0,0.0,0.0,0.0,0.0,0.0,0.0,0.0,0.0,0.0,0.0,0.0,0.0,0.0,0.0,0.0,0.0,0.0,0.0,0.0,0.0,0.0,0.0,0.0,0.0,0.0,0.0,0.0,0.0,0.0,0.0,0.0,0.0,0.0,0.0,0.0,0.0,0.0,0.0,0.0,0.0,0.0,0.0,0.0,0.0,0.0,0.0,0.0,0.0,0.0,0.0,0.0,0.0,0.0,0.0,0.0,0.0,0.0,0.0,0.0,0.0,0.0,0.0,0.0,0.0,0.0,0.0,0.0,0.0,0.0,0.0,0.0,0.0,0.0,0.0,0.0,0.0,0.0,0.0,0.0,0.0,0.0,0.0,0.0,0.0,0.0,0.0,0.0,0.0,0.0,0.0,0.0,0.0,0.0,0.0,0.0,0.0,0.0,0.0,0.0,0.0,0.0,0.0,0.0,0.0,0.0,0.0,0.0,0.0,0.0,0.0,0.0,0.0,0.0,0.0,0.0,0.0,0.0,0.0,0.0,0.0,0.0,0.0,0.0,0.0,0.0,0.0,0.0,0.0,0.0,0.0,0.0,0.0,0.0,0.0,0.0,0.0,0.0,0.0,0.0,0.0,0.0,0.0,0.0,0.0,0.0,0.0,0.0,0.0,0.0,0.0,0.0,0.0,0.0,0.0,0.0,0.0,0.0,0.0,0.0,0.0,0.0,0.0,0.0,0.0,0.0,0.0,0.0,0.0,0.0,0.0,0.0,0.0,0.0,0.0,0.0,0.0,0.0,0.0,0.0,0.0,0.0,0.0,0.0,0.0,0.0,0.0,0.0,0.0,0.0,0.0,0.0,0.0,0.0,0.0,0.0,0.0,0.0,0.0,0.0,0.0,0.0,0.0,0.0,0.0,0.0,0.0,0.0,0.0,0.0,0.0,0.0,0.0,0.0,0.0,0.0,0.0,0.0,0.0,0.0,0.0,0.0,0.0,0.0,0.0,0.0,0.0,0.0,0.0,0.0,0.0,0.0,0.0,0.0,0.0,0.0,0.0,0.0,0.0,0.0,0.0,0.0,0.0,0.0,0.0,0.0,0.0,0.0,0.0,0.0,0.0,0.0,0.0,0.0,0.0,0.0,0.0,0.0,0.0,0.0,0.0,0.0,0.0,0.0,0.0,0.0,0.0,0.0,0.0,0.0,0.0,0.0,0.0,0.0,0.0,0.0,0.0,0.0,0.0,0.0,0.0,0.0,0.0,0.0,0.0,0.0,0.0,0.0,0.0,0.0,0.0,0.0,0.0,0.0,0.0,0.0,0.0,0.0,0.0,0.0,0.0,0.0,0.0,0.0,0.0,0.0,0.0,0.0,0.0,0.0,0.0,0.0,0.0,0.0,0.0,0.0,0.0,0.0,0.0,0.0,0.0,0.0,0.0,0.0,0.0,0.0,0.0,0.0,0.0,0.0,0.0,0.0,0.0,0.0,0.0,0.0,0.0,0.0,0.0,0.0,0.0,0.0,0.0,0.0,0.0,0.0,0.0,0.0,0.0,0.0,0.0,0.0,0.0,0.0,0.0,0.0,0.0,0.0,0.0,0.0,0.0,0.0,0.0,0.0,0.0,0.0,0.0,0.0,0.0,0.0,0.0,0.0,0.0,0.0,0.0,0.0,0.0,0.0,0.0,0.0,0.0,0.0,0.0,0.0,0.0,0.0,0.0,0.0,0.0,0.0,0.0,0.0,0.0,0.0,0.0,0.0,0.0,0.0,0.0,0.0,0.0,0.0,0.0,0.0,0.0,0.0,0.0,0.0,0.0,0.0,0.0,0.0,0.0,0.0,0.0,0.0,0.0,0.0,0.0,0.0,0.0,0.0,0.0,0.0,0.0,0.0,0.0,0.0,0.0,0.0,0.0,0.0,0.0,0.0,0.0,0.0,0.0,0.0,0.0,0.0,0.0,0.0,0.0,0.0,0.0,0.0,0.0,0.0,0.0,0.0,0.0,0.0,0.0,0.0,0.0,0.0,0.0,0.0,0.0,0.0,0.0,0.0,0.0,0.0,0.0,0.0,0.0,0.0,0.0,0.0,0.0,0.0,0.0,0.0,0.0,0.0,0.0,0.0,0.0,0.0,0.0,0.0,0.0,0.0,0.0,0.0,0.0,0.0,0.0,0.0,0.0,0.0,0.0,0.0,0.0,0.0,0.0,0.0,0.0,0.0,0.0,0.0,0.0,0.0,0.0,0.0,0.0,0.0,0.0,0.0,0.0,0.0,0.0,0.0,0.0,0.0,0.0,0.0,0.0,0.0,0.0,0.0,0.0,0.0,0.0,0.0,0.0,0.0,0.0,0.0,0.0,0.0,0.0,0.0,0.0,0.0,0.0,0.0,0.0,0.0,0.0,0.0,0.0,0.0,0.0,0.0,0.0,0.0,0.0,0.0,0.0,0.0,0.0,0.0,0.0,0.0,0.0,0.0,0.0,0.0,0.0,0.0,0.0,0.0,0.0,0.0,0.0,0.0,0.0,0.0,0.0,0.0,0.0,0.0,0.0,0.0,0.0,0.0,0.0,0.0,0.0,0.0,0.0,0.0,0.0,0.0,0.0,0.0,0.0,0.0,0.0,0.0,0.0,0.0,0.0,0.0,0.0,0.0,0.0,0.0,0.0,0.0,0.0,0.0,0.0,0.0,0.0,0.0,0.0,0.0,0.0,0.0,0.0,0.0,0.0,0.0,0.0,0.0,0.0,0.0,0.0,0.0,0.0,0.0,0.0,0.0,0.0,0.0,0.0,0.0,0.0,0.0,0.0,0.0,0.0,0.0,0.0,0.0,0.0,0.0,0.0,0.0,-0.7027,0.0,0.0,0.0,0.0,0.0,0.0,0.0,0.0,0.0,0.0,0.0,0.0,0.0,0.0,0.0,0.0,0.0,0.0,0.0,0.0,0.0,0.0,0.0,0.0,0.0,0.0,0.0,0.0,0.0,0.0,0.0,0.0,0.0,0.0,0.0,0.0,0.0,0.0,0.0,0.0,0.0,0.0,0.0,0.0,0.0,0.0,0.0,0.0,0.0,0.0,0.0,0.0,0.0,0.0,0.0,0.0,0.0,0.0,0.0,0.0,0.0,0.0,0.0,0.0,0.0,0.0,0.0,0.0,0.0,0.0,0.0,0.0,0.0,0.0,0.0,0.0,0.0,0.0,0.0,0.0,0.0,0.0,0.0,0.0,0.0,0.0,0.0,0.0,0.0,0.0,0.0,0.0,0.0,0.0,0.0,0.0,0.0,0.0,0.0,0.0,0.0,0.0,0.0,0.0,0.0,0.0,0.0,0.0,0.0,0.0,0.0,0.0,0.0,0.0,0.0,0.0,-0.7112,0.0,0.0,0.0,0.0,0.0,0.0,0.0,0.0,0.0,0.0,0.0,0.0,0.0,0.0,0.0,0.0,0.0,0.0,0.0,0.0,0.0,0.0,0.0,0.0,0.0,0.0,0.0,0.0,0.0,0.0,0.0,0.0,0.0,0.0,0.0,0.0,0.0,0.0,0.0,0.0,0.0,0.0,0.0,0.0,0.0,0.0,0.0,0.0,0.0,0.0,0.0,0.0,0.0,0.0,0.0,0.0,0.0,0.0,0.0,0.0,0.0,0.0,0.0,0.0,0.0,0.0,0.0,0.0,0.0,0.0,0.0,0.0,0.0,0.0,0.0,0.0,0.0,0.0,0.0,0.0,0.0,0.0,0.0,0.0,0.0,0.0,0.0,0.0,0.0,0.0,0.0,0.0,0.0,0.0,0.0,0.0,0.0,0.0,0.0,0.0,0.0,0.0,0.0,0.0,0.0,0.0,0.0,0.0,-0.6404,-0.6751,-0.6878,-0.7047,-0.7209,-0.7328,-0.7328,-0.7202,-0.6985,-0.6532,0.0,0.0,0.0,0.0,0.0,0.0,0.0,0.0,0.0,0.0,0.0,0.0,0.0,0.0,0.0,0.0,0.0,0.0,0.0,0.0,0.0,0.0,0.0,0.0,0.0,0.0,0.0,0.0,0.0,0.0,0.0,0.0,0.0,0.0,0.0,0.0,0.0,0.0,-0.3517,-0.37,-0.4012,-0.4324,-0.3755,0.0,0.0,0.0,0.0,0.0,0.0,0.0,0.0,0.0,0.0,0.0,0.0,0.0,0.0,0.0,0.0,0.0,0.0,0.0,0.0,0.0,0.0,0.0,0.0,0.0,0.0,0.0,0.0,0.0,0.0,0.0,0.0,0.0,0.0,0.0,0.0,0.0,0.0,0.0,0.0,0.0,0.0,0.0,0.0851,0.0403,0.0,0.0,0.0,0.0,0.0,0.0,0.0,0.0,0.0,0.0,0.0,0.0,0.0,-0.3718,-0.4408,-0.5009,-0.5529,-0.5976,-0.6355,-0.6617,-0.6708,-0.6878,-0.6956,-0.6956,-0.6956,0.0,-0.6937,-0.6435,0.0,0.0,0.0,0.0,0.0,0.0,0.0,0.0,0.0,0.0,0.0,0.0,0.0,0.0,0.0,0.0,0.0,0.0,0.0,0.0,0.0,0.0,0.0,0.0,0.0,0.0,0.0,0.0,0.0,0.0,0.0,0.0,0.0,0.0,0.0,0.0,-0.3128,-0.3651,-0.4058,-0.4477,-0.4854,-0.5087,-0.49,-0.4554,-0.4236,-0.3976,0.0,0.0,0.0,0.0,0.0,0.0,0.0,0.0,0.0,0.0,0.0,0.0,0.0,0.0,0.0,0.0,0.0,0.0,0.0,0.0,0.0,0.0,0.0,0.0,0.0,0.0,0.0,0.0,0.0,0.0,0.0,0.0,0.0,0.0,0.0,0.0,0.0,0.0,0.0,0.188,0.1433,0.0985,0.0582,0.0224,0.0,0.0,0.0,0.0,0.0,0.0,0.0,0.0,0.0,-0.2724,-0.3159,-0.3724,-0.432,-0.4879,-0.5356,-0.5852,-0.6105,-0.627,-0.6404,-0.6538,-0.666,-0.6653,-0.6653,-0.6653,-0.6617,-0.6227,-0.5663,-0.4923,0.0,0.0,0.0,0.0,0.0784,0.245,0.0,0.0,0.0,0.0,0.0,0.0,0.0,0.0,0.0,0.0,0.0,0.0,0.0,0.0,0.0,-0.1311,0.0,0.0,0.0,0.0,0.0,0.0,0.0,0.0,0.0,0.0,0.0,0.0,-0.383,-0.4287,-0.4708,-0.518,-0.5492,-0.5683,-0.5736,-0.5391,-0.475,-0.4483,-0.4325,0.0,0.0,0.0,0.0,0.0,0.0,0.0,0.0,0.0,0.0,0.0,0.0,0.0,0.0,0.0,0.0,0.0,0.0,0.0,0.0,0.0,0.0,0.0,0.0,0.0,0.0,0.0,0.0,0.0,0.0,0.0,0.0,0.0,0.0,0.0,0.0,0.0,0.0,0.2281,0.1971,0.1524,0.1119,0.0761,0.0,0.0,0.0,0.0,0.0,0.0,-0.1119,-0.1614,-0.2016,-0.237,-0.2951,-0.3571,-0.414,-0.4574,-0.5058,-0.5539,-0.5674,-0.5841,-0.5964,-0.6105,-0.6233,-0.6313,-0.6307,-0.6313,-0.6233,-0.6024,-0.5453,-0.4666,-0.3785,-0.2627,-0.1336,0.031,0.1881,0.3534,0.0,0.0,0.0,0.0,0.0,0.0,0.0,0.0,0.0,0.0,0.0,0.0,0.0,0.0,-0.1575,-0.1575,-0.1575,-0.1575,0.0,0.0,0.0,0.0,0.0,0.0,0.0,0.0,0.0,-0.4023,-0.4408,-0.4875,-0.5438,-0.5536,-0.5731,-0.598,-0.598,-0.5806,-0.5421,-0.5227,-0.4925,-0.4574,0.0,0.0,0.0,0.0,0.0,0.0,0.0,0.0,0.0,0.0,0.0,0.0,0.0,0.0,0.0,0.0,0.0,0.0,0.0,0.0,0.0,0.0,0.0,0.0,0.0,0.0,0.0,0.0,0.0,0.0,0.0,0.0,0.0,0.0,0.0,0.0,0.0,0.0,0.0,0.2018,0.1569,0.0,0.0,0.0,0.0,0.036,-0.0135,-0.0539,-0.0716,-0.1164,-0.1655,-0.2099,-0.264,-0.3176,-0.3744,-0.414,-0.4574,-0.5053,-0.5096,-0.5226,-0.5351,-0.5486,-0.5626,-0.5766,-0.5798,-0.583,-0.5836,-0.5761,-0.528,-0.4487,-0.3385,-0.2049,-0.0534,0.1322,0.3224,0.5164,0.0,0.0,0.0,0.0,0.0,0.0,0.0,0.0,0.0,0.0,0.0,0.0,0.0,-0.1847,-0.1878,-0.1911,-0.1914,-0.1945,-0.204,0.0,0.0,0.0,0.0,0.0,0.0,0.0,-0.4425,-0.4819,-0.5264,-0.5681,-0.6061,-0.6401,-0.6676,-0.6837,-0.6936,-0.681,-0.6531,-0.5935,-0.5586,-0.541,-0.5139,-0.4947,0.0,0.0,0.0,0.0,0.0,0.0,0.0,0.0,0.0,0.0,0.0,0.0,0.0,0.0,0.0,0.0,0.0,0.0,0.0,0.0,0.0,0.0,0.0,0.0,0.0,0.0,0.0,0.0,0.0,0.0,0.0,0.0,0.0,0.0,0.0,0.0,0.0,0.2237,0.1927,0.0,0.1569,0.121,0.0942,0.0852,0.0493,0.0179,-0.0089,-0.0537,-0.0984,-0.1432,-0.2012,-0.2502,-0.2904,-0.3391,-0.3785,-0.4089,-0.418,-0.4312,-0.4522,-0.47,-0.4966,-0.5275,-0.5491,-0.5663,-0.5717,-0.5501,-0.5019,-0.4312,-0.3205,-0.1687,0.0133,0.2323,0.4491,0.668,0.0,0.0,0.0,0.0,0.0,0.0,0.0,0.0,0.0,0.0,0.0,-0.1845,-0.2014,-0.2081,-0.2147,-0.2214,-0.2247,-0.2281,-0.2441,0.0,0.0,0.0,0.0,0.0,0.0,-0.4807,-0.5171,-0.5528,-0.6042,-0.6421,-0.6707,-0.7015,-0.7252,-0.7413,-0.7521,-0.7529,-0.7419,-0.6833,-0.6425,-0.6126,-0.5734,-0.558,-0.5513,0.0,0.0,0.0,0.0,0.0,0.0,0.0,0.0,0.0,0.0,0.0,0.0,0.0,0.0,0.0,0.0,0.0,0.0,0.0,0.0,0.0,0.0,0.0,0.0,0.0,0.0,0.0,0.0,0.0,0.0,0.0,0.0,0.0,0.0,0.0,0.2907,0.2591,0.2373,0.2196,0.2107,0.1835,0.1566,0.1432,0.1207,0.0939,0.0582,0.0179,-0.0224,-0.0716,-0.1206,-0.1698,-0.2101,-0.241,-0.2763,-0.3075,-0.312,-0.3293,-0.3558,-0.3818,-0.4172,-0.4652,-0.5053,-0.5318,-0.5501,-0.529,-0.4801,-0.4045,-0.2981,-0.1375,0.0574,0.3014,0.534,0.7715,0.0,0.0,0.0,0.0,0.0,0.0,0.0,0.0,0.0,0.0,-0.1947,-0.2117,-0.2117,-0.2278,-0.2441,-0.251,-0.251,-0.2577,-0.2712,-0.2845,0.0,0.0,0.0,0.0,-0.5014,-0.55,-0.5872,-0.6244,-0.6633,-0.6974,-0.7317,-0.7317,-0.7467,-0.7723,-0.7723,-0.7771,-0.7925,-0.7925,-0.743,-0.665,-0.6347,-0.6244,-0.6196,0.0,0.0,0.0,0.0,0.0,0.0,0.0,0.0,0.0,0.0,0.0,0.0,0.0,0.0,0.0,0.0,0.0,0.0,0.0,0.0,0.0,0.0,0.0,0.0,0.0,0.0,0.0,0.0,0.0,0.0,0.0,0.0,0.0,0.3442,0.3306,0.317,0.3034,0.286,0.2729,0.2729,0.2504,0.2279,0.2144,0.1964,0.1698,0.1343,0.094,0.0537,0.0045,-0.0268,-0.0716,-0.1254,-0.1295,-0.156,-0.1919,-0.1919,-0.2142,-0.2448,-0.2807,-0.3293,-0.3906,-0.4351,-0.4797,-0.5149,-0.5029,-0.4535,-0.3774,-0.2711,-0.1153,0.0795,0.3354,0.5786,0.8379,0.0,0.0,0.0,0.0,0.0,0.0,0.0,0.0,0.0,0.0,-0.1981,-0.2147,-0.2311,-0.251,-0.2646,-0.2716,-0.2845,-0.2973,-0.3043,0.0,0.0,0.0,0.0,0.0,-0.5861,-0.6206,-0.6547,-0.6952,-0.7194,-0.7458,-0.7741,-0.7741,-0.7895,-0.8209,-0.8209,-0.8256,-0.8408,-0.8309,-0.8174,-0.8011,-0.7312,-0.694,-0.6767,0.0,0.0,0.0,0.0,0.0,0.0,0.0,0.0,0.0,0.0,0.0,0.0,0.0,0.0,0.0,0.0,0.0,0.0,0.0,0.0,0.0,0.0,0.0,0.0,0.0,0.0,0.0,0.0,0.0,0.0,0.0,0.0,0.3792,0.3578,0.3571,0.3568,0.352,0.3432,0.3388,0.3432,0.3214,0.3037,0.2901,0.2721,0.2455,0.219,0.1832,0.1431,0.103,0.0671,0.0358,0.0,-0.0179,-0.0313,-0.0402,-0.0581,-0.0848,-0.1205,-0.1739,-0.2361,-0.307,-0.3693,-0.4184,-0.4539,-0.4495,-0.4136,-0.3466,-0.2622,-0.1108,0.0928,0.3397,0.7039,1.1087,0.0,0.0,0.0,0.0,0.0,0.0,0.0,0.0,0.0,0.0,-0.2081,-0.2247,-0.2374,-0.2613,-0.2782,-0.2845,-0.3039,-0.3208,-0.3307,0.0,0.0,0.0,0.0,-0.587,-0.6424,-0.6777,-0.7138,-0.7556,-0.7763,-0.7943,-0.8109,-0.8109,-0.8268,-0.8586,-0.8586,-0.8692,-0.8837,-0.8791,-0.8738,-0.8725,-0.8248,-0.7823,-0.7494,-0.7392,-0.7377,-0.7327,-0.7484,-0.7478,-0.7428,-0.7327,0.0,0.0,0.0,0.0,0.0,0.0,0.0,0.0,0.0,0.0,0.0,0.0,0.0,0.0,0.0,0.0,0.0,0.0,0.0,0.0,0.0,0.0,0.0,0.0,0.388,0.4148,0.4104,0.4056,0.4008,0.4008,0.4049,0.4092,0.4092,0.4008,0.3924,0.37,0.3565,0.3344,0.3034,0.2721,0.241,0.1969,0.1655,0.1341,0.1028,0.0895,0.076,0.0716,0.0537,0.0224,-0.0134,-0.0759,-0.1428,0.0,-0.2893,-0.3429,-0.3741,-0.3741,-0.3385,0.0,0.0,0.0,0.0,0.0,0.8095,1.1612,0.0,0.0,0.0,0.0,0.0,0.0,0.0,0.0,0.0,0.0,0.0,-0.2317,-0.2408,-0.2643,-0.2845,-0.2904,-0.3105,-0.3356,0.0,0.0,0.0,-0.5503,-0.5857,-0.6287,-0.6848,-0.722,-0.7633,-0.8056,-0.8306,-0.8427,-0.8427,-0.8427,-0.8586,-0.8857,-0.8857,-0.9008,-0.9263,-0.9263,-0.9159,-0.9061,-0.9061,-0.8745,-0.8275,-0.8328,-0.8321,-0.8328,-0.8474,-0.8527,-0.8474,-0.8374,0.0,0.0,0.0,0.0,0.0,0.0,0.0,0.0,0.0,0.0,0.0,0.0,0.0,0.0,0.0,0.0,0.0,0.0,0.0,0.0,0.0,0.0,0.0,0.0,0.4228,0.4706,0.4921,0.4771,0.4626,0.4539,0.4757,0.4884,0.4748,0.4902,0.4877,0.4618,0.4525,0.43,0.3902,0.0,0.0,0.0,0.0,0.2277,0.1919,0.1834,0.1701,0.1567,0.1478,0.1208,0.0805,0.0179,-0.0536,-0.1337,-0.2049,-0.2539,-0.2854,-0.281,-0.2368,-0.1617,-0.134,-0.0178,0.1818,0.5935,0.8816,1.0885,0.0,0.0,0.0,0.0,0.0,0.0,0.0,0.0,0.0,-0.1878,-0.215,-0.2317,-0.2408,-0.2673,-0.2904,-0.29,-0.3233,-0.3768,0.0,0.0,-0.5314,-0.6187,-0.6301,-0.6635,-0.7352,-0.7462,-0.7734,-0.8344,-0.8396,-0.8533,-0.8699,-0.8699,-0.885,-0.9113,-0.9263,-0.9361,-0.951,-0.951,-0.9577,-0.9636,-0.9517,-0.9159,-0.8699,-0.8903,-0.9001,-0.9054,-0.9309,-0.9302,-0.9204,-0.9054,-0.8837,-0.8567,-0.8315,0.0,0.0,0.0,0.0,0.0,0.0,0.0,0.0,0.0,0.0,0.0,0.0,0.0,0.0,0.0,0.0,0.0,0.0,0.0,0.0,0.4642,0.5092,0.5444,0.5853,0.6045,0.5922,0.5501,0.562,0.5744,0.5712,0.5963,0.5983,0.5773,0.5626,0.5399,0.5089,0.4519,0.4045,0.366,0.3476,0.3164,0.2765,0.2721,0.2682,0.2598,0.0,0.0,0.1569,0.0985,0.0223,-0.0626,-0.1163,-0.1563,-0.1873,-0.1693,-0.0772,0.0513,0.0857,0.2121,0.4104,0.6472,0.8653,1.0661,0.0,0.0,0.0,0.0,0.0,0.0,0.0,0.0,0.0,0.0,-0.2047,-0.2247,-0.2374,-0.2702,-0.29,-0.29,-0.3335,0.0,0.0,-0.5039,-0.5454,-0.6173,-0.6416,-0.6887,-0.7529,-0.7637,-0.8013,-0.8586,-0.8692,-0.8745,-0.891,-0.8962,-0.9159,-0.9413,-0.9458,-0.9673,-0.994,-0.994,-1.0051,-1.0154,-1.0095,-0.9888,-0.9636,-0.9532,-0.9532,-0.9629,-0.9888,-0.994,-0.9888,-0.9681,-0.9465,-0.9242,-0.889,-0.8521,-0.8196,0.0,0.0,0.0,0.0,0.0,0.0,0.0,0.0,0.0,0.0,0.0,0.0,0.0,0.0,0.1293,0.0,0.0,0.4348,0.5331,0.5975,0.6514,0.7068,0.7451,0.7304,0.6294,0.6422,0.6649,0.6755,0.6925,0.7017,0.7022,0.6842,0.6614,0.6291,0.5795,0.5361,0.4908,0.4629,0.4214,0.3771,0.3634,0.342,0.3132,0.286,0.2549,0.215,0.1521,0.0895,0.0224,-0.0224,-0.0536,-0.067,-0.0137,0.0744,0.1798,0.2506,0.3526,0.4867,0.6504,0.8246,1.0052,0.0,0.0,0.0,0.0,0.0,0.0,0.0,0.0,0.0,0.0,0.0,-0.2181,-0.2374,-0.2702,-0.2933,0.0,0.0,0.0,0.0,-0.5121,-0.5539,-0.6044,-0.6453,-0.6944,-0.7547,-0.7754,-0.8141,-0.8724,-0.8935,-0.9008,-0.9061,-0.9211,-0.9413,-0.9621,-0.9725,-0.9991,-1.0316,-1.0368,-1.047,-1.0573,-1.0573,-1.0573,-1.0522,-1.0154,-1.0051,-1.0154,-1.0368,-1.047,-1.0522,-1.0257,-1.0035,-0.9925,-0.9472,-0.9204,-0.8935,-0.8633,-0.8209,0.0,0.0,0.0,0.0,0.0,0.0,0.0,0.0,0.0,-0.1567,-0.0392,0.0657,0.1714,0.2893,0.4013,0.5094,0.6096,0.6901,0.7647,0.8255,0.8771,0.8625,0.7544,0.7567,0.7759,0.7881,0.8094,0.819,0.8248,0.8133,0.7894,0.746,0.7164,0.6744,0.6213,0.578,0.5316,0.4785,0.4424,0.4061,0.3615,0.3226,0.2904,0.2504,0.1969,0.1433,0.0985,0.0582,0.0494,0.0635,0.1404,0.2102,0.2767,0.3698,0.4461,0.5136,0.6515,0.8017,0.9588,0.0,0.0,0.0,0.0,0.0,0.0,0.0,0.0,0.0,0.0,0.0,0.0,0.0,0.0,0.0,0.0,0.0,0.0,-0.4829,-0.5241,-0.5728,-0.6313,-0.6447,-0.6799,-0.7341,-0.7589,-0.7979,-0.8424,-0.8833,-0.9061,-0.9159,-0.9465,-0.9621,-0.9792,-1.0205,-1.0419,-1.047,-1.0718,-1.082,-1.0871,-1.0871,-1.0871,-1.0871,-1.082,-1.0718,-1.0616,-1.0769,-1.082,-1.082,-1.0667,-1.0616,-1.0514,-1.0051,-0.9829,-0.9607,-0.9204,0.0,-0.8468,-0.8162,-0.7408,-0.6539,-0.5782,-0.5014,-0.4239,0.0,0.0,-0.1286,-0.0112,0.1114,0.2327,0.3655,0.495,0.6182,0.7312,0.8088,0.8714,0.9253,0.9674,0.9959,0.9919,0.9604,0.9394,0.9372,0.9714,0.9779,0.9414,0.9414,0.917,0.8623,0.8174,0.77,0.7182,0.675,0.6299,0.5741,0.5175,0.4713,0.4376,0.3681,0.3132,0.264,0.2235,0.1789,0.1344,0.1208,0.1462,0.1982,0.2317,0.296,0.3773,0.4462,0.508,0.5846,0.6951,0.8373,0.9969,0.0,0.0,0.0,0.0,0.0,0.0,0.0,0.0,0.0,0.0,0.0,0.0,0.0,0.0,0.0,0.0,0.0,0.0,-0.457,-0.5105,-0.5586,-0.597,-0.6276,-0.6619,-0.698,-0.7482,-0.7911,-0.8263,-0.8858,-0.9159,-0.9211,-0.9577,-0.9792,-0.9947,-1.0316,-1.0573,-1.0769,-1.1023,-1.1175,-1.1276,-1.1318,-1.1377,-1.1377,-1.1377,-1.1318,-1.1276,-1.1175,-1.1175,0.0,0.0,-1.1175,-1.1074,-1.0667,-1.0454,-1.0241,-0.9718,-0.9256,0.0,-0.8103,-0.7454,0.0,0.0,-0.5113,-0.4232,-0.3,-0.1955,-0.0915,0.0337,0.162,0.2954,0.4278,0.5592,0.6897,0.0,0.8968,0.9698,1.0416,1.0891,1.1277,1.1563,1.1515,1.1187,1.0565,1.0647,1.0731,1.0714,1.0631,1.0374,0.9864,0.952,0.9048,0.841,0.8006,0.7419,0.6668,0.6081,0.5471,0.4768,0.4142,0.3562,0.2996,0.2593,0.2237,0.1927,0.2066,0.2388,0.2858,0.3381,0.3964,0.4561,0.514,0.5604,0.6041,0.7014,0.8136,0.9429,0.0,0.0,0.0,0.0,0.0,0.0,0.0,0.0,0.0,0.0,0.0,0.0,0.0,0.0,0.0,0.0,0.0,0.0,0.0,-0.4954,-0.536,-0.5583,-0.6019,-0.6365,-0.6645,-0.7298,-0.7769,-0.8082,-0.881,-0.9211,-0.9211,-0.9636,-0.9955,-1.011,-1.0462,-1.0769,-1.1023,-1.1276,-1.1418,-1.1578,-1.1678,-1.1728,-1.1728,-1.1728,-1.1728,-1.1669,-1.1477,-1.1469,0.0,0.0,-1.1578,-1.1469,-1.1124,-1.0922,-1.0761,-1.0138,-0.9517,-0.8917,-0.8027,0.0,0.0,-0.5893,-0.4998,-0.4027,-0.2686,-0.1535,-0.035,0.0967,0.2301,0.3622,0.4933,0.6298,0.754,0.8771,0.9762,1.0584,1.1318,1.1877,1.2274,1.2578,1.2764,1.2532,1.1731,1.1608,1.1649,1.1801,1.1728,1.1418,1.0956,1.0685,1.0174,0.9569,0.9099,0.8469,0.7641,0.6967,0.6171,0.5311,0.4603,0.394,0.3303,0.2907,0.2702,0.2642,0.2817,0.3223,0.3739,0.425,0.4733,0.5161,0.5625,0.5845,0.6,0.6701,0.7605,0.8659,0.0,0.0,0.0,0.0,0.0,0.0,0.0,0.0,0.0,0.0,0.0,0.0,0.0,0.0,0.0,0.0,0.0,0.0,0.0,-0.4895,-0.5183,-0.5285,-0.5626,-0.5927,-0.6196,-0.7013,-0.7529,-0.7732,-0.8707,-0.9211,-0.9211,-0.974,-1.011,-1.0316,-1.0718,-1.1023,-1.1326,-1.1427,-1.1569,-1.1669,-1.1728,-1.1728,-1.1728,-1.1728,-1.1728,-1.1728,-1.1669,0.0,0.0,0.0,-1.1669,-1.1628,-1.1368,-1.1276,0.0,-1.047,-0.9584,0.0,0.0,0.0,-0.6692,-0.5823,-0.4712,-0.3491,-0.2207,-0.0959,0.0352,0.1755,0.3076,0.4391,0.5706,0.7106,0.8343,0.9249,1.0446,1.1377,1.1628,1.2372,1.2881,1.2881,1.3045,1.316,0.0,1.2939,1.2813,1.2676,1.2529,1.2283,1.1877,1.1477,1.0964,1.0403,0.9821,0.9295,0.8758,0.7717,0.6801,0.6067,0.5004,0.4172,0.3565,0.3084,0.3112,0.3466,0.3469,0.3916,0.4651,0.4811,0.5177,0.5614,0.5736,0.5736,0.5622,0.5946,0.6745,0.7906,0.0,0.0,0.0,0.0,0.0,0.0,0.0,0.0,0.0,0.0,0.0,0.0,0.0,0.0,0.0,0.0,0.0,0.0,0.0,-0.4517,-0.484,-0.498,-0.528,-0.5583,-0.5847,-0.6519,-0.7058,-0.7481,-0.836,-0.8913,-0.9211,-0.9732,-1.0102,-1.0316,-1.0718,-1.1074,-1.1318,-1.1528,-1.1719,-1.1828,-1.1927,-1.2026,-1.2076,-1.2076,-1.2175,-1.2224,0.0,0.0,0.0,0.0,0.0,0.0,-1.1778,0.0,0.0,-1.0043,0.0,0.0,0.0,0.0,-0.6177,-0.5257,-0.4226,-0.3043,-0.1654,-0.0188,0.1232,0.2422,0.388,0.5185,0.6228,0.7492,0.8718,0.951,1.0498,1.1368,1.1877,1.2323,1.2725,1.2978,1.3065,0.0,0.0,0.0,0.0,1.3035,1.2861,1.2627,1.2323,1.1977,1.1519,1.0863,1.0506,1.0035,0.9354,0.8423,0.7536,0.6616,0.5102,0.411,0.3656,0.3537,0.3652,0.399,0.4204,0.4613,0.5136,0.537,0.5571,0.5736,0.5795,0.5513,0.512,0.523,0.5332,0.5642,0.0,0.0,0.0,0.0,0.0,0.0,0.0,0.0,0.0,0.0,0.0,0.0,0.0,0.0,0.0,0.0,0.0,0.0,0.0,0.0,-0.4403,-0.4543,-0.4932,-0.5241,-0.555,-0.6214,-0.6786,-0.7236,-0.8163,-0.876,-0.905,-0.9681,-1.0102,-1.0316,-1.0718,-1.1074,-1.1377,-1.1628,-1.1828,-1.2076,-1.2126,-1.2274,-1.2372,-1.2372,-1.2431,0.0,0.0,0.0,0.0,0.0,0.0,0.0,0.0,0.0,0.0,0.0,0.0,0.0,0.0,-0.6416,-0.5548,-0.4507,-0.3434,-0.2267,-0.0852,0.0578,0.1999,0.3297,0.4548,0.5802,0.683,0.7978,0.8988,0.9821,1.0651,1.1368,1.1927,1.2274,1.2627,1.2988,1.3027,1.3113,0.0,0.0,0.0,1.3218,1.3055,1.2832,1.2578,1.2274,1.1828,1.1276,1.0871,1.0403,0.9725,0.9001,0.7934,0.6616,0.5245,0.4414,0.4014,0.4075,0.4277,0.4593,0.4821,0.5117,0.55,0.5684,0.5736,0.5622,0.5513,0.5069,0.4512,0.4343,0.3953,0.3895,0.0,0.0,0.0,0.0,0.0,0.0,0.0,0.0,0.0,0.0,0.0,0.0,0.0,0.0,0.0,0.0,0.0,0.0,0.0,0.0,0.0,-0.4064,-0.4499,-0.4937,-0.5285,-0.6029,-0.6612,-0.698,-0.8043,-0.8622,-0.8792,-0.9613,-1.0079,-1.0293,-1.071,-1.1124,-1.1528,-1.1628,-1.1927,-1.2274,-1.2274,-1.2382,-1.2529,-1.2529,0.0,0.0,0.0,0.0,0.0,0.0,0.0,0.0,0.0,0.0,0.0,0.0,0.0,-0.7269,-0.6519,-0.5607,-0.4651,-0.3631,-0.2479,-0.1139,0.0268,0.1475,0.2766,0.4224,0.5239,0.6218,0.0,0.0,0.9295,1.0043,1.0812,1.1427,1.1828,1.2224,1.2578,0.0,0.0,0.0,0.0,0.0,0.0,1.317,0.0,1.2988,1.2676,1.2323,1.1927,1.1528,1.0972,1.0514,0.9999,0.9309,0.8024,0.6093,0.5538,0.5023,0.4658,0.4619,0.4906,0.5332,0.534,0.5509,0.5795,0.5795,0.5567,0.5226,0.4952,0.4346,0.3683,0.3176,0.2732,0.2621,0.0,0.0,0.0,0.0,0.0,0.0,0.0,0.0,0.0,0.0,0.0,0.0,0.0,0.0,0.0,0.0,0.0,0.0,0.0,0.0,0.0,0.0,0.0,0.0,0.0,0.0,0.0,0.0,0.0,-0.7903,-0.8468,-0.9116,-0.957,-0.994,-1.0495,-1.1023,-1.1528,-1.1628,-1.1927,-1.2274,0.0,-1.248,-1.2783,0.0,0.0,0.0,0.0,0.0,0.0,0.0,0.0,0.0,0.0,0.0,-0.9354,0.0,0.0,-0.633,-0.5403,-0.4466,-0.3482,-0.2377,-0.134,-0.0268,0.1206,0.2475,0.365,0.4793,0.5972,0.7001,0.0,0.0,0.0,0.9947,1.0616,0.0,1.1528,1.1927,0.0,1.2421,0.0,1.2618,1.2666,1.2666,0.0,0.0,1.2774,1.2774,1.2431,1.2224,1.1877,1.1377,1.1124,1.0769,1.0213,0.8936,0.7631,0.6486,0.5913,0.5471,0.5136,0.5231,0.5404,0.5614,0.5655,0.5747,0.5795,0.5403,0.5069,0.4625,0.3953,0.3231,0.2565,0.1953,0.1397,0.1007,0.0,0.0,0.0,0.0,0.0,0.0,0.0,0.0,0.0,0.0,0.0,0.0,0.0,0.0,0.0,0.0,0.0,0.0,0.0,0.0,0.0,0.0,0.0,0.0,0.0,0.0,0.0,0.0,0.0,0.0,0.0,-0.8685,-0.9126,-0.9477,-0.9963,-1.0524,-1.106,-1.1265,0.0,0.0,0.0,0.0,0.0,0.0,0.0,0.0,0.0,0.0,0.0,0.0,0.0,-1.1318,-1.0549,-0.9658,-0.8712,-0.7658,0.0,-0.5385,-0.438,-0.3428,-0.2375,-0.1213,-0.0323,0.0646,0.2004,0.3153,0.429,0.5351,0.6354,0.0,0.0,0.0,0.0,0.0,0.0,0.0,1.1175,1.1519,1.1828,0.0,1.2175,0.0,1.2323,1.2323,1.2224,0.0,1.2431,1.248,1.2076,1.1927,1.1628,1.1124,1.0863,1.0403,0.9747,0.8631,0.7665,0.6781,0.6192,0.5782,0.5489,0.5499,0.5545,0.5633,0.0,0.5458,0.5183,0.4791,0.4233,0.3569,0.2841,0.2062,0.1228,0.067,0.0112,-0.0224,0.0,0.0,0.0,0.0,0.0,0.0,0.0,0.0,0.0,0.0,0.0,0.0,0.0,0.0,0.0,0.0,0.0,0.0,0.0,0.0,0.0,0.0,0.0,0.0,0.0,0.0,0.0,0.0,0.0,0.0,0.0,0.0,0.0,0.0,0.0,0.0,0.0,0.0,0.0,0.0,0.0,0.0,0.0,0.0,0.0,0.0,0.0,0.0,0.0,0.0,-1.1065,-1.0812,-0.9969,-0.8967,-0.796,-0.6794,-0.566,-0.4487,-0.3425,-0.2464,-0.1481,-0.0244,0.0615,0.1539,0.2705,0.3716,0.4677,0.5776,0.0,0.7456,0.8415,0.8896,0.9368,0.9888,0.0,1.0514,1.0769,1.1074,1.1318,1.1578,1.1728,1.1877,1.1977,1.1977,1.1877,1.1619,1.1877,1.1927,1.1619,1.1477,1.1167,1.0761,1.03,0.9681,0.8903,0.8381,0.7729,0.6932,0.6354,0.5944,0.5645,0.5484,0.5464,0.5454,0.5226,0.0,0.4294,0.3898,0.3118,0.2174,0.1504,0.0724,-0.0112,-0.0726,-0.1117,-0.134,0.0,0.0,0.0,0.0,0.0,0.0,0.0,0.0,0.0,0.0,0.0,-0.0314,0.0,0.0,0.0,0.0,0.0,0.0,0.0,0.0,0.0,0.0,0.0,0.0,0.0,0.0,0.0,0.0,0.0,0.0,0.0,0.0,0.0,0.0,0.0,0.0,0.0,0.0,0.0,0.0,0.0,0.0,0.0,0.0,0.0,0.0,0.0,0.0,0.0,0.0,-1.049,-1.0218,-0.9392,-0.8396,-0.7224,-0.6032,-0.4776,-0.3596,-0.2561,-0.1647,-0.0652,0.0428,0.1231,0.2093,0.3258,0.4133,0.0,0.0,0.0,0.7622,0.8315,0.8844,0.0,0.9621,0.0,0.0,0.0,0.0,1.0972,0.0,0.0,0.0,0.0,0.0,0.0,0.0,0.0,1.1023,1.1023,1.0922,1.0506,0.9821,0.942,0.9001,0.8527,0.7889,0.7331,0.6753,0.6269,0.5783,0.5345,0.5241,0.5039,0.4838,0.4395,0.0,0.3456,0.2561,0.1726,0.0891,-0.0056,-0.0892,-0.1505,-0.212,-0.24,-0.2391,0.0,0.0,0.0,0.0,0.0,0.0,0.0,0.1032,0.1032,0.1077,0.0807,0.0493,0.0179,0.009,0.0,0.0,0.0,0.0,0.0,0.0,0.0,0.0,0.0,0.0,0.0,0.0,0.0,0.0,0.0,0.0,0.0,0.0,0.0,0.0,0.0,0.0,0.0,0.0,0.0,0.0,0.0,0.0,0.0,0.0,0.0,0.0,0.0,0.0,0.0,0.0,-0.9503,-0.9013,-0.8659,-0.7753,-0.6632,-0.5492,-0.4398,-0.3251,-0.2224,-0.1262,-0.0288,0.0643,0.1409,0.2229,0.328,0.0,0.0,0.0,0.6773,0.7616,0.8262,0.0,0.0,0.0,0.0,0.0,0.0,0.0,0.0,0.0,0.0,0.0,0.0,0.0,0.0,0.0,0.0,1.0293,1.0411,1.0043,0.9577,0.8995,0.8626,0.8203,0.7729,0.7241,0.6756,0.6213,0.5668,0.5171,0.4728,0.4457,0.4122,0.3732,0.3287,0.0,0.2011,0.1136,0.0172,-0.0857,-0.1716,-0.2459,-0.3022,-0.3479,-0.3569,-0.344,0.0,0.0,0.0,0.0,0.0,0.0,0.0,0.1433,0.1478,0.1523,0.1524,0.1389,0.0895,0.076,0.0627,0.0,0.0,0.0,0.0,0.0,0.0,0.0,0.0,0.0,0.0,0.0,0.0,0.0,0.0,0.0,0.0,0.0,0.0,0.0,0.0,0.0,0.0,0.0,0.0,0.0,0.0,0.0,0.0,0.0,0.0,0.0,0.0,0.0,0.0,0.0,-0.8514,-0.7919,-0.7812,-0.7058,-0.6091,-0.5117,-0.4128,-0.3132,-0.2069,-0.112,-0.0224,0.0617,0.14,0.2181,0.3077,0.4015,0.0,0.0,0.6647,0.7509,0.8209,0.0,0.0,0.0,0.0,0.0,0.0,0.0,0.0,0.0,0.0,0.0,0.0,0.0,0.0,0.0,0.0,0.0,0.9629,0.9106,0.858,0.8156,0.7771,0.7396,0.6869,0.648,0.6041,0.555,0.4952,0.4401,0.3901,0.3458,0.2959,0.2514,0.2009,0.0,0.0,-0.0347,-0.1407,-0.2576,-0.3217,-0.3859,-0.4484,-0.4682,-0.4677,-0.4488,0.0,0.0,0.0,0.0,0.0,0.0,0.0,0.1839,0.1928,0.1928,0.202,0.202,0.1973,0.1523,0.1208,0.0,0.0,0.0,0.0,0.0,0.0,0.0,0.0,0.0,0.0,0.0,0.0,0.0,0.0,0.0,0.0,0.0,0.0,0.0,0.0,0.0,0.0,0.0,0.0,0.0,0.0,0.0,0.0,0.0,0.0,0.0,0.0,0.0,0.0,0.0,0.0,-0.7283,-0.6858,-0.6312,-0.5664,-0.4791,0.0,0.0,-0.2069,-0.1232,-0.0449,0.0505,0.1288,0.2014,0.2794,0.0,0.0,0.5664,0.6539,0.7354,0.8055,0.854,0.0,0.0,0.0,0.0,0.0,0.0,0.0,0.0,0.0,0.0,0.0,0.0,0.0,0.0,0.0,0.0,0.8527,0.8203,0.7771,0.7246,0.6912,0.6534,0.6109,0.555,0.5109,0.478,0.4067,0.3461,0.3016,0.2404,0.1845,0.1229,0.0614,0.0,0.0,-0.1852,-0.2868,-0.3798,-0.45,-0.5085,-0.5592,-0.5627,-0.5614,-0.5429,0.0,0.0,0.0,0.0,0.0,0.0,0.202,0.2064,0.2199,0.2375,0.2464,0.2506,0.2637,0.2457,0.2146,0.1748,0.0,0.0,0.0,0.0,0.0,0.0,0.0,0.0,0.0,0.0,0.0,0.0,0.0,0.0,0.0,0.0,0.0,0.0,0.0,0.0,0.0,0.0,0.0,0.0,0.0,0.0,0.0,0.0,0.0,0.0,0.0,0.0,0.0,0.0,0.0,0.0,-0.6159,-0.5664,0.0,0.0,-0.3907,-0.3077,-0.2294,-0.1513,-0.0785,0.0,0.0784,0.1624,0.2458,0.0,0.4453,0.5332,0.6209,0.7031,0.7681,0.8162,0.854,0.0,0.0,0.0,0.0,0.0,0.0,0.0,0.0,0.0,0.0,0.0,0.0,0.0,0.0,0.0,0.7074,0.7122,0.6853,0.6317,0.5932,0.5496,0.512,0.4567,0.4122,0.3735,0.3072,0.2458,0.1899,0.1229,0.0614,0.0,-0.0726,0.0,0.0,-0.3243,-0.4267,-0.5225,-0.5758,-0.6352,-0.6905,-0.6774,-0.6696,-0.6612,0.0,0.0,0.0,0.0,0.0,0.1973,0.2196,0.2333,0.2511,0.2773,0.2862,0.2996,0.3167,0.3211,0.3034,0.2595,0.2417,0.0,0.0,0.0,0.0,0.0,0.0,0.0,0.0,0.0,0.0,0.0,0.0,0.0,0.0,0.0,0.0,0.0,0.0,0.0,0.0,0.0,0.0,0.0,0.0,0.0,0.0,0.0,0.0,0.0,0.0,0.0,0.0,0.0,0.0,0.0,0.0,0.0,0.0,0.0,-0.391,-0.3246,-0.2464,-0.1792,-0.1065,-0.0449,0.0393,0.1233,0.0,0.0,0.4119,0.5003,0.5937,0.6756,0.7354,0.7895,0.8328,0.0,0.0,0.9159,0.0,0.0,0.0,0.0,0.0,0.0,0.0,0.0,0.0,0.0,0.0,0.0,0.5828,0.5823,0.5719,0.5504,0.5003,0.4563,0.4073,0.3574,0.3128,0.2627,0.1959,0.1399,0.0838,0.0112,-0.0559,-0.1174,-0.1899,0.0,0.0,-0.449,-0.5426,-0.6324,-0.6851,-0.7384,-0.7808,-0.7663,-0.7664,-0.7688,0.0,0.0,0.0,0.0,0.0,0.0,0.2281,0.264,0.2909,0.299,0.3214,0.3483,0.3656,0.3697,0.3744,0.388,0.3344,0.0,0.0,0.0,0.0,0.0,0.0,0.0,0.0,0.0,-0.2545,-0.3586,-0.4958,0.0,0.0,0.0,0.0,0.0,0.0,0.0,0.0,0.0,0.0,0.0,0.0,0.0,0.0,0.0,0.0,0.0,0.0,0.0,0.0,0.0,0.0,0.0,0.0,0.0,0.0,0.0,-0.3805,-0.3246,-0.2689,-0.2071,-0.1399,-0.0616,0.028,0.1065,0.0,0.0,0.3846,0.4732,0.5609,0.648,0.7354,0.7895,0.8268,0.8573,0.0,0.0,0.0,0.0,0.0,0.0,0.0,0.0,0.0,0.0,0.0,0.0,0.0,0.0,0.0,0.4349,0.4242,0.4688,0.4245,0.3744,0.313,0.2517,0.2015,0.1621,0.0784,0.0224,-0.0223,-0.095,-0.1621,0.0,0.0,0.0,0.0,-0.5417,-0.6288,-0.7028,-0.7599,-0.7942,-0.8193,-0.8362,-0.8474,-0.862,0.0,0.0,0.0,0.0,0.0,0.0,0.0,0.2776,0.3001,0.3353,0.3527,0.3744,0.4052,0.4224,0.4355,0.4495,0.3965,0.0,0.0,0.0,0.0,0.0,0.0,0.0,0.0,0.0,-0.1498,-0.2632,-0.3871,-0.505,-0.6036,0.0,0.0,0.0,0.0,0.0,0.0,0.0,0.0,0.0,0.0,0.0,0.0,0.0,0.0,0.0,0.0,0.0,0.0,0.0,0.0,0.0,0.0,0.0,0.0,0.0,0.0,0.0,-0.2633,-0.2073,-0.1457,-0.0897,-0.0112,0.0728,0.1511,0.0,0.3688,0.446,0.5395,0.6273,0.6982,0.7568,0.8096,0.8421,0.8738,0.0,0.0,0.0,0.0,0.0,0.0,0.0,0.0,0.0,0.0,0.0,0.0,0.0,0.0,0.3685,0.3463,0.3577,0.3074,0.2573,0.2237,0.1624,0.1121,0.0784,0.0168,-0.0448,-0.1006,-0.179,-0.2516,0.0,0.0,0.0,0.0,-0.6482,-0.7254,-0.7818,-0.8441,-0.8942,-0.9288,-0.9263,-0.9399,-0.9755,0.0,0.0,0.0,0.0,0.0,0.0,0.0,0.2954,0.322,0.3575,0.3788,0.4052,0.4451,0.4626,0.4801,0.4975,0.4626,0.0,0.0,0.0,0.0,0.0,0.0,0.0,0.0,0.0452,-0.0677,-0.1786,-0.3063,-0.4226,-0.5273,-0.6095,-0.675,0.0,0.0,0.0,0.0,0.0,0.0,0.0,0.0,0.0,-0.8217,0.0,0.0,0.0,0.0,0.0,0.0,0.0,0.0,0.0,0.0,0.0,0.0,0.0,0.0,0.0,0.0,-0.1906,-0.1347,-0.0842,-0.0112,0.0,0.0,0.0,0.3408,0.4239,0.5117,0.5941,0.6712,0.7348,0.783,0.8162,0.8533,0.0,0.0,0.0,0.0,0.0,0.0,0.0,0.0,0.0,0.0,0.0,0.0,0.0,0.0,0.2963,0.2516,0.2293,0.2014,0.1679,0.1287,0.0672,0.0224,-0.0168,-0.0728,-0.1287,-0.1846,-0.2573,-0.3294,0.0,0.0,0.0,0.0,-0.728,-0.8007,-0.8561,-0.916,-0.9646,-1.0052,-1.006,-1.0336,-1.0787,0.0,0.0,0.0,0.0,0.0,0.0,0.0,0.3176,0.3486,0.37,0.4052,0.4447,0.4757,0.4941,0.5116,0.529,0.0,0.0,0.0,0.0,0.0,0.0,0.0,0.0,0.2261,0.1057,-0.0052,-0.1062,-0.2397,-0.3564,-0.4673,-0.5386,-0.6046,-0.6647,-0.6766,-0.6987,-0.7274,-0.7561,-0.7734,-0.7784,-0.8113,-0.7883,0.0,0.0,0.0,0.0,0.0,0.0,0.0,0.0,0.0,0.0,0.0,0.0,0.0,0.0,0.0,0.0,0.0,0.0,0.0,0.0,0.0,0.0,0.0,0.0,0.0,0.0,0.4783,0.5555,0.6485,0.7085,0.7574,0.7848,0.0,0.0,0.0,0.0,0.0,0.0,0.0,0.0,0.0,0.0,0.0,0.0,0.0,0.0,0.0,0.2071,0.1456,0.0842,0.1064,0.0896,0.0336,-0.0224,-0.0729,-0.1178,-0.1792,-0.2296,-0.2802,-0.3408,-0.4067,0.0,0.0,0.0,0.0,-0.7925,-0.8613,-0.9309,-0.9718,-1.0131,-1.0506,-1.0871,-1.1226,-1.1669,0.0,0.0,0.0,0.0,0.0,0.0,0.0,0.0,0.0,0.0,0.428,0.4543,0.4757,0.5067,0.5246,0.0,0.0,0.0,0.0,0.0,0.0,0.0,0.0,0.0,0.2507,0.1507,0.0469,-0.056,-0.1677,-0.2847,-0.4015,-0.4673,-0.5281,-0.5837,-0.5996,-0.6303,-0.668,-0.6899,-0.7237,-0.7608,-0.73,-0.7096,0.0,0.0,0.0,0.0,-0.5018,-0.4632,0.0,0.0,0.0,0.0,0.0,0.0,0.0,0.0,-0.1852,0.0,0.0,0.0,0.0,0.0,0.0,0.0,0.0,0.0,0.0,0.0,0.0,0.0,0.0,0.0,0.0,0.0,0.0,0.0,0.0,0.0,0.0,0.0,0.0,0.0,0.0,0.0,0.0,0.0,0.0,0.0,0.0,0.1513,0.0841,0.0224,-0.0168,-0.0392,-0.0449,-0.1008,-0.1511,-0.1961,-0.2462,-0.2963,-0.3574,-0.4073,-0.4732,0.0,0.0,0.0,-0.7919,-0.862,-0.9302,-0.9865,-1.0549,-1.0964,-1.1267,-1.1678,-1.2017,-1.2452,0.0,0.0,0.0,0.0,0.0,0.0,0.0,0.0,0.0,0.0,0.0,0.4626,0.4849,0.5111,0.0,0.0,0.0,0.0,0.0,0.0,0.0,0.0,0.0,0.3474,0.2756,0.1808,0.0834,-0.0112,-0.1287,-0.2348,-0.3405,-0.4015,-0.4625,-0.5183,-0.5395,-0.572,-0.6076,-0.6281,-0.6556,-0.6885,-0.6558,0.0,0.0,0.0,0.0,0.0,-0.4411,-0.4079,0.0,-0.3583,-0.3304,-0.3023,0.0,0.0,0.0,0.0,-0.1572,-0.1234,-0.0954,-0.0842,-0.0673,0.0,0.0,0.0,0.0,0.0,0.0,0.0,0.0,0.0,0.0,0.0,0.0,0.0,0.0,0.0,0.0,0.0,0.0,0.0,0.0,0.0,0.0,0.0,0.0,0.0,0.0,0.0,0.0,0.0953,0.028,-0.0393,-0.1008,-0.1288,-0.1232,-0.1792,-0.2294,-0.2629,-0.313,-0.363,-0.4128,-0.4736,-0.5449,0.0,0.0,0.0,-0.8666,-0.9347,-1.002,-1.0643,-1.1217,-1.1678,-1.2017,-1.2353,-1.2745,-1.3132,0.0,0.0,0.0,0.0,0.0,0.0,0.0,0.0,0.0,0.0,0.0,0.0,0.0,0.0,0.0,0.0,0.0,0.0,0.0,0.0,0.0,0.0,0.0,0.3428,0.2861,0.191,0.0991,0.0224,-0.0952,-0.1958,-0.285,-0.3408,-0.3962,-0.4577,-0.4853,-0.5121,-0.5486,-0.564,-0.5817,-0.5978,-0.5781,0.0,0.0,0.0,0.0,0.0,0.0,0.0,0.0,-0.3304,-0.3023,-0.2635,-0.2635,0.0,0.0,0.0,0.0,0.0,-0.0842,-0.0729,-0.0449,0.0056,0.0,0.0,0.0,0.0,0.0,0.0,0.0,0.0,0.0,0.0,0.0,0.0,0.0,0.0,0.0,0.0,0.0,0.0,0.0,0.0,0.0,0.0,0.0,0.0,0.0,0.0,0.0,0.0449,-0.0224,-0.0954,-0.1568,-0.1902,-0.2014,-0.2519,-0.2968,-0.3241,-0.3855,-0.4298,-0.468,-0.5399,-0.605,-0.6799,0.0,0.0,-0.9361,-1.002,-1.0744,-1.1477,-1.1868,-1.2264,-1.2666,-1.3025,-1.3409,-1.381,0.0,0.0,0.0,0.0,0.0,0.0,0.0,0.0,0.0,0.0,0.0,0.0,0.0,0.0,0.0,0.0,0.0,0.0,0.0,0.0,0.0,0.3785,0.3568,0.3204,0.2716,0.1814,0.0941,0.0224,-0.0729,-0.1625,-0.2575,-0.2907,-0.335,-0.3962,-0.4245,-0.4508,-0.4877,-0.5019,-0.5255,-0.5498,-0.5023,0.0,0.0,0.0,0.0,0.0,0.0,0.0,0.0,-0.2858,-0.2689,-0.2465,-0.2184,0.0,0.0,0.0,0.0,0.0,-0.0505,-0.028,-0.0056,0.0168,0.0561,0.0,0.0,0.0,0.0,0.0,0.0,0.0,0.0,0.0,0.0,0.0,0.0,0.0,0.0,0.0,0.0,0.0,0.0,0.0,0.0,0.0,0.0,0.0,0.0,0.0,0.0,0.0056,-0.0617,-0.1234,-0.1849,-0.2406,-0.2907,-0.3135,-0.3469,-0.3855,-0.4356,-0.4908,-0.5458,-0.5887,-0.6583,-0.7385,0.0,-0.8935,-0.9917,-1.049,-1.1209,-1.2017,-1.2482,-1.2822,-1.317,-1.3668,-1.4057,-1.4521,0.0,0.0,0.0,0.0,0.0,0.0,0.0,0.0,0.0,0.0,0.0,0.0,0.0,0.0,0.0,0.0,0.0,0.0,0.0,0.0,0.0,0.3217,0.2922,0.2614,0.2363,0.1613,0.0889,0.0224,-0.0673,-0.1457,-0.2127,-0.2683,-0.3186,-0.3691,-0.3805,-0.4116,-0.4543,-0.4601,-0.4829,-0.5011,0.0,0.0,0.0,0.0,0.0,0.0,0.0,0.0,0.0,0.0,-0.2465,-0.2296,-0.2071,0.0,0.0,0.0,0.0,0.0,-0.0449,-0.0168,0.0168,0.028,0.0,0.1122,0.1515,0.0,0.0,0.0,0.0,0.0,0.0,0.0,0.0,0.0,0.0,0.0,0.0,0.0,0.0,0.0,0.0,0.0,0.0,0.0,0.0,0.0,0.0,0.0,0.0,0.0,-0.1065,-0.1737,-0.235,-0.2963,-0.3463,-0.391,-0.419,-0.4411,-0.4908,-0.5454,-0.5941,-0.6534,-0.723,-0.8037,0.0,-0.9555,-1.049,-1.1108,-1.1801,-1.254,-1.2967,-1.3314,-1.3716,-1.428,-1.4911,-1.5591,0.0,0.0,0.0,0.0,0.0,0.0,0.0,0.0,0.0,0.0,0.0,0.0,0.0,0.0,0.0,0.0,0.0,0.0,0.0,0.0,0.3132,0.2776,0.2326,0.2082,0.2012,0.1372,0.0738,0.0224,-0.0617,-0.1289,-0.1792,-0.2517,-0.3021,-0.3416,-0.3471,-0.3768,-0.4235,-0.4174,-0.4325,-0.4619,0.0,0.0,0.0,0.0,0.0,0.0,0.0,0.0,0.0,0.0,0.0,0.0,0.0,0.0,0.0,-0.1291,-0.0898,-0.0393,-0.0393,-0.0056,0.028,0.0393,0.0,0.1122,0.1459,0.0,0.0,0.0,0.0,0.0,0.0,0.0,0.0,0.0,0.0,0.0,0.0,0.0,0.0,0.0,0.0,0.0,0.0,0.0,0.0,0.0,0.0,0.0,0.0,0.0,-0.1569,-0.2296,-0.283,-0.3382,-0.391,-0.4429,-0.4761,-0.4849,-0.5454,-0.5996,-0.6426,-0.7122,-0.7824,-0.858,-0.9354,-1.0182,-1.0956,-1.1719,-1.2353,-1.2967,-1.3362,-1.381,-1.4348,-1.4958,-1.5707,-1.6549,0.0,0.0,0.0,0.0,0.0,0.0,0.0,0.0,0.0,0.0,0.0,0.0,0.0,0.0,0.0,0.0,0.0,0.0,0.0,0.0,0.2773,0.2368,0.1957,0.1747,0.1714,0.1148,0.0594,0.0224,-0.0449,-0.1122,-0.1797,-0.2411,-0.2747,-0.2802,-0.3021,-0.3362,-0.3747,-0.3569,-0.3697,-0.4018,-0.3779,0.0,0.0,0.0,0.0,0.0,0.0,0.0,0.0,0.0,0.0,0.0,0.0,0.0,-0.1291,0.0,-0.0898,-0.0393,-0.0393,0.0,0.0393,0.0393,0.0673,0.0,0.1234,0.1681,0.0,0.0,0.0,0.0,0.0,0.0,0.0,0.0,0.0,0.0,0.0,0.0,0.0,0.0,0.0,0.0,0.0,0.0,0.0,0.0,0.0,0.0,0.0,0.0,0.0,-0.2635,-0.2929,-0.3463,-0.419,-0.4545,-0.4862,-0.5281,-0.5882,-0.648,-0.7031,-0.761,-0.8249,-0.9008,-0.9666,-1.0482,-1.1326,-1.1977,-1.2657,-1.3218,-1.3763,-1.4384,-1.512,-1.5788,-1.6349,-1.6983,0.0,0.0,0.0,0.0,0.0,0.0,0.0,0.0,0.0,0.0,0.0,0.0,0.0,0.0,0.0,0.0,0.0,0.0,0.0,0.2612,0.2324,0.1955,0.1683,0.139,0.1148,0.0846,0.0488,0.0056,-0.0505,-0.1178,-0.1797,-0.213,-0.241,-0.2693,-0.2917,-0.3191,-0.3513,-0.352,-0.363,-0.3823,-0.3654,-0.3535,0.0,0.0,0.0,0.0,0.0,0.0,0.0,0.0,-0.2252,0.0,0.0,0.0,0.0,0.0,-0.0785,-0.0393,-0.0393,-0.0056,0.028,0.0393,0.0,0.0,0.0,0.0,0.0,0.0,0.0,0.0,0.0,0.0,0.0,0.0,0.0,0.0,0.0,0.0,0.0,0.0,0.0,0.0,0.0,0.0,0.0,0.0,0.0,0.0,0.0,0.0,0.0,-0.2929,-0.3313,-0.3844,-0.4492,-0.4955,-0.5536,-0.6154,-0.6426,-0.681,-0.7354,-0.7937,-0.8626,-0.9413,-0.9984,-1.0804,-1.1728,-1.2332,-1.29,-1.3515,-1.4197,-1.4944,-1.5648,-1.6056,-1.692,-1.7959,0.0,0.0,0.0,0.0,0.0,0.0,0.0,0.0,0.0,0.0,0.0,0.0,0.0,0.0,0.0,0.0,0.0,0.0,0.2611,0.2289,0.1985,0.1699,0.1394,0.1119,0.0746,0.0592,0.0383,0.0,-0.0617,-0.1122,-0.1572,-0.185,-0.2141,-0.2507,-0.2737,-0.3009,-0.3317,-0.3387,-0.3535,-0.3627,-0.3429,-0.3255,0.0,0.0,0.0,0.0,0.0,0.0,0.0,0.0,0.0,0.0,0.0,0.0,0.0,0.0,0.0,-0.0393,-0.0393,-0.0112,0.0224,0.0,0.0,0.0,0.0,0.0,0.0,0.0,0.0,0.0,0.0,0.0,0.0,0.0,0.0,0.0,0.0,0.0,0.0,0.0,0.0,0.0,0.0,0.0,0.0,0.0,0.0,0.0,0.0,0.0,-0.2832,-0.3292,-0.3631,-0.4196,-0.4867,-0.5281,-0.5949,-0.6761,-0.6869,-0.7246,-0.7783,-0.8368,-0.9054,-0.9777,-1.0344,-1.1116,-1.1927,-1.2529,-1.32,-1.3915,-1.47,-1.5438,-1.6102,-1.6584,-1.7506,-1.8583,0.0,0.0,0.0,0.0,0.0,0.0,0.0,0.0,0.0,0.0,0.0,0.0,0.0,0.0,0.0,0.0,0.0,0.0,0.2417,0.2164,0.1865,0.1616,0.1203,0.0853,0.0586,0.0441,0.028,0.0,-0.0617,-0.0954,-0.1122,-0.1572,-0.1884,-0.2118,-0.2472,-0.2804,-0.3091,-0.3091,-0.3144,-0.3159,-0.3025,-0.2889,-0.2686,0.0,0.0,0.0,0.0,0.0,0.0,0.0,0.0,0.0,0.0,0.0,0.0,0.0,-0.0785,-0.0393,-0.0393,-0.0112,0.0,0.0,0.0,0.0,0.0,0.0,0.0,0.0,0.0,0.0,0.0,0.0,0.0,0.0,0.0,0.0,0.0,0.0,0.0,0.0,0.0,0.0,0.0,0.0,0.0,0.0,0.0,0.0,0.0,0.0,-0.3182,-0.3764,-0.385,-0.4372,-0.5271,-0.5453,-0.5964,-0.6933,-0.7306,-0.7836,-0.8421,-0.8949,-0.9472,-1.0051,-1.0769,-1.1427,-1.1977,-1.2627,-1.3498,-1.4474,-1.5196,-1.5841,-1.6421,-1.742,-1.8154,-1.8695,0.0,0.0,0.0,0.0,0.0,0.0,0.0,0.0,0.0,0.0,0.0,0.0,0.0,0.0,0.0,0.0,0.0,0.0,0.2269,0.1963,0.1677,0.1415,0.1194,0.0939,0.0663,0.039,0.0112,-0.0168,-0.0336,-0.0617,-0.0954,-0.1291,-0.1655,-0.2002,-0.2349,-0.2613,-0.2775,-0.2829,-0.2799,-0.2822,-0.282,-0.2753,-0.2686,0.0,0.0,0.0,0.0,0.0,0.0,0.0,0.0,0.0,0.0,0.0,0.0,-0.101,-0.0673,-0.0393,-0.0393,0.0,0.0,0.0,0.0,0.0,0.0,0.0,0.0,0.0,0.0,0.0,0.0,0.0,0.0,0.0,0.0,0.0,0.0,0.0,0.0,0.0,0.0,0.0,0.0,0.0,0.0,0.0,0.0,0.0,0.0,0.0,-0.3516,-0.3935,-0.4086,-0.4554,-0.5281,-0.5726,-0.6415,-0.7306,-0.7895,-0.8209,-0.8421,-0.8949,-0.9524,-1.0198,-1.082,-1.1477,-1.2126,-1.2997,-1.3914,-1.4801,-1.5282,-1.6215,-1.7245,-1.7639,-1.8382,-1.9199,0.0,0.0,0.0,0.0,0.0,0.0,0.0,0.0,0.0,0.0,0.3883,0.0,0.0,0.0,0.0,0.0,0.0,0.0,0.0,0.1827,0.1578,0.1306,0.111,0.0898,0.0729,0.0449,0.0224,0.0056,-0.0112,-0.0393,-0.0842,-0.1024,-0.1339,-0.1741,-0.2106,-0.2235,-0.2299,-0.2469,-0.2487,-0.2353,-0.2353,-0.2351,-0.2284,0.0,0.0,0.0,0.0,0.0,0.0,0.0,0.0,0.0,0.0,0.0,0.0,-0.0954,-0.0673,-0.0393,-0.0393,0.0,0.0,0.0,0.0,0.0,0.0,0.0,0.0,0.0,0.0,0.0,0.0,0.0,0.0,0.0,0.0,0.0,0.0,0.0,0.0,0.0,0.0,0.0,0.0,0.0,0.0,0.0,0.0,0.0,0.0,0.0,-0.3682,-0.4035,-0.4412,-0.491,-0.559,-0.6126,-0.6815,-0.7681,-0.8156,-0.8527,-0.8738,-0.9211,-0.974,-1.036,-1.1167,-1.1828,-1.249,-1.3478,-1.43,-1.4979,-1.577,-1.6701,-1.7636,-1.7979,-1.867,-1.942,0.0,0.0,0.0,0.0,0.0,0.0,0.0,0.0,0.0,0.0,0.3297,0.3327,0.0,0.0,0.0,0.0,0.0,0.0,0.0,0.0,0.1515,0.1291,0.1066,0.0842,0.0729,0.0505,0.0449,0.0449,0.0056,-0.0336,-0.0617,-0.0812,-0.108,-0.1485,-0.1654,-0.1768,-0.1884,-0.2087,-0.2018,-0.1884,-0.1884,-0.1749,-0.1614,-0.1817,0.0,0.0,0.0,0.0,0.0,0.0,0.0,0.0,0.0,0.0,-0.1066,-0.0898,-0.0673,-0.0393,0.0,0.0,0.0,0.0,0.0,0.0,0.0,0.0,0.0,0.0,0.0,0.0,0.0,0.0,0.0,0.0,0.0,0.0,0.0,0.0,0.0,0.0,0.0,0.0,0.0,0.0,0.0,0.0,0.0,0.0,0.0,-0.3326,-0.3697,-0.4087,-0.4688,-0.5391,-0.6077,-0.6566,-0.7223,-0.7955,-0.8268,-0.8738,-0.9263,-0.9636,-1.0102,-1.0675,-1.1678,-1.2431,-1.2959,-1.393,-1.4584,-1.5098,-1.6488,-1.7258,-1.7728,-1.8395,-1.8934,-1.9473,0.0,0.0,0.0,0.0,0.0,0.0,0.0,0.0,0.0,0.0,0.0,0.0,0.0,0.0,0.0,0.0,0.0,0.0,0.0,0.0,0.1347,0.1291,0.1066,0.0898,0.0842,0.0729,0.0617,0.0617,0.028,0.0,-0.0168,-0.0406,-0.0719,-0.1113,-0.1335,-0.1506,-0.1681,-0.1681,-0.1681,-0.1681,-0.1681,-0.1614,-0.1614,-0.1681,-0.1681,0.0,0.0,0.0,0.0,0.0,0.0,0.0,-0.13,-0.1146,-0.1066,-0.0785,-0.0561,0.0,0.0,0.0,0.0,0.0,0.0,0.0,0.0,0.0,0.0,0.0,0.0,0.0,0.0,0.0,0.0,0.0,0.0,0.0,0.0,0.0,0.0,0.0,0.0,0.0,0.0,0.0,0.0,0.0,0.0,0.0,0.0,-0.3692,-0.3968,-0.4264,-0.4866,-0.5476,-0.6077,-0.6756,-0.7522,0.0,-0.8692,-0.9106,-0.951,-0.9836,-1.0506,-1.1469,-1.2026,-1.252,-1.3046,-1.392,-1.4713,-1.5399,-1.6569,-1.7421,-1.8043,-1.859,-1.9105,-1.9617,0.0,0.0,0.0,0.0,0.0,0.0,0.0,0.0,0.0,0.0,0.0,0.0,0.0,0.0,0.0,0.0,0.0,0.0,0.0,0.0,0.1234,0.1122,0.0968,0.0919,0.0919,0.0875,0.0823,0.0823,0.0588,0.0292,0.0,-0.0119,-0.0429,-0.0758,-0.0845,-0.0996,-0.1077,-0.1077,-0.1077,-0.1077,-0.1077,-0.1077,-0.1077,-0.1211,-0.1277,-0.1345,-0.1412,0.0,0.0,0.0,0.0,0.0,0.0,0.0,-0.0954,-0.0785,-0.0561,0.0,0.0,0.0,0.0,0.0,0.0,0.0,0.0,0.0,0.0,0.0,0.0,0.0,0.0,0.0,0.0,0.0,0.0,0.0,0.0,0.0,0.0,0.0,0.0,0.0,0.0,0.0,0.0,0.0,0.0,0.0,0.0,-0.3824,-0.417,-0.454,-0.5193,-0.5828,-0.6447,-0.7087,-0.7798,-0.8527,-0.8896,-0.9472,-1.0138,-1.0352,-1.0922,-1.1728,-1.2175,-1.2627,-1.3085,-1.4019,-1.47,-1.5279,-1.6513,-1.733,-1.7924,-1.8543,-1.9158,-1.9631,0.0,0.0,0.0,0.0,0.0,0.0,0.0,0.0,0.0,0.0,0.0,0.0,0.0,0.0,0.0,0.0,0.0,0.0,0.0,0.0,0.0,0.0954,0.0984,0.0943,0.0943,0.0973,0.0988,0.0988,0.0865,0.0611,0.012,0.0123,-0.0063,-0.0388,-0.0333,-0.0404,-0.0404,-0.0404,-0.0404,-0.0404,-0.0404,-0.0404,-0.0472,-0.0673,-0.0804,-0.1001,-0.1135,-0.1265,-0.1383,-0.1319,0.0,0.0,0.0,0.0,-0.0785,-0.0673,0.0,0.0,0.0,0.0,0.0,0.0,0.0,0.0,0.0,0.0,0.0,0.0,0.0,0.0,0.0,0.0,0.0,0.0,0.0,0.0,0.0,0.0,0.0,0.0,0.0,0.0,0.0,0.0,0.0,0.0,0.0,0.0,-0.3497,-0.3914,-0.4314,-0.4773,-0.5524,-0.6192,-0.6791,-0.7442,-0.8043,-0.8633,-0.9159,-0.9836,-1.0718,-1.0922,-1.1276,-1.1778,-1.2323,-1.2725,-1.3133,-1.4078,-1.4662,-1.5083,-1.6376,-1.7151,-1.7571,-1.8306,-1.8931,-1.937,0.0,0.0,0.0,0.0,0.0,0.0,0.0,0.0,0.0,0.0,0.3016,0.0,0.0,0.0,0.0,0.0,0.0,0.0,0.0,0.0,0.0,0.1234,0.1217,0.1179,0.1179,0.1033,0.0988,0.0988,0.0988,0.0875,0.0703,0.0513,0.0322,0.0194,0.02,0.0067,-0.0067,-0.0067,-0.0067,-0.0067,-0.0067,-0.0202,-0.0337,-0.0337,-0.0465,-0.0584,-0.0584,-0.0639,-0.0624,-0.0619,-0.0607,0.0,0.0,0.0,0.0,0.0,0.0,0.0,0.0,0.0,0.0,0.0,0.0,0.0,0.0,0.0,0.0,0.0,0.0,0.0,0.0,0.0,0.0,0.0,0.0,0.0,0.0,0.0,0.0,0.0,0.0,0.0,0.0,0.0,0.0,0.0,0.0,0.0,-0.3554,-0.3954,-0.4361,-0.4773,-0.5566,-0.6247,-0.6791,-0.7489,-0.8203,-0.8804,-0.9695,-1.0411,-1.0871,-1.1267,-1.1628,-1.2076,-1.248,-1.291,-1.3402,-1.4167,-1.4712,-1.5159,-1.6087,-1.6653,-1.6965,-1.7531,-1.8007,-1.8453,0.0,0.0,0.0,0.0,0.0,0.0,0.0,0.0,0.0,0.0,0.0,0.0,0.0,0.0,0.0,0.0,0.0,0.0,0.0,0.0,0.0,0.0,0.1356,0.1393,0.1393,0.133,0.1361,0.1361,0.1361,0.1305,0.0,0.1189,0.0859,0.0397,0.0395,0.0395,0.0263,0.0258,0.0192,0.0192,0.0192,0.0193,0.0064,0.0064,0.0,-0.0126,-0.0126,-0.025,-0.037,-0.0363,-0.0417,-0.047,-0.0461,0.0,0.0,0.0,0.0,0.0,0.0,0.0,0.0,0.0,0.0,0.0,0.0,0.0,0.0,0.0,0.0,0.0,0.0,0.0,0.0,0.0,0.0,0.0,0.0,0.0,0.0,0.0,0.0,0.0,0.0,0.0,0.0,0.0,0.0,-0.3279,-0.3799,-0.4079,-0.4491,-0.5076,-0.5705,-0.6328,-0.6987,-0.7606,-0.8355,-0.9263,-1.0051,-1.0624,-1.1023,-1.1528,-1.1877,-1.2224,-1.2627,-1.3055,-1.343,-1.4068,-1.4547,-1.4935,-1.5799,-1.6332,-1.6753,-1.7436,-1.7989,-1.8376,0.0,0.0,0.0,0.0,0.0,0.0,0.0,0.0,0.0,0.0,0.0,0.0,0.0,0.0,0.0,0.0,0.0,0.0,0.0,0.0,0.0,0.0,0.0,0.1549,0.1562,0.1575,0.1614,0.1614,0.1614,0.0,0.1614,0.1614,0.1341,0.0,0.0782,0.0772,0.0702,0.0686,0.0679,0.0679,0.0679,0.0617,0.0617,0.0556,0.043,0.0305,0.0244,0.0061,-0.012,-0.0117,-0.0175,-0.029,-0.0226,0.0,0.0,0.0,0.0,0.0,0.0,0.0,0.0,0.0,0.0,0.0,0.0,0.0,0.0,0.0,0.0,0.0,0.0,0.0,0.0,0.0,0.0,0.0,0.0,0.0,0.0,0.0,0.0,0.0,0.0,0.0,0.0,0.0,0.0,-0.3243,-0.3874,-0.4154,-0.4599,-0.5267,-0.5845,-0.6423,-0.7079,-0.7777,-0.8613,-0.9614,-1.0205,-1.0726,-1.1175,-1.1669,-1.2076,-1.2431,-1.2822,-1.32,-1.3563,-1.4035,-1.4466,-1.4822,-1.5521,-1.6044,-1.6474,-1.7198,-1.7718,-1.8125,0.0,0.0,0.0,0.0,0.0,0.0,0.0,0.0,0.0,0.0,0.0,0.0,0.0,0.2577,0.2521,0.2465,0.2296,0.2127,0.2015,0.185,0.182,0.1873,0.0,0.0,0.1799,0.1656,0.1614,0.1614,0.0,0.0,0.1614,0.1614,0.1592,0.1614,0.1483,0.1397,0.1363,0.0,0.0,0.136,0.136,0.1297,0.1112,0.0,0.0,0.0,0.0,0.0405,0.0338,0.0337,0.0337,0.0337,0.0,0.0,0.0,0.0,0.0,0.0,0.0,0.0,0.0,0.0,0.0,0.0,0.0,0.0,0.0,0.0,0.0,0.0,0.0,0.0,0.0,0.0,0.0,0.0,0.0,0.0,0.0,0.0,0.0,0.0,0.0,0.0,0.0,0.0,0.0,-0.3131,-0.3592,-0.4151,-0.474,-0.5276,-0.5877,-0.647,-0.7085,-0.8209,-0.9054,-0.9614,-1.0205,-1.0769,-1.1326,-1.1719,-1.2175,-1.2676,-1.3035,-1.342,-1.3821,-1.4233,-1.4605,-1.4915,-1.5357,-1.565,-1.5885,-1.638,-1.6739,-1.7037,0.0,0.0,0.0,0.0,0.0,0.0,0.0,0.0,0.0,0.0,0.0,0.0,0.0,0.2635,0.2577,0.2521,0.2296,0.2183,0.2127,0.2073,0.2104,0.2232,0.2122,0.2064,0.2126,0.2055,0.2018,0.0,0.0,0.2153,0.2283,0.2245,0.2257,0.2193,0.1817,0.1663,0.1673,0.1639,0.0,0.1683,0.1683,0.1568,0.1453,0.0,0.0,0.0,0.0,0.0,0.0,0.0,0.0,0.0,0.0,0.0,0.0,0.0,0.0,0.0,0.0,0.0,0.0,0.0,0.0,0.0,0.0,0.0,0.0,0.0,0.0,0.0,0.0,0.0,0.0,0.0,0.0,0.0,0.0,0.0,0.0,0.0,0.0,0.0,0.0,0.0,0.0,0.0,0.0,-0.2881,-0.3452,-0.3841,-0.4386,-0.5135,-0.5742,-0.6539,-0.7456,-0.8256,-0.8896,-0.9361,-0.9888,-1.0462,-1.1074,-1.1528,-1.2126,-1.2725,-1.3132,-1.3563,-1.3962,-1.443,-1.488,-1.5322,-1.5603,-1.5913,-1.6306,-1.6607,-1.6989,-1.7365,0.0,0.0,0.0,0.0,0.0,0.0,0.0,0.0,0.0,0.0,0.0,0.0,0.0,0.0,0.2691,0.2577,0.2408,0.2296,0.2296,0.2264,0.2312,0.2448,0.234,0.2348,0.2417,0.2398,0.2421,0.0,0.0,0.0,0.0,0.2678,0.2665,0.2711,0.2314,0.2086,0.0,0.0,0.0,0.2015,0.2015,0.1961,0.1796,0.0,0.0,0.0,0.0,0.0,0.0,0.0,0.0,0.0,0.0,0.0,0.0,0.0,0.0,0.0,0.0,0.0,0.0,0.0,0.0,0.0,0.0,0.0,0.0,0.0,0.0,0.0,0.0,0.0,0.0,0.0,0.0,0.0,0.0,0.0,0.0,0.0,0.0,0.0,0.0,0.0,0.0,0.0,0.0,0.0,-0.3241,-0.3664,-0.4304,-0.5285,-0.5941,-0.6701,-0.7622,-0.8256,-0.8732,-0.9211,-0.974,-1.0308,-1.0922,-1.1477,-1.2026,-1.2676,-1.3132,-1.361,-1.4104,-1.4558,-1.5062,-1.5513,-1.5836,-1.6175,-1.6522,-1.6876,-1.7199,-1.7557,0.0,0.0,0.0,0.0,0.0,0.0,0.0,0.0,0.0,0.3074,0.0,0.0,0.0,0.0,0.0,0.2691,0.2579,0.2525,0.2525,0.2431,0.245,0.253,0.2605,0.2613,0.2684,0.2686,0.2686,0.0,0.0,0.0,0.0,0.0,0.2975,0.3197,0.3093,0.2826,0.2521,0.0,0.2635,0.2521,0.0,0.2408,0.2184,0.0,0.0,0.0,0.1846,0.1737,0.0,0.1628,0.0,0.0,0.0,0.0,0.0,0.0,0.0,0.0,0.0,0.0,0.0,0.0,0.0,0.0,0.0,0.0,0.0,0.0,0.0,0.0,0.0,0.0,0.0,0.0,0.0,0.0,0.0,0.0,0.0,0.0,0.0,0.0,0.0,0.0,0.0,0.0,-0.1849,-0.2462,-0.3074,-0.3688,-0.457,-0.5773,-0.6376,-0.6977,-0.7467,-0.8103,-0.8685,-0.9211,-0.9732,-1.0308,-1.0922,-1.1427,-1.1977,-1.252,-1.2987,-1.3552,-1.4222,-1.472,-1.5142,-1.5558,-1.6013,-1.6318,-1.6565,-1.7031,-1.7323,-1.7557,0.0,0.0,0.0,0.0,0.0,0.0,0.3074,0.3074,0.3074,0.0,0.0,0.0,0.3021,0.3021,0.2968,0.286,0.2862,0.2842,0.2731,0.2811,0.2835,0.2923,0.2821,0.2807,0.2887,0.2753,0.2753,0.0,0.0,0.0,0.0,0.0,0.0,0.0,0.349,0.3442,0.3408,0.3132,0.0,0.291,0.291,0.2852,0.0,0.0,0.0,0.0,0.0,0.2071,0.2017,0.0,0.1961,0.18,0.0,0.0,0.0,0.0,0.0,0.0,0.1596,0.0,0.0,0.0,0.0,0.0,0.0,0.0,0.0,0.0,0.0,0.0,0.0,0.0,0.0,0.0,0.0,0.0,0.0,0.0,0.0,0.0,0.0,0.0,0.0,0.0,0.0,0.0,-0.157,-0.213,-0.2633,-0.3855,-0.4853,-0.5618,-0.6322,-0.6923,-0.7365,-0.7949,-0.8487,-0.891,-0.9465,-1.0043,-1.0624,-1.1175,-1.1778,-1.2372,-1.2832,-1.3457,-1.4104,-1.4686,-1.5232,-1.5748,-1.6188,-1.6534,-1.6833,-1.7225,-1.7515,-1.7828,0.0,0.0,0.0,0.0,0.0,0.0,0.3299,0.3302,0.3302,0.0,0.0,0.0,0.3251,0.3237,0.3208,0.3154,0.3205,0.3177,0.3122,0.3149,0.3162,0.3217,0.3061,0.2973,0.309,0.3025,0.3092,0.0,0.0,0.0,0.0,0.0,0.0,0.0,0.0,0.0,0.0,0.0,0.0,0.0,0.3355,0.0,0.0,0.291,0.28,0.0,0.0,0.0,0.2462,0.2408,0.224,0.0,0.0,0.0,0.0,0.0,0.0,0.0,0.0,0.0,0.0,0.0,0.0,0.0,0.0,0.2237,0.0,0.0,0.0,0.0,0.0,0.0,0.0,0.0,0.0,0.0,0.0,0.0,0.0,0.0,0.0,0.0,0.0,0.0,0.0,-0.0785,-0.1403,-0.202,-0.2687,-0.3852,-0.4794,-0.5348,-0.6105,-0.6707,-0.7198,-0.7783,-0.8315,-0.8745,-0.9309,-0.988,-1.0411,-1.1023,-1.1628,-1.2224,-1.2706,-1.3238,-1.3868,-1.4455,-1.5096,-1.5736,-1.6163,-1.6565,-1.6888,-1.7308,-1.7638,-1.7963,0.0,0.0,0.0,0.3506,0.3508,0.3564,0.368,0.368,0.368,0.0,0.368,0.3661,0.3595,0.3575,0.3574,0.3574,0.3522,0.353,0.353,0.3439,0.343,0.343,0.3317,0.3293,0.3293,0.3429,0.3565,0.0,0.0,0.0,0.0,0.0,0.0,0.0,0.0,0.0,0.0,0.0,0.0,0.3852,0.3691,0.3583,0.0,0.0,0.3186,0.3132,0.313,0.3019,0.2907,0.28,0.2521,0.0,0.0,0.0,0.0,0.0,0.2502,0.0,0.0,0.0,0.0,0.0,0.0,0.0,0.2441,0.2474,0.2521,0.0,0.0,0.0,0.0,0.0,0.0,0.0,0.0,0.0,0.0,0.0,0.0,0.0,0.0,0.0,0.0,-0.0224,-0.0449,-0.0673,-0.129,-0.2074,-0.3019,-0.3793,-0.4457,-0.5069,-0.5773,-0.6426,-0.7031,-0.761,-0.809,-0.8573,-0.9249,-0.9777,-1.0198,-1.0913,-1.1528,-1.2076,-1.248,-1.3007,-1.3621,-1.414,-1.4789,-1.5513,-1.6064,-1.6479,-1.6761,-1.7282,-1.7652,-1.7922,0.0,0.0,0.0,0.4282,0.4282,0.4285,0.4345,0.4345,0.4345,0.4345,0.4345,0.4294,0.4321,0.4169,0.4,0.3939,0.3773,0.37,0.3578,0.3673,0.373,0.373,0.3682,0.3692,0.3692,0.3692,0.3758,0.3758,0.0,0.0,0.0,0.0,0.0,0.0,0.0,0.0,0.0,0.0,0.0,0.4353,0.4021,0.0,0.3855,0.3741,0.3577,0.3471,0.3357,0.3244,0.3074,0.3021,0.2912,0.2763,0.0,0.0,0.0,0.0,0.0,0.0,0.0,0.0,0.0,0.0,0.0,0.0,0.2812,0.2805,0.2858,0.0,0.0,0.0,0.0,0.0,0.0,0.0,0.0,0.0,0.0,0.0,0.0,0.0,0.0,0.0,0.0,-0.0168,-0.028,-0.0449,-0.1344,-0.2238,-0.2905,-0.363,-0.4298,-0.4901,-0.5555,-0.6154,-0.6756,-0.7295,-0.7889,-0.8421,-0.8995,-0.9524,-1.0051,-1.0667,-1.1267,-1.1828,-1.2323,-1.2803,-1.3314,-1.3868,-1.4605,-1.54,-1.6001,-1.6405,-1.6761,-1.7225,-1.7556,-1.7801,0.0,0.0,0.0,0.4607,0.4607,0.4607,0.4725,0.4725,0.4725,0.4725,0.4729,0.465,0.4584,0.4523,0.4501,0.4435,0.4364,0.427,0.4208,0.4196,0.4225,0.4225,0.409,0.4023,0.4023,0.4159,0.4225,0.4225,0.0,0.0,0.0,0.0,0.0,0.0,0.0,0.0,0.0,0.0,0.4739,0.468,0.4353,0.0,0.4079,0.3965,0.3855,0.3802,0.3747,0.3524,0.3357,0.3244,0.3168,0.0,0.0,0.3101,0.3099,0.0,0.296,0.2956,0.0,0.0,0.0,0.2822,0.0,0.0,0.0,0.3051,0.3023,0.0,0.0,0.0,0.0,0.0,0.0,0.0,0.0,0.0,0.0,0.0,0.0,0.0,0.0,0.0,0.0,-0.0056,-0.0336,-0.0617,-0.1345,-0.2017,-0.2517,-0.3299,-0.3965,-0.4508,-0.5222,-0.5882,-0.6544,-0.7133,-0.7729,-0.8321,-0.8748,-0.9184,-0.9647,-1.0156,-1.0607,-1.111,-1.173,-1.2244,-1.2728,-1.3433,-1.4176,-1.4915,-1.5724,-1.6219,-1.6565,-1.7183,-1.7528,-1.776,0.0,0.0,0.0,0.4937,0.4937,0.4996,0.5178,0.5178,0.5178,0.5178,0.5104,0.5054,0.4855,0.0,0.0,0.0,0.496,0.4897,0.0,0.4758,0.4691,0.4628,0.4489,0.4422,0.4422,0.4558,0.4628,0.4628,0.0,0.0,0.0,0.0,0.0,0.0,0.0,0.0,0.0,0.0,0.0,0.4897,0.0,0.4519,0.4301,0.4187,0.4132,0.4076,0.4024,0.3858,0.3644,0.3607,0.0,0.3414,0.3458,0.3532,0.0,0.0,0.0,0.0,0.0,0.0,0.0,0.0,0.0,0.3258,0.0,0.0,0.0,0.0,0.0,0.0,0.0,0.0,0.0,0.0,0.0,0.0,0.0,0.0,0.0,0.0,0.0,0.0,0.0,0.0,-0.0336,-0.0785,-0.1234,-0.1682,-0.2127,-0.2854,-0.3522,-0.4067,-0.4783,-0.55,-0.6218,-0.6864,-0.7433,-0.7982,-0.8362,-0.8764,-0.9099,-0.9478,-0.9902,-1.0353,-1.1046,-1.164,-1.2144,-1.299,-1.3705,-1.4419,-1.5344,-1.592,-1.6367,-1.7044,-1.7446,-1.7679,0.5498,0.5632,0.0,0.0,0.5771,0.5767,0.5767,0.5767,0.5767,0.5767,0.5785,0.0,0.0,0.0,0.0,0.0,0.0,0.0,0.509,0.0,0.4957,0.4764,0.4761,0.4761,0.4761,0.4764,0.4764,0.4764,0.4957,0.0,0.0,0.0,0.0,0.0,0.5456,0.0,0.0,0.0,0.5155,0.0,0.5014,0.4959,0.0,0.4787,0.4625,0.4408,0.4132,0.3965,0.3987,0.0,0.392,0.3792,0.0,0.3842,0.3628,0.0,0.0,0.0,0.0,0.0,0.0,0.0,0.3474,0.0,0.0,0.0,0.0,0.0,0.0,0.0,0.0,0.0,0.0,0.0,0.0,0.0,0.0,0.0,0.0,0.0,0.0,0.0,0.0,0.0,-0.0168,-0.0449,-0.0898,-0.1401,-0.2015,-0.2519,-0.3077,-0.3624,-0.4408,-0.5073,-0.5677,-0.6431,-0.6924,-0.7241,-0.7765,-0.8161,-0.8438,-0.8965,-0.9452,-0.9918,-1.0664,-1.1349,-1.2004,-1.2742,-1.342,-1.415,-1.4994,-1.5724,-1.6275,-1.6748,-1.7141,-1.7474,0.5885,0.5951,0.0,0.0,0.0,0.0,0.0,0.0,0.0,0.0,0.0,0.0,0.0,0.0,0.0,0.0,0.0,0.5752,0.0,0.0,0.0,0.5425,0.5425,0.5425,0.5425,0.5425,0.5425,0.5425,0.5491,0.5624,0.0,0.0,0.0,0.0,0.586,0.0,0.5921,0.0,0.591,0.0,0.0,0.0,0.0,0.5143,0.4846,0.468,0.4467,0.4412,0.4378,0.0,0.4326,0.0,0.0,0.0,0.0,0.0,0.0,0.0,0.0,0.0,0.0,0.0,0.0,0.0,0.3607,0.0,0.3747,0.0,0.0,0.0,0.0,0.0,0.0,0.0,0.0,0.0,0.0,0.0,0.0,0.0,0.0,0.0,0.0,0.0,0.0,0.0,-0.0617,-0.1065,-0.1457,-0.2017,-0.2519,-0.3077,-0.3796,-0.4515,-0.5175,-0.5824,-0.6353,-0.6888,-0.7182,-0.7542,-0.7884,-0.8239,-0.8629,-0.9033,-0.9748,-1.0489,-1.1196,-1.2006,-1.2902,-1.3858,-1.4501,-1.5277,-1.6032,-1.6663,-1.7099,-1.7446,0.6222,0.0,0.0,0.0,0.0,0.0,0.0,0.0,0.0,0.0,0.0,0.0,0.6552,0.6552,0.0,0.0,0.6412,0.6346,0.0,0.0,0.6086,0.0,0.0,0.0,0.0,0.5954,0.5954,0.5888,0.5888,0.5954,0.0,0.0,0.0,0.0,0.0,0.6383,0.6459,0.0,0.0,0.6491,0.6491,0.6491,0.64,0.5588,0.5204,0.5152,0.5042,0.4948,0.4876,0.4855,0.4768,0.0,0.4797,0.0,0.0,0.0,0.0,0.0,0.4295,0.0,0.0,0.0,0.0,0.0,0.0,0.0,0.0,0.0,0.0,0.0,0.0,0.0,0.0,0.0,0.0,0.0,0.0,0.0,0.0,0.0,0.0,0.0,0.0,0.0,0.0,0.0224,-0.0224,-0.0561,-0.0898,-0.1456,-0.1961,-0.2465,-0.3186,-0.3889,-0.4613,-0.5185,-0.5794,-0.6386,-0.6602,-0.693,-0.7341,-0.7638,-0.7961,-0.8307,-0.9037,-0.9735,-1.0428,-1.138,-1.243,-1.3445,-1.4133,-1.4915,-1.5756,-1.6436,-1.6931,-1.7295,0.6881,0.6881,0.0,0.0,0.0,0.0,0.0,0.0,0.0,0.0,0.0,0.0,0.0,0.0,0.0,0.0,0.0,0.6811,0.6675,0.0,0.6613,0.0,0.0,0.635,0.0,0.621,0.6083,0.5888,0.5888,0.602,0.0,0.0,0.0,0.0,0.0,0.6832,0.6715,0.6706,0.6718,0.6667,0.6667,0.6667,0.6667,0.0,0.6048,0.5872,0.5743,0.0,0.0,0.5571,0.5375,0.0,0.0,0.0,0.0,0.0,0.0,0.0,0.0,0.0,0.0,0.4433,0.0,0.0,0.0,0.0,0.4024,0.0,0.0,0.0,0.0,0.0,0.0,0.0,0.0,0.0,0.0,0.0,0.0,0.0,0.0,0.0,0.0,0.0,0.0,0.0729,0.0336,0.0,-0.0393,-0.0898,-0.1345,-0.179,-0.2571,-0.3244,-0.3822,-0.455,-0.5148,-0.5523,-0.6013,-0.6381,-0.6738,-0.7202,-0.7579,-0.7934,-0.8637,-0.9263,-0.9899,-1.1031,-1.2012,-1.2919,-1.4014,-1.48,-1.5402,-1.6013,-1.6547,-1.6883,0.0,0.0,0.0,0.0,0.0,0.0,0.0,0.7596,0.0,0.0,0.0,0.0,0.0,0.7596,0.7596,0.0,0.0,0.74,0.7265,0.7195,0.0,0.0,0.0,0.6876,0.0,0.0,0.0,0.0,0.0,0.0,0.0,0.0,0.0,0.0,0.0,0.7293,0.0,0.0,0.0,0.0,0.0,0.757,0.7477,0.0,0.0,0.625,0.619,0.6022,0.0,0.5935,0.5837,0.5618,0.5741,0.5627,0.5557,0.5557,0.5557,0.0,0.0,0.0,0.5098,0.4832,0.0,0.0,0.0,0.0,0.0,0.0,0.0,0.0,0.0,0.0,0.0,0.0,0.0,0.0,0.0,0.0,0.0,0.0,0.0,0.0,0.0,0.0,0.0,0.1122,0.0842,0.0505,0.0168,-0.0336,-0.0785,-0.1177,-0.1902,-0.2585,-0.3129,-0.3776,-0.433,-0.4768,-0.5356,-0.5815,-0.6252,-0.6816,-0.7286,-0.7655,-0.8101,-0.8744,-0.9512,-1.0275,-1.1154,-1.2063,-1.278,-1.3455,-1.4147,-1.5659,-1.6253,-1.629,0.7987,0.0,0.0,0.0,0.0,0.0,0.0,0.0,0.0,0.0,0.7987,0.0,0.7987,0.0,0.7922,0.0,0.7792,0.7792,0.7657,0.7657,0.0,0.7466,0.7466,0.0,0.0,0.0,0.0,0.0,0.0,0.7007,0.0,0.0,0.0,0.0,0.0,0.7657,0.7722,0.0,0.8052,0.0,0.0,0.8312,0.0,0.0,0.713,0.6821,0.0,0.6585,0.6369,0.6369,0.6254,0.6086,0.6086,0.602,0.5888,0.5888,0.5888,0.5888,0.5752,0.5571,0.0,0.5128,0.5036,0.0,0.4779,0.0,0.0,0.0,0.0,0.0,0.0,0.0,0.0,0.0,0.0,0.0,0.0,0.0,0.0,0.0,0.0,0.0,0.0,0.0,0.2238,0.1682,0.1345,0.1064,0.0,0.0,-0.028,-0.0561,-0.1274,-0.1891,-0.2395,-0.2961,-0.357,-0.4123,-0.4675,-0.5265,-0.583,-0.6392,-0.6907,-0.7321,-0.7648,-0.8276,-0.9013,-0.9682,-1.0526,-1.1433,-1.2097,-1.2711,-1.3425,-1.4881,-1.5377,-1.5389,0.0,0.0,0.0,0.0,0.8057,0.0,0.0,0.0,0.8072,0.0,0.8083,0.8083,0.8083,0.8083,0.8083,0.8083,0.8083,0.0,0.8083,0.8083,0.0,0.0,0.8083,0.7957,0.7761,0.0,0.0,0.0,0.0,0.0,0.0,0.0,0.0,0.0,0.7922,0.0,0.8052,0.8052,0.8247,0.8576,0.8894,0.8829,0.8517,0.8511,0.8117,0.7521,0.7526,0.7265,0.6946,0.6946,0.6683,0.642,0.642,0.6222,0.5954,0.5954,0.5954,0.5954,0.5954,0.5758,0.559,0.5441,0.0,0.0,0.0,0.0,0.4901,0.0,0.0,0.0,0.0,0.0,0.0,0.0,0.0,0.0,0.0,0.0,0.0,0.0,0.0,0.0,0.0,0.3019,0.274,0.2294,0.2015,0.0,0.0,0.0,0.0336,0.0056,-0.0542,-0.1098,-0.1609,-0.218,-0.2792,-0.3517,-0.4008,-0.4666,-0.5448,-0.5964,-0.6441,-0.6872,-0.728,-0.7821,-0.8438,-0.9283,-1.0149,-1.102,-1.1858,-1.2573,-1.3197,-1.3749,-1.4069,-1.4217,0.8759,0.8759,0.8814,0.0,0.8875,0.882,0.0,0.0,0.0,0.0,0.9314,0.9314,0.9314,0.9314,0.9314,0.9314,0.9314,0.0,0.0,0.0,0.0,0.8965,0.8959,0.8827,0.8418,0.8418,0.0,0.8023,0.0,0.0,0.7792,0.0,0.0,0.0,0.0,0.0,0.8382,0.8635,0.8765,0.8894,0.8952,0.8952,0.0,0.0,0.8511,0.8182,0.7792,0.7531,0.733,0.7204,0.6942,0.6749,0.6749,0.6683,0.6618,0.6618,0.6618,0.6618,0.6618,0.6316,0.5933,0.5949,0.5591,0.5242,0.0,0.0,0.0,0.0,0.0,0.0,0.0,0.0,0.0,0.0,0.0,0.0,0.0,0.0,0.0,0.0,0.0,0.0,0.0,0.3522,0.3246,0.2907,0.2519,0.0,0.0,0.0,0.0,0.0842,0.0217,-0.0261,-0.0655,-0.1407,-0.2003,-0.2499,-0.3385,-0.4092,-0.4622,-0.5361,-0.5922,-0.6398,-0.6901,-0.7482,-0.8085,-0.87,-0.9348,-1.0033,-1.0626,-1.1308,-1.2047,-1.3112,-1.359,-1.3729,0.9354,0.0,0.0,0.9808,0.0,0.0,0.961,0.0,0.0,0.9765,0.9788,0.0,0.9788,0.9788,0.9788,0.9788,0.9788,0.0,0.9788,0.0,0.0,0.9497,0.9497,0.9427,0.9152,0.9152,0.0,0.887,0.0,0.0,0.8525,0.0,0.0,0.0,0.0,0.87,0.0,0.9017,0.9145,0.9145,0.9215,0.0,0.0,0.9022,0.8829,0.8576,0.8187,0.7922,0.7657,0.7466,0.7335,0.7138,0.7073,0.6946,0.6881,0.6881,0.6881,0.6881,0.6881,0.6598,0.6246,0.6246,0.5846,0.5521,0.5521,0.5521,0.5521,0.0,0.0,0.0,0.0,0.0,0.0,0.0,0.0,0.0,0.0,0.0,0.0,0.0,0.0,0.0,0.0,0.0,0.0,0.0,0.0,0.0,0.0,0.0,0.0,0.1513,0.0908,0.0412,0.005,-0.0668,-0.1283,-0.1789,-0.2588,-0.3296,-0.3917,-0.4661,-0.5231,-0.575,-0.6386,-0.6985,-0.7572,-0.8144,-0.8788,-0.9421,-1.0108,-1.0687,-1.1239,-1.1914,-1.2441,-1.2864,0.0,0.0,0.0,0.0,0.0,0.0,0.0,0.9991,0.0,1.0014,0.0,1.002,1.002,1.002,1.002,1.002,0.0,1.002,1.002,1.002,0.9949,0.9949,0.9949,0.9949,0.9879,0.9879,0.0,0.0,0.0,0.0,0.0,0.0,0.0,0.0,0.0,0.0,0.0,0.9274,0.9402,0.9402,0.9542,0.9478,0.9338,0.9338,0.9145,0.8835,0.8641,0.8317,0.7987,0.7792,0.7661,0.7526,0.7335,0.7138,0.7012,0.7012,0.7012,0.7012,0.7012,0.6728,0.6431,0.6431,0.6138,0.5795,0.5795,0.5795,0.5795,0.5795,0.5795,0.5795,0.0,0.0,0.0,0.0,0.0,0.0,0.0,0.0,0.0,0.0,0.0,0.0,0.0,0.0,0.0,0.0,0.0,0.0,0.0,0.0,0.0,0.2127,0.1578,0.1064,0.0655,0.0,-0.0585,-0.1254,-0.1743,-0.2408,-0.3249,-0.3873,-0.4443,-0.5014,-0.575,-0.6349,-0.6937,-0.7599,-0.8292,-0.9062,-0.9873,-1.0341,-1.0562,-1.0562,-1.1008,-1.1641,0.0,0.0,0.0,0.0,0.0,1.1228,1.1382,1.1153,1.1091,1.1315,1.1346,1.1346,1.1346,1.1346,1.1346,1.1346,1.1199,0.0,0.0,0.0,0.0,1.0609,1.0609,1.0535,1.0387,1.0387,1.0284,0.0,0.0,0.0,0.0,0.0,0.0,0.0,0.0,0.0,0.967,0.967,0.0,0.9856,0.9926,0.9862,0.967,0.9524,0.9332,0.9145,0.8829,0.8506,0.8172,0.7982,0.7922,0.7922,0.7857,0.7727,0.7536,0.7536,0.7466,0.7396,0.7396,0.697,0.6547,0.6547,0.6191,0.5795,0.5795,0.5795,0.5795,0.5795,0.5795,0.5795,0.5795,0.0,0.0,0.0,0.0,0.0,0.0,0.0,0.0,0.0,0.0,0.0,0.0,0.0,0.0,0.0,0.0,0.0,0.0,0.0,0.0,0.0,0.2314,0.0,0.0,0.0,0.0185,-0.0403,-0.1119,-0.1743,-0.2364,-0.307,-0.3734,-0.4312,-0.5009,-0.561,-0.6209,-0.6888,-0.7841,-0.8861,-0.931,-0.9588,-0.9776,-0.9776,-0.9894,-1.0118,0.0,0.0,0.0,0.0,0.0,0.0,0.0,1.2184,0.0,1.1761,1.1706,1.1706,1.1706,1.1706,1.1706,1.1706,1.1632,1.1558,1.1558,1.1484,1.1335,1.126,1.126,0.0,1.1111,1.1037,1.0902,1.0857,0.0,0.0,0.0,0.0,0.0,0.0,0.0,0.9728,0.0,0.0,0.0,0.9983,0.9983,0.9989,0.9862,0.9728,0.953,0.9396,0.9145,0.8888,0.856,0.8236,0.8112,0.8112,0.8052,0.7922,0.7857,0.7857,0.7792,0.7787,0.7787,0.7346,0.6957,0.6957,0.6587,0.6277,0.6277,0.6277,0.6223,0.6114,0.6119,0.6064,0.6014,0.6014,0.0,0.0,0.0,0.0,0.0,0.0,0.0,0.0,0.0,0.0,0.0,0.0,0.0,0.0,0.0,0.0,0.0,0.0,0.0,0.0,0.0,0.0,0.0,0.0,0.0,0.0462,-0.0181,-0.0849,-0.152,-0.2184,-0.2804,-0.3426,-0.4172,-0.4783,-0.5346,-0.6331,-0.7252,-0.8072,-0.8407,-0.865,-0.8861,-0.891,-0.891,-0.907,0.0,1.2452,0.0,0.0,1.2673,0.0,1.29,1.29,1.2673,1.2003,1.1929,1.1929,1.1929,1.1929,1.1929,1.1929,1.1855,1.1781,1.1781,1.1706,1.1706,1.1706,1.1706,1.1706,1.1706,1.1558,1.1452,0.0,0.0,0.0,0.0,0.0,0.0,0.0,0.0,0.0,0.0,0.0,1.011,1.0117,1.0117,1.011,1.0047,0.9926,0.9792,0.9524,0.9396,0.921,0.9017,0.8495,0.8366,0.8301,0.8182,0.8052,0.8047,0.8047,0.8052,0.7987,0.7987,0.7658,0.7315,0.7315,0.6981,0.6701,0.6701,0.6701,0.6647,0.649,0.649,0.644,0.6282,0.6228,0.0,0.0,0.0,0.0,0.0,0.0,0.0,0.0,0.0,0.0,0.0,0.0,0.0,0.0,0.0,0.4908,0.4908,0.4463,0.4187,0.0,0.0,0.3154,0.3026,0.0,0.1797,0.1252,0.07,0.0046,-0.068,-0.1222,-0.1844,-0.2453,-0.3246,-0.3949,-0.4657,-0.5765,-0.6531,-0.7036,-0.737,-0.7668,-0.7923,-0.7979,-0.7979,-0.8103,0.0,0.0,0.0,0.0,0.0,0.0,1.29,1.29,1.29,1.282,1.2826,1.2826,1.2826,1.2826,1.2673,1.2526,1.2378,1.215,1.2003,1.1781,1.1706,1.1706,1.1706,1.1706,1.1706,1.1706,1.1586,0.0,0.0,0.0,0.0,0.0,0.0,0.0,0.0,0.0,0.0,1.0238,1.0364,1.0561,1.0561,1.0434,1.0238,1.0244,1.0053,0.9734,0.9524,0.9396,0.921,0.9017,0.8829,0.8705,0.8511,0.8312,0.8172,0.8172,0.8112,0.7987,0.7987,0.7658,0.7315,0.7315,0.6981,0.6701,0.6701,0.6701,0.6701,0.6647,0.6647,0.6598,0.644,0.6386,0.6332,0.0,0.0,0.0,0.0,0.0,0.0,0.0,0.0,0.0,0.0,0.0,0.0,0.0,0.0,0.5513,0.5513,0.5066,0.4791,0.4791,0.0,0.3781,0.3456,0.3006,0.2481,0.1802,0.1399,0.0833,0.0189,-0.0331,-0.0881,-0.1566,-0.2317,-0.3331,-0.4478,-0.499,-0.5594,-0.6161,-0.6374,-0.6622,-0.6917,-0.6959,-0.7007,-0.7105,0.0,0.0,0.0,0.0,0.0,0.0,0.0,1.3622,1.3622,1.3622,1.3193,1.29,1.29,1.29,1.29,1.2826,1.2673,1.2599,1.2526,1.2452,1.2452,1.2452,1.2305,1.2145,1.1972,1.1748,1.1468,0.0,0.0,0.0,0.0,0.0,0.0,0.0,0.0,1.0371,1.0498,1.0555,1.0681,1.0744,1.0877,1.0807,1.0618,1.0491,1.0308,1.0053,0.9856,0.9722,0.96,0.9396,0.9145,0.8894,0.8829,0.8759,0.8694,0.8565,0.8506,0.8409,0.8202,0.7921,0.7634,0.7444,0.7226,0.7036,0.6977,0.6923,0.6923,0.682,0.6761,0.6647,0.6598,0.649,0.6386,0.0,0.0,0.0,0.0,0.0,0.0,0.0,0.0,0.0,0.0,0.0,0.0,0.0,0.0,0.0,0.5837,0.5508,0.5289,0.5128,0.0,0.4378,0.4104,0.3643,0.3159,0.2754,0.2188,0.1599,0.0985,0.0481,-0.0326,-0.1387,-0.1964,-0.2716,-0.3554,-0.3993,-0.4474,-0.4913,-0.5255,-0.5513,-0.5733,-0.5856,-0.5947,-0.5947,1.4129,0.0,1.4129,0.0,1.4129,1.4201,1.4201,1.4201,1.4274,1.4274,1.3695,1.3331,1.3258,1.3258,1.3193,1.3119,1.3046,1.3046,1.29,1.29,1.29,1.29,1.2753,0.0,1.2303,1.2006,1.1607,1.1228,1.0889,0.0,0.0,0.0,0.0,0.0,1.0681,1.0751,1.0751,1.087,1.087,1.087,1.1059,1.0996,1.087,1.0807,1.0624,1.0371,1.0238,1.0053,0.9862,0.9658,0.9402,0.9215,0.9017,0.9017,0.8952,0.8894,0.8829,0.8773,0.8403,0.8221,0.7971,0.7619,0.7433,0.7311,0.7246,0.7192,0.7192,0.7041,0.6928,0.6815,0.6761,0.6657,0.6549,0.649,0.0,0.0,0.0,0.0,0.0,0.0,0.649,0.6598,0.6815,0.0,0.0,0.0,0.0,0.0,0.6218,0.595,0.0,0.0,0.0,0.0,0.0,0.4193,0.377,0.3506,0.2894,0.2328,0.1792,0.1121,0.0186,-0.0895,-0.134,-0.1919,-0.2499,-0.2943,-0.3337,-0.3734,-0.4081,-0.4391,-0.4613,-0.4739,-0.4826,-0.487,1.4129,1.4129,1.4129,1.4129,1.4281,1.4425,1.4425,1.4497,1.4569,1.4569,1.4497,1.4281,1.4129,1.4057,1.392,1.3499,1.3492,1.3346,1.29,1.29,1.29,0.0,0.0,1.2753,1.2367,1.236,1.213,1.1521,0.0,0.0,1.1066,0.0,1.1059,1.1059,1.1059,1.1059,1.1059,1.1122,1.1122,1.1122,1.1122,1.1122,1.1122,1.1059,1.0877,1.0624,1.0561,1.0371,0.9983,0.9868,0.9804,0.9676,0.9151,0.9017,0.9017,0.9017,0.9017,0.8965,0.8652,0.8468,0.8223,0.7955,0.7703,0.7521,0.7521,0.7521,0.7467,0.7317,0.7198,0.7031,0.6933,0.6879,0.6874,0.6707,0.0,0.0,0.0,0.0,0.0,0.0,0.6701,0.681,0.7085,0.0,0.0,0.0,0.0,0.0,0.0,0.0,0.0,0.6178,0.5626,0.0,0.5069,0.468,0.4294,0.3965,0.3574,0.313,0.2546,0.1479,0.0698,0.0134,-0.0313,-0.0851,-0.1433,-0.1832,-0.2275,-0.2719,-0.2854,-0.3208,-0.3609,-0.3609,-0.3734,-0.3909,1.4848,1.4848,1.4848,1.4848,1.4919,1.4919,1.4919,1.4991,1.4991,1.4991,1.4991,1.4919,1.4848,1.4418,1.4057,0.0,1.392,1.384,0.0,1.3695,1.363,1.3492,1.3136,1.2798,1.2344,1.1981,1.1605,1.1206,0.0,0.0,0.0,1.1122,1.1122,1.1122,1.1122,1.1122,1.1122,1.1185,1.1247,1.1247,1.1373,1.1373,1.1247,1.1247,1.1122,1.0933,1.0807,1.0618,1.0364,1.018,0.9989,0.974,0.9606,0.9478,0.935,0.921,0.9087,0.8838,0.8468,0.8276,0.808,0.7703,0.7632,0.7622,0.7521,0.7521,0.7467,0.7317,0.7257,0.7203,0.7036,0.6982,0.6879,0.682,0.6707,0.0,0.0,0.0,0.0,0.0,0.682,0.6928,0.0,0.7085,0.0,0.0,0.0,0.0,0.0,0.0,0.0,0.0,0.595,0.0,0.5242,0.5018,0.4739,0.4353,0.3965,0.346,0.2757,0.1972,0.1356,0.0932,0.0362,-0.0134,-0.0626,-0.1073,-0.1386,-0.1652,-0.1919,-0.214,-0.2364,-0.2497,-0.2586,-0.2674,1.5204,1.5204,1.5204,1.5204,1.5275,1.5275,1.5275,1.5355,1.5426,1.5426,1.5355,1.5275,1.5275,1.4848,0.0,1.4274,1.4209,1.4201,1.4129,1.4129,1.4065,1.3928,1.3469,1.3001,1.2601,1.2072,0.0,1.1373,1.131,1.131,1.131,1.131,1.131,1.131,1.131,1.131,1.131,1.1373,1.1428,1.1435,1.156,1.1498,1.1428,1.1428,1.1303,1.1185,1.1052,1.087,1.0618,1.0498,1.0244,0.9989,0.9868,0.974,0.9612,0.9408,0.9155,0.8894,0.8521,0.8328,0.8064,0.7746,0.7735,0.7729,0.7681,0.7622,0.7568,0.7467,0.7365,0.7257,0.7198,0.709,0.6982,0.6982,0.6869,0.6761,0.6761,0.0,0.0,0.0,0.0,0.0,0.0,0.7085,0.7085,0.0,0.0,0.0,0.0,0.0,0.0,0.6386,0.6109,0.0,0.5567,0.5293,0.5073,0.4794,0.4301,0.3787,0.3232,0.2558,0.2071,0.1661,0.1094,0.0626,0.0179,-0.0179,-0.0447,-0.0716,-0.0937,-0.1116,-0.134,-0.1385,-0.1474,-0.1564,1.5275,1.5275,1.5275,0.0,1.5417,0.0,1.5568,1.5726,1.5797,1.5797,1.5647,1.5576,1.5576,1.5355,1.5062,1.4713,0.0,0.0,0.0,1.4129,1.4129,1.4129,1.3721,1.3393,1.3088,1.2583,1.2116,1.1802,1.1685,1.1622,1.1622,1.1622,1.1622,1.1622,1.1622,1.1622,1.1622,1.1622,1.1622,1.1622,1.1622,1.1622,1.1622,1.1622,1.1498,1.1303,1.1303,1.1122,1.0807,1.0681,1.0498,1.0244,0.9932,0.9792,0.9709,0.9518,0.9256,0.9041,0.8723,0.8459,0.8207,0.7961,0.7901,0.7901,0.7901,0.7783,0.7723,0.7723,0.7521,0.7317,0.7311,0.7198,0.7139,0.7139,0.6982,0.6933,0.6933,0.0,0.0,0.0,0.0,0.0,0.0,0.7085,0.7085,0.0,0.0,0.0,0.0,0.0,0.6701,0.6701,0.6273,0.6,0.6,0.5567,0.5352,0.5297,0.4581,0.412,0.3934,0.3281,0.2768,0.2429,0.1872,0.1389,0.094,0.0805,0.0492,0.0089,0.0089,-0.0134,-0.0403,-0.0403,-0.0492,-0.0582,0.0,0.0,1.6061,1.6061,1.6061,1.6132,1.6132,1.6132,1.6211,1.6211,1.6061,1.5991,1.5991,1.5638,1.5355,1.5284,1.5141,1.4919,1.4721,1.4721,1.4577,1.4353,1.3723,1.3299,1.308,1.2485,1.2142,1.2058,1.1872,1.174,1.174,1.1622,1.1622,1.1622,1.1622,1.1622,1.1622,1.1685,1.174,1.1747,1.1934,1.2003,1.2003,1.2003,1.1872,1.1677,1.156,1.1373,1.1122,1.087,1.0618,1.0498,1.0244,0.9838,0.9476,0.9228,0.898,0.8711,0.8453,0.8195,0.7979,0.7919,0.7901,0.7901,0.7901,0.7901,0.7842,0.7723,0.7676,0.7568,0.7467,0.7365,0.7257,0.7257,0.7144,0.7031,0.7031,0.7031,0.0,0.0,0.7031,0.7085,0.7085,0.7085,0.7085,0.0,0.0,0.0,0.0,0.6928,0.682,0.6701,0.6332,0.6119,0.6,0.5896,0.5677,0.5297,0.4904,0.4608,0.4348,0.3776,0.3299,0.2916,0.2353,0.1925,0.1569,0.1344,0.1119,0.0985,0.0895,0.0716,0.0582,0.0582,0.0492,0.0358,1.6132,1.6272,1.6272,1.6272,1.6272,1.6272,1.6272,1.6272,1.6272,1.6272,1.6272,1.6132,1.6132,1.5921,1.5718,1.5655,1.5355,1.5133,1.507,1.507,1.4927,1.4649,1.3982,1.3541,1.3333,1.26,1.2182,1.2127,1.1996,1.1934,1.1934,1.1747,1.1747,1.1809,1.1747,1.1747,1.1809,1.1934,1.1934,1.1934,1.2058,1.2127,1.2127,1.2127,1.2058,1.1934,1.1747,1.156,1.1373,1.1115,1.0781,1.0485,1.0292,0.9842,0.9351,0.8983,0.8725,0.8471,0.8327,0.8099,0.7901,0.7901,0.7901,0.7901,0.7901,0.7901,0.7901,0.7788,0.7729,0.767,0.7622,0.7467,0.7419,0.7419,0.7306,0.73,0.73,0.7252,0.0,0.7198,0.7139,0.7085,0.7085,0.7085,0.7085,0.7085,0.7085,0.0,0.7085,0.6982,0.682,0.6701,0.644,0.6228,0.6114,0.6059,0.5841,0.5517,0.5238,0.5014,0.4842,0.4206,0.3717,0.345,0.2827,0.2417,0.2105,0.188,0.1746,0.1614,0.1524,0.1433,0.1299,0.1299,0.1254,0.1212,1.6342,1.6342,1.6412,1.6412,1.6412,1.6412,1.6412,1.6412,1.6412,1.6412,1.6342,1.6272,1.6202,1.6132,1.6,1.5867,1.5497,1.5275,1.5275,1.5275,1.5141,1.4935,1.4315,1.3858,1.3651,1.2782,1.2305,1.2189,1.2127,1.212,1.2127,1.1934,1.1934,1.2058,1.1934,1.1934,1.2127,1.212,1.212,1.212,1.2182,1.2189,1.2189,1.2189,1.2189,1.212,1.1934,1.1809,1.1615,1.1377,1.0937,1.0476,1.0181,0.9787,0.9279,0.8808,0.854,0.8287,0.8231,0.8069,0.7901,0.7901,0.7901,0.7901,0.7901,0.7901,0.7901,0.7901,0.7788,0.7723,0.7723,0.7622,0.7515,0.7515,0.7515,0.7521,0.7521,0.0,0.7317,0.7317,0.7198,0.7139,0.7085,0.7117,0.7139,0.7139,0.7171,0.7176,0.7139,0.7035,0.6911,0.6761,0.6544,0.6386,0.6228,0.6114,0.6005,0.585,0.5517,0.5352,0.5285,0.4569,0.4118,0.39,0.329,0.2865,0.2593,0.2457,0.2281,0.2152,0.2152,0.2062,0.1971,0.1971,0.1981,0.1999,1.6533,1.6691,1.6839,1.6839,1.6839,1.6839,1.6839,1.6839,1.6839,1.6839,1.6691,1.6542,1.6542,1.6272,1.6061,1.607,1.5859,1.5655,1.5426,1.5426,1.5355,1.5133,1.4443,1.3991,1.3858,1.298,1.256,1.2498,1.2367,1.2243,1.2243,1.212,1.2058,1.2127,1.2058,1.2058,1.2127,1.2243,1.2243,1.2305,1.2436,1.2498,1.2498,1.2498,1.2436,1.2243,1.2243,1.212,1.1958,1.1306,1.1054,1.0907,1.0282,0.971,0.9187,0.9141,0.8786,0.8331,0.8015,0.7931,0.7901,0.7901,0.7901,0.7901,0.7901,0.7901,0.7901,0.7901,0.7901,0.7848,0.7848,0.7783,0.767,0.767,0.7568,0.7521,0.7521,0.0,0.7419,0.7311,0.7257,0.7203,0.7085,0.7273,0.7341,0.7341,0.758,0.7602,0.7346,0.7341,0.7189,0.6885,0.6707,0.6544,0.6381,0.6332,0.6218,0.595,0.5896,0.5677,0.5285,0.4923,0.4557,0.4143,0.3704,0.3353,0.3081,0.2946,0.2862,0.2779,0.2779,0.2734,0.2734,0.2734,0.2791,0.2918,1.7107,1.7038,1.7038,1.7038,1.6968,1.6908,1.6908,1.6908,1.6908,1.6908,1.6647,1.6374,1.6296,1.5981,1.5654,1.5578,1.5375,1.5316,1.5172,1.5291,1.5263,1.5047,1.4355,1.3808,1.3299,1.2905,1.2683,1.2621,1.2498,1.2436,1.2436,1.2305,1.2251,1.2375,1.2243,1.2251,1.2375,1.2436,1.2436,1.2498,1.256,1.2621,1.2621,1.2621,1.244,1.2145,1.2085,1.1856,1.1626,1.1165,1.082,1.0521,1.0207,0.9673,0.916,0.9005,0.8637,0.8268,0.8115,0.8008,0.7901,0.7901,0.7901,0.7901,0.7901,0.7901,0.7901,0.7901,0.7901,0.7901,0.7901,0.7842,0.7788,0.7788,0.7735,0.0,0.0,0.7681,0.762,0.7715,0.7621,0.7561,0.7626,0.7627,0.7639,0.7639,0.7736,0.7752,0.7645,0.7464,0.7346,0.7178,0.6882,0.6647,0.6544,0.6544,0.6436,0.6218,0.6168,0.595,0.5668,0.528,0.4897,0.4542,0.4112,0.3736,0.3398,0.3262,0.3215,0.3147,0.3147,0.328,0.3434,0.3434,0.3522,0.3684,1.747,1.7392,1.7245,1.7245,1.7107,1.7047,1.7047,1.6978,1.6968,1.6968,1.656,1.6245,1.6102,1.5683,1.531,1.5171,1.5041,1.4902,1.4902,1.497,1.4925,1.4875,1.425,1.3609,1.2936,1.2867,1.2805,1.2629,1.2629,1.2621,1.2621,1.2428,1.2436,1.256,1.2428,1.2436,1.2621,1.2621,1.2621,1.2613,1.2525,1.2562,1.2554,1.2466,1.2206,1.19,1.1791,1.1568,1.1285,1.103,1.0657,1.026,1.007,0.9667,0.9263,0.9008,0.8646,0.8328,0.8221,0.8062,0.7955,0.7901,0.7901,0.7901,0.7901,0.7901,0.7901,0.7901,0.7901,0.7901,0.7901,0.7901,0.7901,0.7901,0.0,0.0,0.0,0.7931,0.7917,0.8187,0.7989,0.789,0.8075,0.7969,0.7881,0.7881,0.7935,0.7941,0.7881,0.7709,0.7506,0.7399,0.6989,0.6756,0.6761,0.6761,0.6652,0.649,0.6386,0.6228,0.605,0.5633,0.5306,0.501,0.4582,0.4198,0.3907,0.3722,0.3652,0.3659,0.3659,0.382,0.4069,0.4069,0.4193,0.4343,1.747,1.747,1.747,1.747,1.747,1.747,1.747,1.7314,1.7166,1.7166,1.6696,1.6312,1.6254,1.5749,1.5384,1.5384,1.5171,1.5033,1.4911,1.4542,1.4469,1.4701,1.4196,1.3672,1.325,1.305,1.2928,1.2805,1.2805,1.2744,1.2621,1.256,1.256,1.2621,1.256,1.256,1.2621,1.2621,1.2683,1.2773,1.2373,1.2354,1.2447,1.2118,1.1866,1.1728,1.1728,1.1583,1.1447,1.0974,1.081,1.0616,1.0031,0.9695,0.9562,0.9413,0.9061,0.8699,0.8275,0.8168,0.8115,0.7955,0.7901,0.7901,0.7901,0.7901,0.7901,0.7901,0.7901,0.7901,0.7901,0.7901,0.7901,0.7901,0.0,0.0,0.8225,0.8261,0.83,0.8451,0.8369,0.8198,0.8091,0.8116,0.8186,0.8186,0.8334,0.8361,0.8196,0.8169,0.7898,0.741,0.7214,0.7036,0.6879,0.6879,0.682,0.6701,0.6647,0.6495,0.6168,0.601,0.5747,0.541,0.5014,0.4829,0.4771,0.4526,0.4436,0.4398,0.4398,0.4508,0.4622,0.4622,0.4821,0.5064,1.7803,1.7735,1.7657,1.7657,1.7529,1.747,1.747,1.7461,1.7314,1.7235,1.6541,1.6067,1.5927,1.5286,1.4841,1.4841,1.4709,1.4586,1.4524,1.4259,1.4057,1.3947,1.3749,1.3551,1.331,1.3241,1.3111,1.2928,1.2928,1.2867,1.2744,1.2744,1.2683,1.2621,1.2683,1.2744,1.2744,1.2805,1.2736,1.2576,1.2429,1.2307,1.2102,1.1962,1.1718,1.1521,1.1521,1.1366,1.1101,1.0813,1.0669,1.0541,1.02,0.9999,0.9784,0.9569,0.9263,0.8857,0.8646,0.8434,0.8321,0.8215,0.8168,0.8062,0.8062,0.8008,0.7901,0.7901,0.7901,0.7901,0.7901,0.7901,0.7901,0.7901,0.0,0.8177,0.8279,0.8429,0.8627,0.883,0.8745,0.8688,0.8657,0.8633,0.8499,0.8377,0.8463,0.8474,0.8382,0.8294,0.7935,0.741,0.7303,0.7186,0.7036,0.7036,0.6982,0.682,0.682,0.6712,0.649,0.646,0.6192,0.5803,0.5673,0.5366,0.5009,0.4915,0.4881,0.4876,0.4876,0.5048,0.5251,0.5352,0.5504,0.5672,1.8076,1.793,1.7784,1.7784,1.7725,1.7676,1.7676,1.7598,1.752,1.7373,1.659,1.6019,1.5827,1.5044,1.4565,1.4515,1.4396,1.4327,1.4267,1.4139,1.3881,1.3631,1.3511,1.3459,1.3354,1.3354,1.3294,1.3111,1.3111,1.2989,1.2867,1.2867,1.2805,1.2744,1.2805,1.2867,1.2858,1.2866,1.2728,1.2539,1.2307,1.2066,1.1834,1.1772,1.1519,1.1303,1.1303,1.1137,1.0871,1.0769,1.0718,1.0565,1.0419,1.0213,0.994,0.9673,0.9413,0.9166,0.8956,0.8745,0.8586,0.8421,0.8321,0.8275,0.8275,0.8162,0.8062,0.8062,0.8062,0.8055,0.8008,0.8008,0.7985,0.8009,0.8171,0.8345,0.8507,0.8687,0.8896,0.9166,0.9134,0.9017,0.9064,0.8894,0.877,0.8582,0.8517,0.8517,0.8517,0.8348,0.8066,0.7746,0.7641,0.7477,0.7362,0.7236,0.7144,0.7095,0.7041,0.6928,0.681,0.6761,0.6572,0.622,0.6168,0.5878,0.5446,0.5391,0.5367,0.5377,0.5377,0.5561,0.5837,0.5941,0.6109,0.6332,1.8269,1.8144,1.8008,1.8008,1.8008,1.8008,1.8008,1.7862,1.7706,1.7706,1.6834,1.6138,1.6028,1.5219,1.4666,1.4506,1.4515,1.4455,1.4327,1.4139,1.395,1.383,1.3631,1.3511,1.3511,1.3511,1.3459,1.3302,1.3302,1.318,1.2989,1.2989,1.2989,1.2989,1.2989,1.2989,1.2956,1.2654,1.2547,1.2655,1.1877,1.1682,1.1746,1.1413,1.1226,1.1124,1.1124,1.1023,1.0922,1.0922,1.0922,1.0871,1.0573,1.0257,0.9947,0.9673,0.9614,0.9562,0.9256,0.9113,0.8903,0.8527,0.8421,0.8421,0.8421,0.8421,0.8421,0.8421,0.8421,0.8374,0.8221,0.8221,0.8201,0.8305,0.8291,0.8477,0.9053,0.9132,0.9172,0.9454,0.9408,0.9274,0.9274,0.9022,0.877,0.877,0.8641,0.8517,0.8517,0.8422,0.8415,0.8409,0.8102,0.7897,0.7892,0.7488,0.7365,0.7521,0.7365,0.7257,0.7085,0.6982,0.682,0.6701,0.649,0.6332,0.6178,0.6059,0.6,0.6,0.6,0.6164,0.6381,0.6381,0.6603,0.6879,1.8414,1.8414,1.8347,1.8347,1.8279,1.8202,1.8202,1.8066,1.7755,1.7312,1.6802,1.6224,1.5741,1.5232,1.4843,1.4666,1.4666,1.4556,1.4446,1.4327,1.4207,1.4148,1.395,1.3821,1.3821,1.3761,1.3709,1.3657,1.3528,1.3346,1.3241,1.3241,1.3111,1.2989,1.318,1.303,1.2772,1.2839,1.255,1.2049,1.1828,1.1626,1.143,1.1319,1.1276,1.1226,1.1226,1.1217,1.1175,1.1074,1.1023,1.1023,1.082,1.0565,1.036,1.0249,0.9999,0.9681,0.9517,0.9361,0.9211,0.8903,0.8685,0.8521,0.8521,0.8474,0.8421,0.8421,0.8421,0.8374,0.8374,0.8321,0.841,0.8632,0.8726,0.8915,0.926,0.9363,0.9388,0.9472,0.9478,0.9408,0.9338,0.921,0.9087,0.8958,0.8894,0.8829,0.8829,0.882,0.8771,0.8601,0.8508,0.8462,0.8509,0.7793,0.7467,0.7521,0.7467,0.7413,0.7354,0.7359,0.7198,0.6977,0.6923,0.6761,0.6544,0.649,0.649,0.649,0.6603,0.6657,0.6766,0.6987,0.7095,0.7203,1.8617,1.8549,1.8482,1.8482,1.8405,1.8405,1.8405,1.8131,1.7799,1.7458,1.6846,1.6243,1.585,1.5396,1.5029,1.4834,1.4843,1.4725,1.4616,1.4497,1.4437,1.4396,1.4258,1.4139,1.401,1.395,1.389,1.389,1.3761,1.364,1.3597,1.3536,1.3415,1.3277,1.3202,1.3076,1.2838,1.2598,1.2261,1.1771,1.1678,1.1473,1.1326,1.1326,1.1326,1.1326,1.1326,1.1326,1.1276,1.1226,1.1124,1.1074,1.1023,1.082,1.0675,1.0565,1.0316,1.0058,0.994,0.9732,0.9524,0.9316,0.9047,0.8837,0.8837,0.8791,0.8738,0.8738,0.8685,0.8639,0.8586,0.8624,0.8683,0.8902,0.913,0.9354,0.9624,0.9686,0.967,0.967,0.967,0.9606,0.9536,0.9402,0.921,0.9017,0.9017,0.9017,0.9145,0.9145,0.9203,0.9125,0.908,0.9132,0.9147,0.8531,0.8147,0.7991,0.7782,0.7681,0.7628,0.7574,0.7408,0.7246,0.7246,0.7139,0.6933,0.7078,0.7115,0.7115,0.718,0.7235,0.7329,0.7393,0.7473,0.758,1.8808,1.8684,1.8549,1.8549,1.8549,1.8529,1.8489,1.8157,1.7875,1.7795,1.6947,1.6236,1.6076,1.5615,1.5215,1.5029,1.5029,1.4911,1.4715,1.4715,1.4666,1.4575,1.4565,1.4387,1.413,1.407,1.401,1.401,1.401,1.401,1.401,1.389,1.383,1.3812,1.326,1.3021,1.2935,1.2149,1.1824,1.1756,1.1464,1.1326,1.1326,1.1326,1.1326,1.1326,1.1326,1.1326,1.1318,1.1326,1.1226,1.1124,1.1124,1.1023,1.0871,1.0769,1.0624,1.0522,1.0368,1.011,0.9844,0.9725,0.9465,0.9263,0.9211,0.9211,0.9211,0.9211,0.9113,0.8956,0.8857,0.8936,0.9114,0.9266,0.9509,0.9803,1.0009,0.9983,0.9983,0.9983,0.9862,0.9804,0.9804,0.9536,0.9274,0.9081,0.9081,0.9145,0.9338,0.946,0.9658,0.9804,0.9749,0.9746,0.9807,0.9511,0.9215,0.882,0.83,0.8027,0.8027,0.7751,0.7637,0.7643,0.7643,0.7535,0.7449,0.7672,0.7818,0.7818,0.7818,0.7869,0.8004,0.7852,0.7872,0.7985,1.9218,1.9075,1.8942,1.8942,1.8808,1.8629,1.8263,1.8021,1.7654,1.6888,1.6618,1.6317,1.5968,1.5858,1.5614,1.5362,1.5137,1.497,1.497,1.4911,1.4911,1.4911,1.4921,1.4862,1.4793,1.4437,1.4207,1.4207,1.407,1.401,1.401,1.395,1.395,1.3932,1.3494,1.3151,1.2817,1.2298,1.1982,1.1692,1.1654,1.1619,1.1619,1.1619,1.1619,1.1619,1.1619,1.1619,1.1628,1.1469,1.1377,1.1276,1.1276,1.1175,1.1074,1.1023,1.0922,1.0769,1.0675,1.0565,1.0462,1.0205,1.011,0.9895,0.9316,0.9211,0.9211,0.9211,0.9159,0.9159,0.9106,0.9362,0.9611,0.9735,0.992,1.0098,1.0199,1.011,0.9983,0.9983,0.9983,0.9989,0.9989,0.9919,0.9856,0.9792,0.9792,0.9792,0.9856,0.9856,0.9919,0.9989,0.9933,1.009,1.0405,1.0106,0.9689,0.917,0.9055,0.9023,0.8966,0.8909,0.8851,0.8679,0.8679,0.8628,0.8467,0.8521,0.8545,0.8545,0.8655,0.8707,0.8734,0.8627,0.8582,0.8612,1.9407,1.9407,1.9341,1.9341,1.9274,1.8986,1.8475,1.8163,1.7656,1.6829,1.6495,1.6204,1.6039,1.5972,1.5856,1.5662,1.5498,1.5381,1.5196,1.5196,1.5137,1.5039,1.497,1.497,1.497,1.4743,1.4616,1.4497,1.4318,1.4258,1.4258,1.4139,1.4031,1.3758,1.3318,1.2873,1.2475,1.2148,1.1864,1.1728,1.1728,1.1728,1.1728,1.1728,1.1728,1.1728,1.1728,1.1728,1.1678,1.1628,1.1528,1.1469,1.1469,1.1427,1.1377,1.1377,1.1267,1.1175,1.1124,1.0972,1.082,1.0624,1.0522,1.0316,0.9732,0.9577,0.9577,0.9577,0.9465,0.9456,0.9613,0.979,0.9938,1.0186,1.0437,1.0629,1.0661,1.0618,1.0491,1.0364,1.0308,1.0238,1.0047,0.9983,1.0047,1.011,1.011,1.0238,1.0364,1.0364,1.0428,1.0491,1.0491,1.0618,1.0814,1.065,1.0431,1.0147,0.9695,0.9499,0.9499,0.9382,0.9266,0.9143,0.9143,0.9143,0.9155,0.9301,0.9358,0.9477,0.953,0.959,0.9538,0.923,0.9084,0.8998,1.9671,1.9605,1.9605,1.9605,1.9541,1.9263,1.868,1.8217,1.7693,1.7044,1.6533,1.6228,1.6171,1.6019,1.5914,1.5914,1.5914,1.5788,1.5478,1.5478,1.5371,1.5147,1.5147,1.5147,1.5088,1.5088,1.4961,1.4775,1.4616,1.4575,1.4565,1.4446,1.4159,1.3675,1.3166,1.2726,1.2341,1.1939,1.1778,1.1778,1.1778,1.1778,1.1778,1.1778,1.1778,1.1778,1.1778,1.1769,1.1719,1.1719,1.1728,1.1728,1.1728,1.1728,1.1728,1.1728,1.1628,1.1519,1.1519,1.1368,1.1175,1.1023,1.0922,1.0718,1.0308,1.0102,1.0051,1.0051,0.9881,0.9828,1.01,1.0299,1.0413,1.0675,1.0979,1.1185,1.1122,1.1122,1.1059,1.087,1.0744,1.0555,1.0238,1.0174,1.0238,1.0428,1.0428,1.0555,1.087,1.087,1.0933,1.1059,1.1122,1.1122,1.1122,1.1122,1.1122,1.1178,1.0368,0.9951,0.9951,0.9708,0.9584,0.9584,0.9584,0.9643,0.9774,1.0033,1.02,1.0323,1.0323,1.0323,1.0309,0.9818,0.9507,0.9334,1.9868,1.9736,1.9605,1.9605,1.9264,1.8839,1.836,1.7843,1.7387,1.691,1.6736,1.6637,1.657,1.6285,1.6056,1.6056,1.5961,1.5856,1.5856,1.5856,1.5798,1.5798,1.5798,1.574,1.5614,1.542,1.5245,1.497,1.4911,1.4911,1.4911,1.4911,1.4636,1.4214,1.3781,1.3359,1.2955,1.2442,1.2224,1.2224,1.2076,1.2026,1.2026,1.2026,1.2026,1.2026,1.2026,1.1977,1.1877,1.1877,1.1778,1.1728,1.1728,1.1728,1.1728,1.1728,1.1678,1.1669,1.1669,1.1628,1.1578,1.1469,1.1427,1.1318,1.1015,1.0565,1.0265,1.0265,1.0385,1.0486,1.0531,1.1001,1.1382,1.1242,1.1409,1.1498,1.131,1.1185,1.1059,1.1059,1.1059,1.0996,1.0933,1.0933,1.0933,1.0996,1.0996,1.0996,1.1059,1.1059,1.1059,1.1122,1.1122,1.1185,1.124,1.124,1.1365,1.1498,1.1217,1.0995,1.0933,1.0871,1.0878,1.0878,1.0878,1.0871,1.0878,1.092,1.0933,1.0996,1.0996,1.0996,1.0926,1.0413,1.0093,0.9948,2.0009,1.9944,1.9878,1.9878,1.9479,1.9005,1.847,1.7997,1.7466,1.6882,1.6818,1.6751,1.6694,1.6581,1.6467,1.6467,1.6353,1.6249,1.6202,1.6077,1.5961,1.5914,1.5914,1.5856,1.5798,1.573,1.5614,1.5508,1.5156,1.497,1.497,1.497,1.462,1.3967,1.3777,1.3342,1.2736,1.2506,1.2421,1.2431,1.2332,1.2323,1.2323,1.2323,1.2323,1.2323,1.2323,1.2283,1.2224,1.2224,1.2175,1.2126,1.2126,1.2126,1.2126,1.2126,1.2126,1.2126,1.2126,1.2076,1.2026,1.1977,1.1828,1.1669,1.1569,1.143,1.122,1.0967,1.0937,1.1043,1.1318,1.1581,1.1734,1.1738,1.1835,1.1872,1.1747,1.1685,1.156,1.1373,1.1185,1.1122,1.1122,1.1122,1.1185,1.1373,1.1373,1.1435,1.1622,1.1685,1.1685,1.1685,1.1685,1.1685,1.1747,1.1747,1.1809,1.1872,1.1809,1.156,1.1185,1.1122,1.1122,1.1178,1.1178,1.131,1.149,1.149,1.156,1.1685,1.1685,1.1512,1.1374,1.1086,1.094,1.0713]}]]